<?xml version="1.0" encoding="UTF-8" standalone="no" ?>
<gpx xmlns="http://www.topografix.com/GPX/1/1" xmlns:xsi="http://www.w3.org/2001/XMLSchema-instance" xsi:schemaLocation="http://www.topografix.com/GPX/1/1 http://www.topografix.com/GPX/1/1/gpx.xsd" version="1.1" creator="VisuGPX - https://www.visugpx.com">
  <metadata>
    <name>Pic de Courmettes</name>
    <desc><![CDATA[Sortie Pic de Courmettes]]></desc>
  </metadata>
  <trk>
    <name><![CDATA[Endurance]]></name>
    <trkseg>
      <trkpt lat="43.71837" lon="7.06324">
        <ele>401.60000610352</ele>
        <time>2013-12-08T07:54:53.000Z</time>
      </trkpt>
      <trkpt lat="43.71852" lon="7.06329">
        <ele>402</ele>
        <time>2013-12-08T07:55:00.000Z</time>
      </trkpt>
      <trkpt lat="43.71862" lon="7.06338">
        <ele>402.60000610352</ele>
        <time>2013-12-08T07:55:04.000Z</time>
      </trkpt>
      <trkpt lat="43.71869" lon="7.06357">
        <ele>403.79998779297</ele>
        <time>2013-12-08T07:55:10.000Z</time>
      </trkpt>
      <trkpt lat="43.71876" lon="7.06372">
        <ele>404.60000610352</ele>
        <time>2013-12-08T07:55:16.000Z</time>
      </trkpt>
      <trkpt lat="43.71879" lon="7.06373">
        <ele>404.79998779297</ele>
        <time>2013-12-08T07:55:17.000Z</time>
      </trkpt>
      <trkpt lat="43.71886" lon="7.06381">
        <ele>405.39999389648</ele>
        <time>2013-12-08T07:55:20.000Z</time>
      </trkpt>
      <trkpt lat="43.71888" lon="7.06386">
        <ele>405.79998779297</ele>
        <time>2013-12-08T07:55:22.000Z</time>
      </trkpt>
      <trkpt lat="43.71895" lon="7.06402">
        <ele>406.60000610352</ele>
        <time>2013-12-08T07:55:28.000Z</time>
      </trkpt>
      <trkpt lat="43.71906" lon="7.06428">
        <ele>408.20001220703</ele>
        <time>2013-12-08T07:55:37.000Z</time>
      </trkpt>
      <trkpt lat="43.71915" lon="7.06455">
        <ele>409.79998779297</ele>
        <time>2013-12-08T07:55:46.000Z</time>
      </trkpt>
      <trkpt lat="43.71927" lon="7.06486">
        <ele>412.20001220703</ele>
        <time>2013-12-08T07:55:56.000Z</time>
      </trkpt>
      <trkpt lat="43.7194" lon="7.06517">
        <ele>414.79998779297</ele>
        <time>2013-12-08T07:56:06.000Z</time>
      </trkpt>
      <trkpt lat="43.71947" lon="7.0655">
        <ele>417</ele>
        <time>2013-12-08T07:56:17.000Z</time>
      </trkpt>
      <trkpt lat="43.71951" lon="7.06588">
        <ele>419.20001220703</ele>
        <time>2013-12-08T07:56:29.000Z</time>
      </trkpt>
      <trkpt lat="43.71955" lon="7.06614">
        <ele>420</ele>
        <time>2013-12-08T07:56:38.000Z</time>
      </trkpt>
      <trkpt lat="43.71959" lon="7.0664">
        <ele>421</ele>
        <time>2013-12-08T07:56:47.000Z</time>
      </trkpt>
      <trkpt lat="43.7196" lon="7.06638">
        <ele>420.79998779297</ele>
        <time>2013-12-08T07:56:50.000Z</time>
      </trkpt>
      <trkpt lat="43.7196" lon="7.06635">
        <ele>420.79998779297</ele>
        <time>2013-12-08T07:56:51.000Z</time>
      </trkpt>
      <trkpt lat="43.71959" lon="7.06622">
        <ele>420.39999389648</ele>
        <time>2013-12-08T07:56:54.000Z</time>
      </trkpt>
      <trkpt lat="43.71967" lon="7.06623">
        <ele>420.79998779297</ele>
        <time>2013-12-08T07:56:57.000Z</time>
      </trkpt>
      <trkpt lat="43.71969" lon="7.06626">
        <ele>421</ele>
        <time>2013-12-08T07:56:58.000Z</time>
      </trkpt>
      <trkpt lat="43.71982" lon="7.06642">
        <ele>422</ele>
        <time>2013-12-08T07:57:05.000Z</time>
      </trkpt>
      <trkpt lat="43.71996" lon="7.06653">
        <ele>422.60000610352</ele>
        <time>2013-12-08T07:57:12.000Z</time>
      </trkpt>
      <trkpt lat="43.72012" lon="7.06666">
        <ele>424.20001220703</ele>
        <time>2013-12-08T07:57:21.000Z</time>
      </trkpt>
      <trkpt lat="43.72027" lon="7.0668">
        <ele>425.79998779297</ele>
        <time>2013-12-08T07:57:31.000Z</time>
      </trkpt>
      <trkpt lat="43.72042" lon="7.06685">
        <ele>427.39999389648</ele>
        <time>2013-12-08T07:57:40.000Z</time>
      </trkpt>
      <trkpt lat="43.72054" lon="7.06684">
        <ele>428.39999389648</ele>
        <time>2013-12-08T07:57:48.000Z</time>
      </trkpt>
      <trkpt lat="43.72067" lon="7.06681">
        <ele>429.60000610352</ele>
        <time>2013-12-08T07:57:56.000Z</time>
      </trkpt>
      <trkpt lat="43.72079" lon="7.0668">
        <ele>430.79998779297</ele>
        <time>2013-12-08T07:58:03.000Z</time>
      </trkpt>
      <trkpt lat="43.72095" lon="7.06681">
        <ele>432.20001220703</ele>
        <time>2013-12-08T07:58:12.000Z</time>
      </trkpt>
      <trkpt lat="43.72112" lon="7.06682">
        <ele>434</ele>
        <time>2013-12-08T07:58:20.000Z</time>
      </trkpt>
      <trkpt lat="43.72137" lon="7.06685">
        <ele>436.39999389648</ele>
        <time>2013-12-08T07:58:31.000Z</time>
      </trkpt>
      <trkpt lat="43.72154" lon="7.06691">
        <ele>438.20001220703</ele>
        <time>2013-12-08T07:58:41.000Z</time>
      </trkpt>
      <trkpt lat="43.7217" lon="7.06702">
        <ele>439.79998779297</ele>
        <time>2013-12-08T07:58:51.000Z</time>
      </trkpt>
      <trkpt lat="43.72185" lon="7.06714">
        <ele>441.79998779297</ele>
        <time>2013-12-08T07:59:01.000Z</time>
      </trkpt>
      <trkpt lat="43.72187" lon="7.06719">
        <ele>442</ele>
        <time>2013-12-08T07:59:05.000Z</time>
      </trkpt>
      <trkpt lat="43.72187" lon="7.06722">
        <ele>442</ele>
        <time>2013-12-08T07:59:07.000Z</time>
      </trkpt>
      <trkpt lat="43.72189" lon="7.06743">
        <ele>442.60000610352</ele>
        <time>2013-12-08T07:59:15.000Z</time>
      </trkpt>
      <trkpt lat="43.72192" lon="7.06767">
        <ele>443.39999389648</ele>
        <time>2013-12-08T07:59:25.000Z</time>
      </trkpt>
      <trkpt lat="43.72199" lon="7.06789">
        <ele>444.79998779297</ele>
        <time>2013-12-08T07:59:33.000Z</time>
      </trkpt>
      <trkpt lat="43.72202" lon="7.06811">
        <ele>445.60000610352</ele>
        <time>2013-12-08T07:59:41.000Z</time>
      </trkpt>
      <trkpt lat="43.72203" lon="7.06827">
        <ele>446</ele>
        <time>2013-12-08T07:59:47.000Z</time>
      </trkpt>
      <trkpt lat="43.72208" lon="7.0686">
        <ele>446.79998779297</ele>
        <time>2013-12-08T07:59:54.000Z</time>
      </trkpt>
      <trkpt lat="43.72216" lon="7.06887">
        <ele>448</ele>
        <time>2013-12-08T08:00:01.000Z</time>
      </trkpt>
      <trkpt lat="43.72227" lon="7.06899">
        <ele>449.20001220703</ele>
        <time>2013-12-08T08:00:07.000Z</time>
      </trkpt>
      <trkpt lat="43.72239" lon="7.06907">
        <ele>450.60000610352</ele>
        <time>2013-12-08T08:00:14.000Z</time>
      </trkpt>
      <trkpt lat="43.72247" lon="7.06911">
        <ele>451.60000610352</ele>
        <time>2013-12-08T08:00:20.000Z</time>
      </trkpt>
      <trkpt lat="43.72258" lon="7.06917">
        <ele>453</ele>
        <time>2013-12-08T08:00:27.000Z</time>
      </trkpt>
      <trkpt lat="43.72279" lon="7.06928">
        <ele>455.60000610352</ele>
        <time>2013-12-08T08:00:39.000Z</time>
      </trkpt>
      <trkpt lat="43.72297" lon="7.0694">
        <ele>457.39999389648</ele>
        <time>2013-12-08T08:00:50.000Z</time>
      </trkpt>
      <trkpt lat="43.7231" lon="7.06955">
        <ele>458.20001220703</ele>
        <time>2013-12-08T08:01:00.000Z</time>
      </trkpt>
      <trkpt lat="43.72321" lon="7.06967">
        <ele>458.79998779297</ele>
        <time>2013-12-08T08:01:09.000Z</time>
      </trkpt>
      <trkpt lat="43.72327" lon="7.06963">
        <ele>459.39999389648</ele>
        <time>2013-12-08T08:01:15.000Z</time>
      </trkpt>
      <trkpt lat="43.72337" lon="7.06948">
        <ele>461</ele>
        <time>2013-12-08T08:01:24.000Z</time>
      </trkpt>
      <trkpt lat="43.72351" lon="7.06933">
        <ele>464</ele>
        <time>2013-12-08T08:01:35.000Z</time>
      </trkpt>
      <trkpt lat="43.72365" lon="7.06921">
        <ele>467</ele>
        <time>2013-12-08T08:01:44.000Z</time>
      </trkpt>
      <trkpt lat="43.72372" lon="7.06914">
        <ele>468.39999389648</ele>
        <time>2013-12-08T08:01:50.000Z</time>
      </trkpt>
      <trkpt lat="43.72382" lon="7.06908">
        <ele>470</ele>
        <time>2013-12-08T08:01:56.000Z</time>
      </trkpt>
      <trkpt lat="43.72395" lon="7.06907">
        <ele>472.20001220703</ele>
        <time>2013-12-08T08:02:04.000Z</time>
      </trkpt>
      <trkpt lat="43.72408" lon="7.06912">
        <ele>474.39999389648</ele>
        <time>2013-12-08T08:02:12.000Z</time>
      </trkpt>
      <trkpt lat="43.72422" lon="7.06921">
        <ele>476.39999389648</ele>
        <time>2013-12-08T08:02:21.000Z</time>
      </trkpt>
      <trkpt lat="43.72432" lon="7.06942">
        <ele>476</ele>
        <time>2013-12-08T08:02:30.000Z</time>
      </trkpt>
      <trkpt lat="43.72439" lon="7.0696">
        <ele>475.79998779297</ele>
        <time>2013-12-08T08:02:38.000Z</time>
      </trkpt>
      <trkpt lat="43.7245" lon="7.06986">
        <ele>475.39999389648</ele>
        <time>2013-12-08T08:02:47.000Z</time>
      </trkpt>
      <trkpt lat="43.72463" lon="7.07016">
        <ele>476.20001220703</ele>
        <time>2013-12-08T08:02:56.000Z</time>
      </trkpt>
      <trkpt lat="43.72471" lon="7.07042">
        <ele>477</ele>
        <time>2013-12-08T08:03:03.000Z</time>
      </trkpt>
      <trkpt lat="43.72473" lon="7.07065">
        <ele>476.60000610352</ele>
        <time>2013-12-08T08:03:08.000Z</time>
      </trkpt>
      <trkpt lat="43.72471" lon="7.0709">
        <ele>475.60000610352</ele>
        <time>2013-12-08T08:03:14.000Z</time>
      </trkpt>
      <trkpt lat="43.72467" lon="7.07113">
        <ele>475.60000610352</ele>
        <time>2013-12-08T08:03:21.000Z</time>
      </trkpt>
      <trkpt lat="43.72465" lon="7.07139">
        <ele>476.39999389648</ele>
        <time>2013-12-08T08:03:29.000Z</time>
      </trkpt>
      <trkpt lat="43.72463" lon="7.07166">
        <ele>477</ele>
        <time>2013-12-08T08:03:38.000Z</time>
      </trkpt>
      <trkpt lat="43.72461" lon="7.07192">
        <ele>476.20001220703</ele>
        <time>2013-12-08T08:03:46.000Z</time>
      </trkpt>
      <trkpt lat="43.72462" lon="7.07214">
        <ele>476.20001220703</ele>
        <time>2013-12-08T08:03:53.000Z</time>
      </trkpt>
      <trkpt lat="43.72463" lon="7.07233">
        <ele>475.79998779297</ele>
        <time>2013-12-08T08:03:59.000Z</time>
      </trkpt>
      <trkpt lat="43.72467" lon="7.07252">
        <ele>477.20001220703</ele>
        <time>2013-12-08T08:04:05.000Z</time>
      </trkpt>
      <trkpt lat="43.72472" lon="7.07271">
        <ele>477.60000610352</ele>
        <time>2013-12-08T08:04:11.000Z</time>
      </trkpt>
      <trkpt lat="43.72476" lon="7.073">
        <ele>477</ele>
        <time>2013-12-08T08:04:20.000Z</time>
      </trkpt>
      <trkpt lat="43.72479" lon="7.07321">
        <ele>476.60000610352</ele>
        <time>2013-12-08T08:04:27.000Z</time>
      </trkpt>
      <trkpt lat="43.72487" lon="7.07339">
        <ele>477.79998779297</ele>
        <time>2013-12-08T08:04:34.000Z</time>
      </trkpt>
      <trkpt lat="43.72502" lon="7.07366">
        <ele>479.39999389648</ele>
        <time>2013-12-08T08:04:44.000Z</time>
      </trkpt>
      <trkpt lat="43.72513" lon="7.07387">
        <ele>479.60000610352</ele>
        <time>2013-12-08T08:04:52.000Z</time>
      </trkpt>
      <trkpt lat="43.72529" lon="7.07411">
        <ele>480</ele>
        <time>2013-12-08T08:05:01.000Z</time>
      </trkpt>
      <trkpt lat="43.72543" lon="7.0744">
        <ele>480</ele>
        <time>2013-12-08T08:05:10.000Z</time>
      </trkpt>
      <trkpt lat="43.72561" lon="7.07471">
        <ele>480.39999389648</ele>
        <time>2013-12-08T08:05:20.000Z</time>
      </trkpt>
      <trkpt lat="43.72578" lon="7.07495">
        <ele>481.20001220703</ele>
        <time>2013-12-08T08:05:29.000Z</time>
      </trkpt>
      <trkpt lat="43.72589" lon="7.07503">
        <ele>482.39999389648</ele>
        <time>2013-12-08T08:05:35.000Z</time>
      </trkpt>
      <trkpt lat="43.72598" lon="7.07507">
        <ele>483.20001220703</ele>
        <time>2013-12-08T08:05:41.000Z</time>
      </trkpt>
      <trkpt lat="43.72612" lon="7.07513">
        <ele>484.39999389648</ele>
        <time>2013-12-08T08:05:49.000Z</time>
      </trkpt>
      <trkpt lat="43.72623" lon="7.07512">
        <ele>486.20001220703</ele>
        <time>2013-12-08T08:05:56.000Z</time>
      </trkpt>
      <trkpt lat="43.72638" lon="7.07513">
        <ele>488.79998779297</ele>
        <time>2013-12-08T08:06:03.000Z</time>
      </trkpt>
      <trkpt lat="43.72659" lon="7.07514">
        <ele>491.79998779297</ele>
        <time>2013-12-08T08:06:13.000Z</time>
      </trkpt>
      <trkpt lat="43.72672" lon="7.07513">
        <ele>493.79998779297</ele>
        <time>2013-12-08T08:06:20.000Z</time>
      </trkpt>
      <trkpt lat="43.72681" lon="7.07513">
        <ele>494.79998779297</ele>
        <time>2013-12-08T08:06:26.000Z</time>
      </trkpt>
      <trkpt lat="43.72682" lon="7.07513">
        <ele>495</ele>
        <time>2013-12-08T08:06:27.000Z</time>
      </trkpt>
      <trkpt lat="43.72692" lon="7.07515">
        <ele>495.60000610352</ele>
        <time>2013-12-08T08:06:32.000Z</time>
      </trkpt>
      <trkpt lat="43.72705" lon="7.07513">
        <ele>497.20001220703</ele>
        <time>2013-12-08T08:06:38.000Z</time>
      </trkpt>
      <trkpt lat="43.72725" lon="7.07513">
        <ele>499.60000610352</ele>
        <time>2013-12-08T08:06:45.000Z</time>
      </trkpt>
      <trkpt lat="43.72739" lon="7.07507">
        <ele>501.79998779297</ele>
        <time>2013-12-08T08:06:51.000Z</time>
      </trkpt>
      <trkpt lat="43.72749" lon="7.07499">
        <ele>504</ele>
        <time>2013-12-08T08:06:56.000Z</time>
      </trkpt>
      <trkpt lat="43.72758" lon="7.07494">
        <ele>506.79998779297</ele>
        <time>2013-12-08T08:07:01.000Z</time>
      </trkpt>
      <trkpt lat="43.72771" lon="7.07491">
        <ele>509.79998779297</ele>
        <time>2013-12-08T08:07:08.000Z</time>
      </trkpt>
      <trkpt lat="43.72776" lon="7.07492">
        <ele>510.60000610352</ele>
        <time>2013-12-08T08:07:10.000Z</time>
      </trkpt>
      <trkpt lat="43.72782" lon="7.07499">
        <ele>510.39999389648</ele>
        <time>2013-12-08T08:07:13.000Z</time>
      </trkpt>
      <trkpt lat="43.72781" lon="7.07506">
        <ele>509</ele>
        <time>2013-12-08T08:07:16.000Z</time>
      </trkpt>
      <trkpt lat="43.7278" lon="7.07512">
        <ele>508.20001220703</ele>
        <time>2013-12-08T08:07:18.000Z</time>
      </trkpt>
      <trkpt lat="43.72782" lon="7.07522">
        <ele>507.20001220703</ele>
        <time>2013-12-08T08:07:23.000Z</time>
      </trkpt>
      <trkpt lat="43.72792" lon="7.07536">
        <ele>507.79998779297</ele>
        <time>2013-12-08T08:07:29.000Z</time>
      </trkpt>
      <trkpt lat="43.72805" lon="7.07546">
        <ele>509.39999389648</ele>
        <time>2013-12-08T08:07:36.000Z</time>
      </trkpt>
      <trkpt lat="43.72816" lon="7.07553">
        <ele>511</ele>
        <time>2013-12-08T08:07:43.000Z</time>
      </trkpt>
      <trkpt lat="43.72823" lon="7.07562">
        <ele>511.60000610352</ele>
        <time>2013-12-08T08:07:49.000Z</time>
      </trkpt>
      <trkpt lat="43.72835" lon="7.07574">
        <ele>513.40002441406</ele>
        <time>2013-12-08T08:07:57.000Z</time>
      </trkpt>
      <trkpt lat="43.72842" lon="7.07586">
        <ele>515.59997558594</ele>
        <time>2013-12-08T08:08:04.000Z</time>
      </trkpt>
      <trkpt lat="43.72847" lon="7.07596">
        <ele>516.79998779297</ele>
        <time>2013-12-08T08:08:09.000Z</time>
      </trkpt>
      <trkpt lat="43.7285" lon="7.07601">
        <ele>517.20001220703</ele>
        <time>2013-12-08T08:08:12.000Z</time>
      </trkpt>
      <trkpt lat="43.72855" lon="7.07613">
        <ele>518.40002441406</ele>
        <time>2013-12-08T08:08:18.000Z</time>
      </trkpt>
      <trkpt lat="43.7286" lon="7.07627">
        <ele>519</ele>
        <time>2013-12-08T08:08:24.000Z</time>
      </trkpt>
      <trkpt lat="43.72866" lon="7.0764">
        <ele>520.20001220703</ele>
        <time>2013-12-08T08:08:31.000Z</time>
      </trkpt>
      <trkpt lat="43.72872" lon="7.0765">
        <ele>521.79998779297</ele>
        <time>2013-12-08T08:08:37.000Z</time>
      </trkpt>
      <trkpt lat="43.7288" lon="7.0766">
        <ele>524</ele>
        <time>2013-12-08T08:08:44.000Z</time>
      </trkpt>
      <trkpt lat="43.72882" lon="7.07663">
        <ele>524.79998779297</ele>
        <time>2013-12-08T08:08:46.000Z</time>
      </trkpt>
      <trkpt lat="43.72887" lon="7.07667">
        <ele>526.20001220703</ele>
        <time>2013-12-08T08:08:49.000Z</time>
      </trkpt>
      <trkpt lat="43.72891" lon="7.07675">
        <ele>526.59997558594</ele>
        <time>2013-12-08T08:08:53.000Z</time>
      </trkpt>
      <trkpt lat="43.72892" lon="7.07678">
        <ele>526.79998779297</ele>
        <time>2013-12-08T08:08:54.000Z</time>
      </trkpt>
      <trkpt lat="43.72898" lon="7.07694">
        <ele>527</ele>
        <time>2013-12-08T08:09:01.000Z</time>
      </trkpt>
      <trkpt lat="43.729" lon="7.07705">
        <ele>526.59997558594</ele>
        <time>2013-12-08T08:09:06.000Z</time>
      </trkpt>
      <trkpt lat="43.72904" lon="7.07719">
        <ele>526</ele>
        <time>2013-12-08T08:09:12.000Z</time>
      </trkpt>
      <trkpt lat="43.72907" lon="7.07733">
        <ele>525.40002441406</ele>
        <time>2013-12-08T08:09:18.000Z</time>
      </trkpt>
      <trkpt lat="43.7291" lon="7.07747">
        <ele>525</ele>
        <time>2013-12-08T08:09:24.000Z</time>
      </trkpt>
      <trkpt lat="43.72923" lon="7.07764">
        <ele>526.79998779297</ele>
        <time>2013-12-08T08:09:32.000Z</time>
      </trkpt>
      <trkpt lat="43.72929" lon="7.07776">
        <ele>527</ele>
        <time>2013-12-08T08:09:38.000Z</time>
      </trkpt>
      <trkpt lat="43.72935" lon="7.07792">
        <ele>526.20001220703</ele>
        <time>2013-12-08T08:09:44.000Z</time>
      </trkpt>
      <trkpt lat="43.7294" lon="7.07814">
        <ele>523.59997558594</ele>
        <time>2013-12-08T08:09:50.000Z</time>
      </trkpt>
      <trkpt lat="43.72952" lon="7.07841">
        <ele>522.59997558594</ele>
        <time>2013-12-08T08:09:55.000Z</time>
      </trkpt>
      <trkpt lat="43.72964" lon="7.07861">
        <ele>522.59997558594</ele>
        <time>2013-12-08T08:09:59.000Z</time>
      </trkpt>
      <trkpt lat="43.72979" lon="7.07889">
        <ele>522</ele>
        <time>2013-12-08T08:10:06.000Z</time>
      </trkpt>
      <trkpt lat="43.72989" lon="7.07897">
        <ele>523.59997558594</ele>
        <time>2013-12-08T08:10:11.000Z</time>
      </trkpt>
      <trkpt lat="43.72994" lon="7.079">
        <ele>524.40002441406</ele>
        <time>2013-12-08T08:10:14.000Z</time>
      </trkpt>
      <trkpt lat="43.73" lon="7.07902">
        <ele>525.79998779297</ele>
        <time>2013-12-08T08:10:17.000Z</time>
      </trkpt>
      <trkpt lat="43.73007" lon="7.07905">
        <ele>526.79998779297</ele>
        <time>2013-12-08T08:10:23.000Z</time>
      </trkpt>
      <trkpt lat="43.73008" lon="7.07904">
        <ele>527.20001220703</ele>
        <time>2013-12-08T08:10:24.000Z</time>
      </trkpt>
      <trkpt lat="43.73012" lon="7.07897">
        <ele>529.40002441406</ele>
        <time>2013-12-08T08:10:28.000Z</time>
      </trkpt>
      <trkpt lat="43.73017" lon="7.07891">
        <ele>531.59997558594</ele>
        <time>2013-12-08T08:10:34.000Z</time>
      </trkpt>
      <trkpt lat="43.73018" lon="7.0789">
        <ele>532.20001220703</ele>
        <time>2013-12-08T08:10:36.000Z</time>
      </trkpt>
      <trkpt lat="43.7302" lon="7.07882">
        <ele>533.79998779297</ele>
        <time>2013-12-08T08:10:40.000Z</time>
      </trkpt>
      <trkpt lat="43.7302" lon="7.07881">
        <ele>534.40002441406</ele>
        <time>2013-12-08T08:10:41.000Z</time>
      </trkpt>
      <trkpt lat="43.73025" lon="7.07875">
        <ele>536.40002441406</ele>
        <time>2013-12-08T08:10:46.000Z</time>
      </trkpt>
      <trkpt lat="43.73035" lon="7.07878">
        <ele>538.20001220703</ele>
        <time>2013-12-08T08:10:51.000Z</time>
      </trkpt>
      <trkpt lat="43.73043" lon="7.07881">
        <ele>539.40002441406</ele>
        <time>2013-12-08T08:10:55.000Z</time>
      </trkpt>
      <trkpt lat="43.73049" lon="7.07884">
        <ele>540</ele>
        <time>2013-12-08T08:10:58.000Z</time>
      </trkpt>
      <trkpt lat="43.73055" lon="7.07891">
        <ele>539.59997558594</ele>
        <time>2013-12-08T08:11:04.000Z</time>
      </trkpt>
      <trkpt lat="43.73057" lon="7.07895">
        <ele>539.20001220703</ele>
        <time>2013-12-08T08:11:08.000Z</time>
      </trkpt>
      <trkpt lat="43.7306" lon="7.07897">
        <ele>539.59997558594</ele>
        <time>2013-12-08T08:11:11.000Z</time>
      </trkpt>
      <trkpt lat="43.73061" lon="7.07898">
        <ele>539.59997558594</ele>
        <time>2013-12-08T08:11:12.000Z</time>
      </trkpt>
      <trkpt lat="43.73068" lon="7.07906">
        <ele>539.20001220703</ele>
        <time>2013-12-08T08:11:19.000Z</time>
      </trkpt>
      <trkpt lat="43.7307" lon="7.07913">
        <ele>538.20001220703</ele>
        <time>2013-12-08T08:11:26.000Z</time>
      </trkpt>
      <trkpt lat="43.7307" lon="7.07917">
        <ele>537.20001220703</ele>
        <time>2013-12-08T08:11:31.000Z</time>
      </trkpt>
      <trkpt lat="43.73077" lon="7.07926">
        <ele>537</ele>
        <time>2013-12-08T08:11:37.000Z</time>
      </trkpt>
      <trkpt lat="43.73084" lon="7.07937">
        <ele>536.59997558594</ele>
        <time>2013-12-08T08:11:45.000Z</time>
      </trkpt>
      <trkpt lat="43.73091" lon="7.07943">
        <ele>537.40002441406</ele>
        <time>2013-12-08T08:11:51.000Z</time>
      </trkpt>
      <trkpt lat="43.73095" lon="7.07942">
        <ele>538.40002441406</ele>
        <time>2013-12-08T08:11:55.000Z</time>
      </trkpt>
      <trkpt lat="43.73097" lon="7.07941">
        <ele>539</ele>
        <time>2013-12-08T08:11:57.000Z</time>
      </trkpt>
      <trkpt lat="43.731" lon="7.07945">
        <ele>538.79998779297</ele>
        <time>2013-12-08T08:12:00.000Z</time>
      </trkpt>
      <trkpt lat="43.73097" lon="7.07953">
        <ele>536.79998779297</ele>
        <time>2013-12-08T08:12:04.000Z</time>
      </trkpt>
      <trkpt lat="43.73092" lon="7.07956">
        <ele>535.20001220703</ele>
        <time>2013-12-08T08:12:09.000Z</time>
      </trkpt>
      <trkpt lat="43.73092" lon="7.07955">
        <ele>535.20001220703</ele>
        <time>2013-12-08T08:12:10.000Z</time>
      </trkpt>
      <trkpt lat="43.73093" lon="7.07954">
        <ele>535.59997558594</ele>
        <time>2013-12-08T08:12:11.000Z</time>
      </trkpt>
      <trkpt lat="43.73094" lon="7.07955">
        <ele>535.79998779297</ele>
        <time>2013-12-08T08:12:13.000Z</time>
      </trkpt>
      <trkpt lat="43.73097" lon="7.07954">
        <ele>536.59997558594</ele>
        <time>2013-12-08T08:12:19.000Z</time>
      </trkpt>
      <trkpt lat="43.73099" lon="7.0795">
        <ele>537.59997558594</ele>
        <time>2013-12-08T08:12:21.000Z</time>
      </trkpt>
      <trkpt lat="43.73099" lon="7.07947">
        <ele>538.20001220703</ele>
        <time>2013-12-08T08:12:23.000Z</time>
      </trkpt>
      <trkpt lat="43.73098" lon="7.07946">
        <ele>538.40002441406</ele>
        <time>2013-12-08T08:12:24.000Z</time>
      </trkpt>
      <trkpt lat="43.73097" lon="7.07945">
        <ele>538.20001220703</ele>
        <time>2013-12-08T08:12:25.000Z</time>
      </trkpt>
      <trkpt lat="43.73087" lon="7.07943">
        <ele>536.20001220703</ele>
        <time>2013-12-08T08:12:28.000Z</time>
      </trkpt>
      <trkpt lat="43.73083" lon="7.07942">
        <ele>535.59997558594</ele>
        <time>2013-12-08T08:12:29.000Z</time>
      </trkpt>
      <trkpt lat="43.73073" lon="7.07939">
        <ele>534</ele>
        <time>2013-12-08T08:12:33.000Z</time>
      </trkpt>
      <trkpt lat="43.73068" lon="7.07931">
        <ele>534.59997558594</ele>
        <time>2013-12-08T08:12:37.000Z</time>
      </trkpt>
      <trkpt lat="43.73061" lon="7.07924">
        <ele>534.20001220703</ele>
        <time>2013-12-08T08:12:42.000Z</time>
      </trkpt>
      <trkpt lat="43.73061" lon="7.07922">
        <ele>534.59997558594</ele>
        <time>2013-12-08T08:12:43.000Z</time>
      </trkpt>
      <trkpt lat="43.73061" lon="7.07921">
        <ele>534.79998779297</ele>
        <time>2013-12-08T08:12:46.000Z</time>
      </trkpt>
      <trkpt lat="43.73058" lon="7.07929">
        <ele>532.79998779297</ele>
        <time>2013-12-08T08:12:51.000Z</time>
      </trkpt>
      <trkpt lat="43.73063" lon="7.07938">
        <ele>532.20001220703</ele>
        <time>2013-12-08T08:12:55.000Z</time>
      </trkpt>
      <trkpt lat="43.73066" lon="7.0794">
        <ele>532.40002441406</ele>
        <time>2013-12-08T08:12:56.000Z</time>
      </trkpt>
      <trkpt lat="43.73073" lon="7.07949">
        <ele>532.40002441406</ele>
        <time>2013-12-08T08:12:59.000Z</time>
      </trkpt>
      <trkpt lat="43.73083" lon="7.07957">
        <ele>533</ele>
        <time>2013-12-08T08:13:03.000Z</time>
      </trkpt>
      <trkpt lat="43.73104" lon="7.07962">
        <ele>536.59997558594</ele>
        <time>2013-12-08T08:13:08.000Z</time>
      </trkpt>
      <trkpt lat="43.73124" lon="7.0797">
        <ele>538.79998779297</ele>
        <time>2013-12-08T08:13:13.000Z</time>
      </trkpt>
      <trkpt lat="43.73128" lon="7.07971">
        <ele>539.40002441406</ele>
        <time>2013-12-08T08:13:14.000Z</time>
      </trkpt>
      <trkpt lat="43.73141" lon="7.07977">
        <ele>540.40002441406</ele>
        <time>2013-12-08T08:13:18.000Z</time>
      </trkpt>
      <trkpt lat="43.73149" lon="7.0798">
        <ele>541.20001220703</ele>
        <time>2013-12-08T08:13:23.000Z</time>
      </trkpt>
      <trkpt lat="43.73161" lon="7.07978">
        <ele>543.79998779297</ele>
        <time>2013-12-08T08:13:30.000Z</time>
      </trkpt>
      <trkpt lat="43.73171" lon="7.07977">
        <ele>545.79998779297</ele>
        <time>2013-12-08T08:13:37.000Z</time>
      </trkpt>
      <trkpt lat="43.73178" lon="7.07975">
        <ele>547.20001220703</ele>
        <time>2013-12-08T08:13:43.000Z</time>
      </trkpt>
      <trkpt lat="43.73187" lon="7.07971">
        <ele>549.79998779297</ele>
        <time>2013-12-08T08:13:50.000Z</time>
      </trkpt>
      <trkpt lat="43.73195" lon="7.07966">
        <ele>552.40002441406</ele>
        <time>2013-12-08T08:13:56.000Z</time>
      </trkpt>
      <trkpt lat="43.73196" lon="7.07965">
        <ele>552.59997558594</ele>
        <time>2013-12-08T08:13:57.000Z</time>
      </trkpt>
      <trkpt lat="43.73203" lon="7.07961">
        <ele>555.20001220703</ele>
        <time>2013-12-08T08:14:02.000Z</time>
      </trkpt>
      <trkpt lat="43.73212" lon="7.07956">
        <ele>558</ele>
        <time>2013-12-08T08:14:09.000Z</time>
      </trkpt>
      <trkpt lat="43.73221" lon="7.07952">
        <ele>560.79998779297</ele>
        <time>2013-12-08T08:14:14.000Z</time>
      </trkpt>
      <trkpt lat="43.73231" lon="7.07953">
        <ele>562.40002441406</ele>
        <time>2013-12-08T08:14:21.000Z</time>
      </trkpt>
      <trkpt lat="43.73238" lon="7.07955">
        <ele>562.79998779297</ele>
        <time>2013-12-08T08:14:27.000Z</time>
      </trkpt>
      <trkpt lat="43.73239" lon="7.07954">
        <ele>563.40002441406</ele>
        <time>2013-12-08T08:14:28.000Z</time>
      </trkpt>
      <trkpt lat="43.73244" lon="7.07954">
        <ele>564.20001220703</ele>
        <time>2013-12-08T08:14:32.000Z</time>
      </trkpt>
      <trkpt lat="43.73256" lon="7.07954">
        <ele>565.59997558594</ele>
        <time>2013-12-08T08:14:39.000Z</time>
      </trkpt>
      <trkpt lat="43.73268" lon="7.0796">
        <ele>565</ele>
        <time>2013-12-08T08:14:46.000Z</time>
      </trkpt>
      <trkpt lat="43.73279" lon="7.07965">
        <ele>564.59997558594</ele>
        <time>2013-12-08T08:14:52.000Z</time>
      </trkpt>
      <trkpt lat="43.73288" lon="7.0797">
        <ele>564.20001220703</ele>
        <time>2013-12-08T08:14:58.000Z</time>
      </trkpt>
      <trkpt lat="43.73288" lon="7.0797">
        <ele>564</ele>
        <time>2013-12-08T08:15:08.000Z</time>
      </trkpt>
      <trkpt lat="43.73291" lon="7.07972">
        <ele>564</ele>
        <time>2013-12-08T08:15:12.000Z</time>
      </trkpt>
      <trkpt lat="43.73294" lon="7.07971">
        <ele>564.40002441406</ele>
        <time>2013-12-08T08:15:13.000Z</time>
      </trkpt>
      <trkpt lat="43.733" lon="7.07972">
        <ele>564.79998779297</ele>
        <time>2013-12-08T08:15:18.000Z</time>
      </trkpt>
      <trkpt lat="43.73306" lon="7.07972">
        <ele>565.59997558594</ele>
        <time>2013-12-08T08:15:27.000Z</time>
      </trkpt>
      <trkpt lat="43.73307" lon="7.07971">
        <ele>566</ele>
        <time>2013-12-08T08:15:33.000Z</time>
      </trkpt>
      <trkpt lat="43.73311" lon="7.07972">
        <ele>566.40002441406</ele>
        <time>2013-12-08T08:15:38.000Z</time>
      </trkpt>
      <trkpt lat="43.73321" lon="7.07977">
        <ele>566</ele>
        <time>2013-12-08T08:15:44.000Z</time>
      </trkpt>
      <trkpt lat="43.73332" lon="7.07981">
        <ele>566.20001220703</ele>
        <time>2013-12-08T08:15:51.000Z</time>
      </trkpt>
      <trkpt lat="43.73332" lon="7.07983">
        <ele>565.59997558594</ele>
        <time>2013-12-08T08:15:56.000Z</time>
      </trkpt>
      <trkpt lat="43.73335" lon="7.07982">
        <ele>566.20001220703</ele>
        <time>2013-12-08T08:16:05.000Z</time>
      </trkpt>
      <trkpt lat="43.73343" lon="7.07988">
        <ele>564</ele>
        <time>2013-12-08T08:19:01.000Z</time>
      </trkpt>
      <trkpt lat="43.73356" lon="7.07979">
        <ele>565.79998779297</ele>
        <time>2013-12-08T08:19:06.000Z</time>
      </trkpt>
      <trkpt lat="43.73363" lon="7.07969">
        <ele>568.20001220703</ele>
        <time>2013-12-08T08:19:11.000Z</time>
      </trkpt>
      <trkpt lat="43.73366" lon="7.0796">
        <ele>570.59997558594</ele>
        <time>2013-12-08T08:19:16.000Z</time>
      </trkpt>
      <trkpt lat="43.73369" lon="7.07954">
        <ele>572</ele>
        <time>2013-12-08T08:19:20.000Z</time>
      </trkpt>
      <trkpt lat="43.73369" lon="7.07951">
        <ele>572.59997558594</ele>
        <time>2013-12-08T08:19:22.000Z</time>
      </trkpt>
      <trkpt lat="43.73373" lon="7.07944">
        <ele>574.40002441406</ele>
        <time>2013-12-08T08:19:26.000Z</time>
      </trkpt>
      <trkpt lat="43.73374" lon="7.07943">
        <ele>574.79998779297</ele>
        <time>2013-12-08T08:19:27.000Z</time>
      </trkpt>
      <trkpt lat="43.7338" lon="7.07931">
        <ele>577.20001220703</ele>
        <time>2013-12-08T08:19:32.000Z</time>
      </trkpt>
      <trkpt lat="43.73385" lon="7.07919">
        <ele>580</ele>
        <time>2013-12-08T08:19:38.000Z</time>
      </trkpt>
      <trkpt lat="43.73385" lon="7.07917">
        <ele>580.40002441406</ele>
        <time>2013-12-08T08:19:39.000Z</time>
      </trkpt>
      <trkpt lat="43.73387" lon="7.07917">
        <ele>580.40002441406</ele>
        <time>2013-12-08T08:19:42.000Z</time>
      </trkpt>
      <trkpt lat="43.73388" lon="7.07915">
        <ele>580.59997558594</ele>
        <time>2013-12-08T08:19:43.000Z</time>
      </trkpt>
      <trkpt lat="43.73393" lon="7.07911">
        <ele>581</ele>
        <time>2013-12-08T08:19:48.000Z</time>
      </trkpt>
      <trkpt lat="43.73392" lon="7.07911">
        <ele>581.20001220703</ele>
        <time>2013-12-08T08:19:49.000Z</time>
      </trkpt>
      <trkpt lat="43.73393" lon="7.0791">
        <ele>581.20001220703</ele>
        <time>2013-12-08T08:19:50.000Z</time>
      </trkpt>
      <trkpt lat="43.73393" lon="7.07908">
        <ele>581.59997558594</ele>
        <time>2013-12-08T08:19:53.000Z</time>
      </trkpt>
      <trkpt lat="43.73393" lon="7.07908">
        <ele>581.59997558594</ele>
        <time>2013-12-08T08:19:54.000Z</time>
      </trkpt>
      <trkpt lat="43.73395" lon="7.07903">
        <ele>582.40002441406</ele>
        <time>2013-12-08T08:20:01.000Z</time>
      </trkpt>
      <trkpt lat="43.73401" lon="7.07898">
        <ele>582.59997558594</ele>
        <time>2013-12-08T08:20:07.000Z</time>
      </trkpt>
      <trkpt lat="43.73402" lon="7.07897">
        <ele>582.59997558594</ele>
        <time>2013-12-08T08:20:08.000Z</time>
      </trkpt>
      <trkpt lat="43.73403" lon="7.07888">
        <ele>584.20001220703</ele>
        <time>2013-12-08T08:20:15.000Z</time>
      </trkpt>
      <trkpt lat="43.73406" lon="7.07886">
        <ele>584.40002441406</ele>
        <time>2013-12-08T08:20:19.000Z</time>
      </trkpt>
      <trkpt lat="43.73408" lon="7.07886">
        <ele>584.20001220703</ele>
        <time>2013-12-08T08:20:21.000Z</time>
      </trkpt>
      <trkpt lat="43.73408" lon="7.07885">
        <ele>584.20001220703</ele>
        <time>2013-12-08T08:20:22.000Z</time>
      </trkpt>
      <trkpt lat="43.73414" lon="7.07881">
        <ele>584.40002441406</ele>
        <time>2013-12-08T08:20:27.000Z</time>
      </trkpt>
      <trkpt lat="43.7342" lon="7.07875">
        <ele>585.20001220703</ele>
        <time>2013-12-08T08:20:32.000Z</time>
      </trkpt>
      <trkpt lat="43.73422" lon="7.07875">
        <ele>585.20001220703</ele>
        <time>2013-12-08T08:20:33.000Z</time>
      </trkpt>
      <trkpt lat="43.73427" lon="7.07872">
        <ele>586</ele>
        <time>2013-12-08T08:20:36.000Z</time>
      </trkpt>
      <trkpt lat="43.73429" lon="7.07869">
        <ele>586.40002441406</ele>
        <time>2013-12-08T08:20:39.000Z</time>
      </trkpt>
      <trkpt lat="43.73436" lon="7.07865">
        <ele>587.40002441406</ele>
        <time>2013-12-08T08:20:44.000Z</time>
      </trkpt>
      <trkpt lat="43.73443" lon="7.07861">
        <ele>588</ele>
        <time>2013-12-08T08:20:47.000Z</time>
      </trkpt>
      <trkpt lat="43.73452" lon="7.07858">
        <ele>588.79998779297</ele>
        <time>2013-12-08T08:20:50.000Z</time>
      </trkpt>
      <trkpt lat="43.7347" lon="7.07849">
        <ele>590.40002441406</ele>
        <time>2013-12-08T08:20:55.000Z</time>
      </trkpt>
      <trkpt lat="43.73478" lon="7.07848">
        <ele>590.79998779297</ele>
        <time>2013-12-08T08:20:58.000Z</time>
      </trkpt>
      <trkpt lat="43.73489" lon="7.07852">
        <ele>590.59997558594</ele>
        <time>2013-12-08T08:21:03.000Z</time>
      </trkpt>
      <trkpt lat="43.73493" lon="7.07854">
        <ele>590.40002441406</ele>
        <time>2013-12-08T08:21:09.000Z</time>
      </trkpt>
      <trkpt lat="43.73498" lon="7.07858">
        <ele>590</ele>
        <time>2013-12-08T08:21:16.000Z</time>
      </trkpt>
      <trkpt lat="43.73503" lon="7.07864">
        <ele>590</ele>
        <time>2013-12-08T08:21:25.000Z</time>
      </trkpt>
      <trkpt lat="43.73507" lon="7.07866">
        <ele>590.59997558594</ele>
        <time>2013-12-08T08:21:32.000Z</time>
      </trkpt>
      <trkpt lat="43.73511" lon="7.07866">
        <ele>591.59997558594</ele>
        <time>2013-12-08T08:21:38.000Z</time>
      </trkpt>
      <trkpt lat="43.73514" lon="7.07869">
        <ele>592</ele>
        <time>2013-12-08T08:21:43.000Z</time>
      </trkpt>
      <trkpt lat="43.73518" lon="7.07872">
        <ele>592.59997558594</ele>
        <time>2013-12-08T08:21:48.000Z</time>
      </trkpt>
      <trkpt lat="43.73524" lon="7.07875">
        <ele>593.59997558594</ele>
        <time>2013-12-08T08:21:55.000Z</time>
      </trkpt>
      <trkpt lat="43.73525" lon="7.07876">
        <ele>593.59997558594</ele>
        <time>2013-12-08T08:21:57.000Z</time>
      </trkpt>
      <trkpt lat="43.73527" lon="7.07878">
        <ele>594</ele>
        <time>2013-12-08T08:22:00.000Z</time>
      </trkpt>
      <trkpt lat="43.7353" lon="7.07882">
        <ele>594.20001220703</ele>
        <time>2013-12-08T08:22:05.000Z</time>
      </trkpt>
      <trkpt lat="43.73535" lon="7.07887">
        <ele>595</ele>
        <time>2013-12-08T08:22:12.000Z</time>
      </trkpt>
      <trkpt lat="43.73537" lon="7.07889">
        <ele>595.40002441406</ele>
        <time>2013-12-08T08:22:14.000Z</time>
      </trkpt>
      <trkpt lat="43.7354" lon="7.07891">
        <ele>595.79998779297</ele>
        <time>2013-12-08T08:22:17.000Z</time>
      </trkpt>
      <trkpt lat="43.7355" lon="7.07895">
        <ele>597.79998779297</ele>
        <time>2013-12-08T08:22:24.000Z</time>
      </trkpt>
      <trkpt lat="43.7356" lon="7.07904">
        <ele>599.40002441406</ele>
        <time>2013-12-08T08:22:30.000Z</time>
      </trkpt>
      <trkpt lat="43.73567" lon="7.07914">
        <ele>600.20001220703</ele>
        <time>2013-12-08T08:22:35.000Z</time>
      </trkpt>
      <trkpt lat="43.73575" lon="7.07922">
        <ele>601.59997558594</ele>
        <time>2013-12-08T08:22:41.000Z</time>
      </trkpt>
      <trkpt lat="43.73583" lon="7.07928">
        <ele>603.20001220703</ele>
        <time>2013-12-08T08:22:47.000Z</time>
      </trkpt>
      <trkpt lat="43.73591" lon="7.07936">
        <ele>602.59997558594</ele>
        <time>2013-12-08T08:22:52.000Z</time>
      </trkpt>
      <trkpt lat="43.73594" lon="7.07936">
        <ele>602.59997558594</ele>
        <time>2013-12-08T08:22:54.000Z</time>
      </trkpt>
      <trkpt lat="43.73597" lon="7.07939">
        <ele>602.40002441406</ele>
        <time>2013-12-08T08:22:56.000Z</time>
      </trkpt>
      <trkpt lat="43.736" lon="7.07944">
        <ele>601.79998779297</ele>
        <time>2013-12-08T08:22:59.000Z</time>
      </trkpt>
      <trkpt lat="43.73601" lon="7.07945">
        <ele>601.59997558594</ele>
        <time>2013-12-08T08:23:00.000Z</time>
      </trkpt>
      <trkpt lat="43.73607" lon="7.07947">
        <ele>601.20001220703</ele>
        <time>2013-12-08T08:23:03.000Z</time>
      </trkpt>
      <trkpt lat="43.73609" lon="7.07955">
        <ele>600</ele>
        <time>2013-12-08T08:23:08.000Z</time>
      </trkpt>
      <trkpt lat="43.73614" lon="7.07963">
        <ele>598.79998779297</ele>
        <time>2013-12-08T08:23:13.000Z</time>
      </trkpt>
      <trkpt lat="43.73616" lon="7.07962">
        <ele>598.59997558594</ele>
        <time>2013-12-08T08:23:15.000Z</time>
      </trkpt>
      <trkpt lat="43.73614" lon="7.07956">
        <ele>599.59997558594</ele>
        <time>2013-12-08T08:23:21.000Z</time>
      </trkpt>
      <trkpt lat="43.73614" lon="7.07956">
        <ele>599.59997558594</ele>
        <time>2013-12-08T08:23:22.000Z</time>
      </trkpt>
      <trkpt lat="43.73611" lon="7.07956">
        <ele>599.79998779297</ele>
        <time>2013-12-08T08:23:27.000Z</time>
      </trkpt>
      <trkpt lat="43.7361" lon="7.07956">
        <ele>600</ele>
        <time>2013-12-08T08:23:28.000Z</time>
      </trkpt>
      <trkpt lat="43.73611" lon="7.07958">
        <ele>599.59997558594</ele>
        <time>2013-12-08T08:23:31.000Z</time>
      </trkpt>
      <trkpt lat="43.73614" lon="7.07958">
        <ele>599.40002441406</ele>
        <time>2013-12-08T08:23:40.000Z</time>
      </trkpt>
      <trkpt lat="43.73617" lon="7.0796">
        <ele>598.79998779297</ele>
        <time>2013-12-08T08:23:46.000Z</time>
      </trkpt>
      <trkpt lat="43.7362" lon="7.0796">
        <ele>598.59997558594</ele>
        <time>2013-12-08T08:23:50.000Z</time>
      </trkpt>
      <trkpt lat="43.7362" lon="7.07959">
        <ele>598.79998779297</ele>
        <time>2013-12-08T08:23:51.000Z</time>
      </trkpt>
      <trkpt lat="43.73621" lon="7.07956">
        <ele>599.20001220703</ele>
        <time>2013-12-08T08:23:54.000Z</time>
      </trkpt>
      <trkpt lat="43.73621" lon="7.07956">
        <ele>599.20001220703</ele>
        <time>2013-12-08T08:23:56.000Z</time>
      </trkpt>
      <trkpt lat="43.73624" lon="7.07943">
        <ele>601</ele>
        <time>2013-12-08T08:29:03.000Z</time>
      </trkpt>
      <trkpt lat="43.73625" lon="7.07941">
        <ele>601.40002441406</ele>
        <time>2013-12-08T08:29:04.000Z</time>
      </trkpt>
      <trkpt lat="43.73626" lon="7.07933">
        <ele>602.79998779297</ele>
        <time>2013-12-08T08:29:07.000Z</time>
      </trkpt>
      <trkpt lat="43.7363" lon="7.07923">
        <ele>604.59997558594</ele>
        <time>2013-12-08T08:29:11.000Z</time>
      </trkpt>
      <trkpt lat="43.7363" lon="7.07921">
        <ele>605</ele>
        <time>2013-12-08T08:29:13.000Z</time>
      </trkpt>
      <trkpt lat="43.7363" lon="7.07923">
        <ele>604.59997558594</ele>
        <time>2013-12-08T08:29:18.000Z</time>
      </trkpt>
      <trkpt lat="43.73634" lon="7.07919">
        <ele>605.40002441406</ele>
        <time>2013-12-08T08:29:31.000Z</time>
      </trkpt>
      <trkpt lat="43.73641" lon="7.07909">
        <ele>607.59997558594</ele>
        <time>2013-12-08T08:29:38.000Z</time>
      </trkpt>
      <trkpt lat="43.73641" lon="7.07907">
        <ele>608</ele>
        <time>2013-12-08T08:29:40.000Z</time>
      </trkpt>
      <trkpt lat="43.73646" lon="7.07902">
        <ele>609.20001220703</ele>
        <time>2013-12-08T08:29:43.000Z</time>
      </trkpt>
      <trkpt lat="43.73658" lon="7.07896">
        <ele>611.40002441406</ele>
        <time>2013-12-08T08:29:49.000Z</time>
      </trkpt>
      <trkpt lat="43.73671" lon="7.07893">
        <ele>613</ele>
        <time>2013-12-08T08:29:56.000Z</time>
      </trkpt>
      <trkpt lat="43.73679" lon="7.0789">
        <ele>614.40002441406</ele>
        <time>2013-12-08T08:30:02.000Z</time>
      </trkpt>
      <trkpt lat="43.73689" lon="7.07887">
        <ele>615.59997558594</ele>
        <time>2013-12-08T08:30:09.000Z</time>
      </trkpt>
      <trkpt lat="43.73698" lon="7.0788">
        <ele>617.79998779297</ele>
        <time>2013-12-08T08:30:16.000Z</time>
      </trkpt>
      <trkpt lat="43.73705" lon="7.07876">
        <ele>619.40002441406</ele>
        <time>2013-12-08T08:30:22.000Z</time>
      </trkpt>
      <trkpt lat="43.73712" lon="7.07866">
        <ele>622</ele>
        <time>2013-12-08T08:30:29.000Z</time>
      </trkpt>
      <trkpt lat="43.73723" lon="7.07862">
        <ele>623.79998779297</ele>
        <time>2013-12-08T08:30:35.000Z</time>
      </trkpt>
      <trkpt lat="43.73737" lon="7.0786">
        <ele>625.20001220703</ele>
        <time>2013-12-08T08:30:41.000Z</time>
      </trkpt>
      <trkpt lat="43.73754" lon="7.07864">
        <ele>625.20001220703</ele>
        <time>2013-12-08T08:30:48.000Z</time>
      </trkpt>
      <trkpt lat="43.73771" lon="7.07875">
        <ele>624.40002441406</ele>
        <time>2013-12-08T08:30:58.000Z</time>
      </trkpt>
      <trkpt lat="43.73784" lon="7.07885">
        <ele>623.40002441406</ele>
        <time>2013-12-08T08:31:06.000Z</time>
      </trkpt>
      <trkpt lat="43.73797" lon="7.07894">
        <ele>622.59997558594</ele>
        <time>2013-12-08T08:31:12.000Z</time>
      </trkpt>
      <trkpt lat="43.73814" lon="7.07898">
        <ele>623.40002441406</ele>
        <time>2013-12-08T08:31:20.000Z</time>
      </trkpt>
      <trkpt lat="43.73834" lon="7.079">
        <ele>624.59997558594</ele>
        <time>2013-12-08T08:31:28.000Z</time>
      </trkpt>
      <trkpt lat="43.73852" lon="7.07909">
        <ele>623.59997558594</ele>
        <time>2013-12-08T08:31:33.000Z</time>
      </trkpt>
      <trkpt lat="43.73865" lon="7.07913">
        <ele>623.40002441406</ele>
        <time>2013-12-08T08:31:37.000Z</time>
      </trkpt>
      <trkpt lat="43.73876" lon="7.0792">
        <ele>622</ele>
        <time>2013-12-08T08:31:42.000Z</time>
      </trkpt>
      <trkpt lat="43.73878" lon="7.0792">
        <ele>622.20001220703</ele>
        <time>2013-12-08T08:31:43.000Z</time>
      </trkpt>
      <trkpt lat="43.73884" lon="7.07923">
        <ele>621.59997558594</ele>
        <time>2013-12-08T08:31:46.000Z</time>
      </trkpt>
      <trkpt lat="43.73892" lon="7.07925">
        <ele>621.40002441406</ele>
        <time>2013-12-08T08:31:50.000Z</time>
      </trkpt>
      <trkpt lat="43.73906" lon="7.07928">
        <ele>621.40002441406</ele>
        <time>2013-12-08T08:31:54.000Z</time>
      </trkpt>
      <trkpt lat="43.73926" lon="7.07928">
        <ele>622.20001220703</ele>
        <time>2013-12-08T08:31:59.000Z</time>
      </trkpt>
      <trkpt lat="43.73942" lon="7.07929">
        <ele>622.59997558594</ele>
        <time>2013-12-08T08:32:06.000Z</time>
      </trkpt>
      <trkpt lat="43.73959" lon="7.07931">
        <ele>622.20001220703</ele>
        <time>2013-12-08T08:32:13.000Z</time>
      </trkpt>
      <trkpt lat="43.73973" lon="7.07935">
        <ele>621.59997558594</ele>
        <time>2013-12-08T08:32:18.000Z</time>
      </trkpt>
      <trkpt lat="43.73983" lon="7.07936">
        <ele>621.79998779297</ele>
        <time>2013-12-08T08:32:22.000Z</time>
      </trkpt>
      <trkpt lat="43.73991" lon="7.07939">
        <ele>621</ele>
        <time>2013-12-08T08:32:26.000Z</time>
      </trkpt>
      <trkpt lat="43.74" lon="7.07938">
        <ele>621.59997558594</ele>
        <time>2013-12-08T08:32:29.000Z</time>
      </trkpt>
      <trkpt lat="43.74004" lon="7.07937">
        <ele>621.79998779297</ele>
        <time>2013-12-08T08:32:30.000Z</time>
      </trkpt>
      <trkpt lat="43.74019" lon="7.07933">
        <ele>621.79998779297</ele>
        <time>2013-12-08T08:32:34.000Z</time>
      </trkpt>
      <trkpt lat="43.74032" lon="7.07929">
        <ele>622</ele>
        <time>2013-12-08T08:32:39.000Z</time>
      </trkpt>
      <trkpt lat="43.74034" lon="7.07928">
        <ele>622.20001220703</ele>
        <time>2013-12-08T08:32:41.000Z</time>
      </trkpt>
      <trkpt lat="43.74034" lon="7.07928">
        <ele>622.20001220703</ele>
        <time>2013-12-08T08:32:43.000Z</time>
      </trkpt>
      <trkpt lat="43.74038" lon="7.07928">
        <ele>622</ele>
        <time>2013-12-08T08:32:49.000Z</time>
      </trkpt>
      <trkpt lat="43.74043" lon="7.07928">
        <ele>621.40002441406</ele>
        <time>2013-12-08T08:32:56.000Z</time>
      </trkpt>
      <trkpt lat="43.74052" lon="7.07925">
        <ele>621.79998779297</ele>
        <time>2013-12-08T08:33:01.000Z</time>
      </trkpt>
      <trkpt lat="43.74065" lon="7.0792">
        <ele>622.20001220703</ele>
        <time>2013-12-08T08:33:06.000Z</time>
      </trkpt>
      <trkpt lat="43.74078" lon="7.07908">
        <ele>624.40002441406</ele>
        <time>2013-12-08T08:33:11.000Z</time>
      </trkpt>
      <trkpt lat="43.74082" lon="7.07905">
        <ele>624.79998779297</ele>
        <time>2013-12-08T08:33:14.000Z</time>
      </trkpt>
      <trkpt lat="43.74083" lon="7.07905">
        <ele>625</ele>
        <time>2013-12-08T08:33:15.000Z</time>
      </trkpt>
      <trkpt lat="43.74095" lon="7.07899">
        <ele>624.59997558594</ele>
        <time>2013-12-08T08:33:19.000Z</time>
      </trkpt>
      <trkpt lat="43.74109" lon="7.07886">
        <ele>625.79998779297</ele>
        <time>2013-12-08T08:33:25.000Z</time>
      </trkpt>
      <trkpt lat="43.74118" lon="7.07874">
        <ele>627</ele>
        <time>2013-12-08T08:33:32.000Z</time>
      </trkpt>
      <trkpt lat="43.74124" lon="7.07861">
        <ele>629</ele>
        <time>2013-12-08T08:33:39.000Z</time>
      </trkpt>
      <trkpt lat="43.74134" lon="7.07848">
        <ele>629.79998779297</ele>
        <time>2013-12-08T08:33:46.000Z</time>
      </trkpt>
      <trkpt lat="43.74147" lon="7.07842">
        <ele>628.79998779297</ele>
        <time>2013-12-08T08:33:51.000Z</time>
      </trkpt>
      <trkpt lat="43.74157" lon="7.0784">
        <ele>627.40002441406</ele>
        <time>2013-12-08T08:33:55.000Z</time>
      </trkpt>
      <trkpt lat="43.7417" lon="7.07839">
        <ele>626</ele>
        <time>2013-12-08T08:34:00.000Z</time>
      </trkpt>
      <trkpt lat="43.74188" lon="7.07834">
        <ele>627.20001220703</ele>
        <time>2013-12-08T08:34:06.000Z</time>
      </trkpt>
      <trkpt lat="43.74199" lon="7.07826">
        <ele>629</ele>
        <time>2013-12-08T08:34:12.000Z</time>
      </trkpt>
      <trkpt lat="43.74204" lon="7.07818">
        <ele>630.40002441406</ele>
        <time>2013-12-08T08:34:18.000Z</time>
      </trkpt>
      <trkpt lat="43.74212" lon="7.0781">
        <ele>631.79998779297</ele>
        <time>2013-12-08T08:34:24.000Z</time>
      </trkpt>
      <trkpt lat="43.74217" lon="7.07803">
        <ele>632.79998779297</ele>
        <time>2013-12-08T08:34:30.000Z</time>
      </trkpt>
      <trkpt lat="43.74224" lon="7.07792">
        <ele>634</ele>
        <time>2013-12-08T08:34:37.000Z</time>
      </trkpt>
      <trkpt lat="43.74227" lon="7.07787">
        <ele>634.59997558594</ele>
        <time>2013-12-08T08:34:41.000Z</time>
      </trkpt>
      <trkpt lat="43.74228" lon="7.07786">
        <ele>634.59997558594</ele>
        <time>2013-12-08T08:34:42.000Z</time>
      </trkpt>
      <trkpt lat="43.7423" lon="7.07785">
        <ele>634.59997558594</ele>
        <time>2013-12-08T08:34:49.000Z</time>
      </trkpt>
      <trkpt lat="43.74241" lon="7.07781">
        <ele>634</ele>
        <time>2013-12-08T08:34:54.000Z</time>
      </trkpt>
      <trkpt lat="43.74249" lon="7.07782">
        <ele>633</ele>
        <time>2013-12-08T08:34:59.000Z</time>
      </trkpt>
      <trkpt lat="43.74251" lon="7.07782">
        <ele>633.20001220703</ele>
        <time>2013-12-08T08:35:06.000Z</time>
      </trkpt>
      <trkpt lat="43.74259" lon="7.07785">
        <ele>634.40002441406</ele>
        <time>2013-12-08T08:35:11.000Z</time>
      </trkpt>
      <trkpt lat="43.74263" lon="7.07786">
        <ele>635.20001220703</ele>
        <time>2013-12-08T08:35:17.000Z</time>
      </trkpt>
      <trkpt lat="43.74261" lon="7.07788">
        <ele>634.79998779297</ele>
        <time>2013-12-08T08:35:22.000Z</time>
      </trkpt>
      <trkpt lat="43.74259" lon="7.07789">
        <ele>634.40002441406</ele>
        <time>2013-12-08T08:35:33.000Z</time>
      </trkpt>
      <trkpt lat="43.74255" lon="7.07796">
        <ele>632.59997558594</ele>
        <time>2013-12-08T08:36:46.000Z</time>
      </trkpt>
      <trkpt lat="43.74256" lon="7.07798">
        <ele>632.59997558594</ele>
        <time>2013-12-08T08:36:52.000Z</time>
      </trkpt>
      <trkpt lat="43.74261" lon="7.07794">
        <ele>634.20001220703</ele>
        <time>2013-12-08T08:38:11.000Z</time>
      </trkpt>
      <trkpt lat="43.74263" lon="7.07795">
        <ele>634.59997558594</ele>
        <time>2013-12-08T08:38:14.000Z</time>
      </trkpt>
      <trkpt lat="43.74268" lon="7.07796">
        <ele>635.40002441406</ele>
        <time>2013-12-08T08:38:20.000Z</time>
      </trkpt>
      <trkpt lat="43.74272" lon="7.07794">
        <ele>636.40002441406</ele>
        <time>2013-12-08T08:38:27.000Z</time>
      </trkpt>
      <trkpt lat="43.74275" lon="7.07793">
        <ele>637.40002441406</ele>
        <time>2013-12-08T08:38:34.000Z</time>
      </trkpt>
      <trkpt lat="43.74279" lon="7.07796">
        <ele>637.79998779297</ele>
        <time>2013-12-08T08:38:40.000Z</time>
      </trkpt>
      <trkpt lat="43.74281" lon="7.07799">
        <ele>638</ele>
        <time>2013-12-08T08:38:48.000Z</time>
      </trkpt>
      <trkpt lat="43.74286" lon="7.07802">
        <ele>638.59997558594</ele>
        <time>2013-12-08T08:38:56.000Z</time>
      </trkpt>
      <trkpt lat="43.74287" lon="7.07797">
        <ele>639.59997558594</ele>
        <time>2013-12-08T08:39:02.000Z</time>
      </trkpt>
      <trkpt lat="43.74287" lon="7.07791">
        <ele>640.20001220703</ele>
        <time>2013-12-08T08:39:09.000Z</time>
      </trkpt>
      <trkpt lat="43.74289" lon="7.07787">
        <ele>641</ele>
        <time>2013-12-08T08:39:16.000Z</time>
      </trkpt>
      <trkpt lat="43.74293" lon="7.0779">
        <ele>641.40002441406</ele>
        <time>2013-12-08T08:39:23.000Z</time>
      </trkpt>
      <trkpt lat="43.74297" lon="7.07788">
        <ele>642.59997558594</ele>
        <time>2013-12-08T08:39:29.000Z</time>
      </trkpt>
      <trkpt lat="43.74298" lon="7.07782">
        <ele>643.20001220703</ele>
        <time>2013-12-08T08:39:37.000Z</time>
      </trkpt>
      <trkpt lat="43.74299" lon="7.07778">
        <ele>643.79998779297</ele>
        <time>2013-12-08T08:39:44.000Z</time>
      </trkpt>
      <trkpt lat="43.74298" lon="7.07772">
        <ele>644.20001220703</ele>
        <time>2013-12-08T08:39:53.000Z</time>
      </trkpt>
      <trkpt lat="43.74295" lon="7.07763">
        <ele>644.59997558594</ele>
        <time>2013-12-08T08:40:02.000Z</time>
      </trkpt>
      <trkpt lat="43.74297" lon="7.0776">
        <ele>645.20001220703</ele>
        <time>2013-12-08T08:40:08.000Z</time>
      </trkpt>
      <trkpt lat="43.74299" lon="7.07758">
        <ele>645.79998779297</ele>
        <time>2013-12-08T08:40:15.000Z</time>
      </trkpt>
      <trkpt lat="43.74303" lon="7.07758">
        <ele>646.79998779297</ele>
        <time>2013-12-08T08:40:21.000Z</time>
      </trkpt>
      <trkpt lat="43.74308" lon="7.07757">
        <ele>647.79998779297</ele>
        <time>2013-12-08T08:40:27.000Z</time>
      </trkpt>
      <trkpt lat="43.74316" lon="7.07759">
        <ele>649.40002441406</ele>
        <time>2013-12-08T08:40:37.000Z</time>
      </trkpt>
      <trkpt lat="43.74321" lon="7.07765">
        <ele>649.79998779297</ele>
        <time>2013-12-08T08:40:45.000Z</time>
      </trkpt>
      <trkpt lat="43.74325" lon="7.07767">
        <ele>650.59997558594</ele>
        <time>2013-12-08T08:40:51.000Z</time>
      </trkpt>
      <trkpt lat="43.74333" lon="7.07771">
        <ele>651.79998779297</ele>
        <time>2013-12-08T08:41:00.000Z</time>
      </trkpt>
      <trkpt lat="43.74337" lon="7.07772">
        <ele>653</ele>
        <time>2013-12-08T08:41:09.000Z</time>
      </trkpt>
      <trkpt lat="43.74342" lon="7.07777">
        <ele>654.20001220703</ele>
        <time>2013-12-08T08:41:16.000Z</time>
      </trkpt>
      <trkpt lat="43.74345" lon="7.07781">
        <ele>654.59997558594</ele>
        <time>2013-12-08T08:41:21.000Z</time>
      </trkpt>
      <trkpt lat="43.74346" lon="7.07782">
        <ele>654.59997558594</ele>
        <time>2013-12-08T08:41:23.000Z</time>
      </trkpt>
      <trkpt lat="43.74349" lon="7.07787">
        <ele>655.40002441406</ele>
        <time>2013-12-08T08:41:31.000Z</time>
      </trkpt>
      <trkpt lat="43.74354" lon="7.07793">
        <ele>656.20001220703</ele>
        <time>2013-12-08T08:41:39.000Z</time>
      </trkpt>
      <trkpt lat="43.74358" lon="7.07794">
        <ele>657.40002441406</ele>
        <time>2013-12-08T08:41:46.000Z</time>
      </trkpt>
      <trkpt lat="43.74361" lon="7.07796">
        <ele>658</ele>
        <time>2013-12-08T08:41:53.000Z</time>
      </trkpt>
      <trkpt lat="43.74364" lon="7.07798">
        <ele>658.79998779297</ele>
        <time>2013-12-08T08:42:00.000Z</time>
      </trkpt>
      <trkpt lat="43.74369" lon="7.07798">
        <ele>660.20001220703</ele>
        <time>2013-12-08T08:42:07.000Z</time>
      </trkpt>
      <trkpt lat="43.74372" lon="7.07799">
        <ele>661.20001220703</ele>
        <time>2013-12-08T08:42:15.000Z</time>
      </trkpt>
      <trkpt lat="43.74375" lon="7.07799">
        <ele>662</ele>
        <time>2013-12-08T08:42:20.000Z</time>
      </trkpt>
      <trkpt lat="43.74379" lon="7.07797">
        <ele>663.40002441406</ele>
        <time>2013-12-08T08:42:27.000Z</time>
      </trkpt>
      <trkpt lat="43.74383" lon="7.07798">
        <ele>664.59997558594</ele>
        <time>2013-12-08T08:42:35.000Z</time>
      </trkpt>
      <trkpt lat="43.74386" lon="7.078">
        <ele>665.20001220703</ele>
        <time>2013-12-08T08:42:42.000Z</time>
      </trkpt>
      <trkpt lat="43.74391" lon="7.07799">
        <ele>666.79998779297</ele>
        <time>2013-12-08T08:42:50.000Z</time>
      </trkpt>
      <trkpt lat="43.74392" lon="7.07795">
        <ele>667.59997558594</ele>
        <time>2013-12-08T08:42:58.000Z</time>
      </trkpt>
      <trkpt lat="43.74394" lon="7.07793">
        <ele>668.59997558594</ele>
        <time>2013-12-08T08:43:03.000Z</time>
      </trkpt>
      <trkpt lat="43.74397" lon="7.07786">
        <ele>670.20001220703</ele>
        <time>2013-12-08T08:43:11.000Z</time>
      </trkpt>
      <trkpt lat="43.74396" lon="7.07777">
        <ele>670.79998779297</ele>
        <time>2013-12-08T08:43:21.000Z</time>
      </trkpt>
      <trkpt lat="43.74396" lon="7.07772">
        <ele>671.40002441406</ele>
        <time>2013-12-08T08:43:28.000Z</time>
      </trkpt>
      <trkpt lat="43.74394" lon="7.07763">
        <ele>671.59997558594</ele>
        <time>2013-12-08T08:43:37.000Z</time>
      </trkpt>
      <trkpt lat="43.74393" lon="7.07757">
        <ele>672</ele>
        <time>2013-12-08T08:43:46.000Z</time>
      </trkpt>
      <trkpt lat="43.7439" lon="7.07752">
        <ele>671.40002441406</ele>
        <time>2013-12-08T08:43:52.000Z</time>
      </trkpt>
      <trkpt lat="43.74389" lon="7.07753">
        <ele>671</ele>
        <time>2013-12-08T08:44:03.000Z</time>
      </trkpt>
      <trkpt lat="43.74386" lon="7.07747">
        <ele>671</ele>
        <time>2013-12-08T08:46:38.000Z</time>
      </trkpt>
      <trkpt lat="43.74385" lon="7.07741">
        <ele>672</ele>
        <time>2013-12-08T08:48:48.000Z</time>
      </trkpt>
      <trkpt lat="43.74389" lon="7.07736">
        <ele>674.20001220703</ele>
        <time>2013-12-08T08:48:56.000Z</time>
      </trkpt>
      <trkpt lat="43.74387" lon="7.07726">
        <ele>675.20001220703</ele>
        <time>2013-12-08T08:49:00.000Z</time>
      </trkpt>
      <trkpt lat="43.74382" lon="7.07707">
        <ele>677</ele>
        <time>2013-12-08T08:49:08.000Z</time>
      </trkpt>
      <trkpt lat="43.7438" lon="7.07706">
        <ele>676.59997558594</ele>
        <time>2013-12-08T08:49:09.000Z</time>
      </trkpt>
      <trkpt lat="43.74369" lon="7.07699">
        <ele>674</ele>
        <time>2013-12-08T08:49:14.000Z</time>
      </trkpt>
      <trkpt lat="43.74365" lon="7.07687">
        <ele>674.59997558594</ele>
        <time>2013-12-08T08:49:18.000Z</time>
      </trkpt>
      <trkpt lat="43.74364" lon="7.07684">
        <ele>674.79998779297</ele>
        <time>2013-12-08T08:49:19.000Z</time>
      </trkpt>
      <trkpt lat="43.74364" lon="7.07669">
        <ele>677.40002441406</ele>
        <time>2013-12-08T08:49:25.000Z</time>
      </trkpt>
      <trkpt lat="43.7436" lon="7.07654">
        <ele>677.79998779297</ele>
        <time>2013-12-08T08:49:31.000Z</time>
      </trkpt>
      <trkpt lat="43.74358" lon="7.07639">
        <ele>678.20001220703</ele>
        <time>2013-12-08T08:49:37.000Z</time>
      </trkpt>
      <trkpt lat="43.74355" lon="7.0762">
        <ele>679.20001220703</ele>
        <time>2013-12-08T08:49:44.000Z</time>
      </trkpt>
      <trkpt lat="43.74352" lon="7.07605">
        <ele>679.79998779297</ele>
        <time>2013-12-08T08:49:50.000Z</time>
      </trkpt>
      <trkpt lat="43.74351" lon="7.07588">
        <ele>681.20001220703</ele>
        <time>2013-12-08T08:49:58.000Z</time>
      </trkpt>
      <trkpt lat="43.74349" lon="7.07572">
        <ele>681.59997558594</ele>
        <time>2013-12-08T08:50:05.000Z</time>
      </trkpt>
      <trkpt lat="43.74349" lon="7.0756">
        <ele>682.40002441406</ele>
        <time>2013-12-08T08:50:11.000Z</time>
      </trkpt>
      <trkpt lat="43.74349" lon="7.07551">
        <ele>683.20001220703</ele>
        <time>2013-12-08T08:50:16.000Z</time>
      </trkpt>
      <trkpt lat="43.74348" lon="7.07549">
        <ele>683</ele>
        <time>2013-12-08T08:50:17.000Z</time>
      </trkpt>
      <trkpt lat="43.74344" lon="7.07536">
        <ele>681.79998779297</ele>
        <time>2013-12-08T08:50:22.000Z</time>
      </trkpt>
      <trkpt lat="43.74346" lon="7.0753">
        <ele>683.20001220703</ele>
        <time>2013-12-08T08:50:27.000Z</time>
      </trkpt>
      <trkpt lat="43.74347" lon="7.07526">
        <ele>684.20001220703</ele>
        <time>2013-12-08T08:50:34.000Z</time>
      </trkpt>
      <trkpt lat="43.7435" lon="7.07515">
        <ele>686.40002441406</ele>
        <time>2013-12-08T08:50:43.000Z</time>
      </trkpt>
      <trkpt lat="43.74354" lon="7.07505">
        <ele>688.79998779297</ele>
        <time>2013-12-08T08:50:52.000Z</time>
      </trkpt>
      <trkpt lat="43.74354" lon="7.07493">
        <ele>690</ele>
        <time>2013-12-08T08:51:00.000Z</time>
      </trkpt>
      <trkpt lat="43.74354" lon="7.07478">
        <ele>690.59997558594</ele>
        <time>2013-12-08T08:51:11.000Z</time>
      </trkpt>
      <trkpt lat="43.74354" lon="7.07463">
        <ele>691.79998779297</ele>
        <time>2013-12-08T08:51:21.000Z</time>
      </trkpt>
      <trkpt lat="43.74356" lon="7.07454">
        <ele>693.59997558594</ele>
        <time>2013-12-08T08:51:28.000Z</time>
      </trkpt>
      <trkpt lat="43.74357" lon="7.07447">
        <ele>694.59997558594</ele>
        <time>2013-12-08T08:51:36.000Z</time>
      </trkpt>
      <trkpt lat="43.74359" lon="7.0744">
        <ele>696</ele>
        <time>2013-12-08T08:51:43.000Z</time>
      </trkpt>
      <trkpt lat="43.7436" lon="7.07434">
        <ele>696.79998779297</ele>
        <time>2013-12-08T08:51:47.000Z</time>
      </trkpt>
      <trkpt lat="43.74361" lon="7.07431">
        <ele>697.59997558594</ele>
        <time>2013-12-08T08:51:50.000Z</time>
      </trkpt>
      <trkpt lat="43.74362" lon="7.0743">
        <ele>698</ele>
        <time>2013-12-08T08:51:51.000Z</time>
      </trkpt>
      <trkpt lat="43.74365" lon="7.07421">
        <ele>700.20001220703</ele>
        <time>2013-12-08T08:51:57.000Z</time>
      </trkpt>
      <trkpt lat="43.74367" lon="7.07411">
        <ele>702.20001220703</ele>
        <time>2013-12-08T08:52:05.000Z</time>
      </trkpt>
      <trkpt lat="43.74369" lon="7.07412">
        <ele>703.20001220703</ele>
        <time>2013-12-08T08:52:14.000Z</time>
      </trkpt>
      <trkpt lat="43.7437" lon="7.07398">
        <ele>705.20001220703</ele>
        <time>2013-12-08T08:53:52.000Z</time>
      </trkpt>
      <trkpt lat="43.74374" lon="7.07382">
        <ele>708.40002441406</ele>
        <time>2013-12-08T08:53:58.000Z</time>
      </trkpt>
      <trkpt lat="43.74377" lon="7.07361">
        <ele>711.79998779297</ele>
        <time>2013-12-08T08:54:03.000Z</time>
      </trkpt>
      <trkpt lat="43.74382" lon="7.07339">
        <ele>716</ele>
        <time>2013-12-08T08:54:09.000Z</time>
      </trkpt>
      <trkpt lat="43.74385" lon="7.07328">
        <ele>718.20001220703</ele>
        <time>2013-12-08T08:54:12.000Z</time>
      </trkpt>
      <trkpt lat="43.74383" lon="7.07326">
        <ele>717.59997558594</ele>
        <time>2013-12-08T08:54:13.000Z</time>
      </trkpt>
      <trkpt lat="43.74383" lon="7.07314">
        <ele>718.59997558594</ele>
        <time>2013-12-08T08:54:16.000Z</time>
      </trkpt>
      <trkpt lat="43.74384" lon="7.0731">
        <ele>719</ele>
        <time>2013-12-08T08:54:17.000Z</time>
      </trkpt>
      <trkpt lat="43.74388" lon="7.07299">
        <ele>721.79998779297</ele>
        <time>2013-12-08T08:54:21.000Z</time>
      </trkpt>
      <trkpt lat="43.74388" lon="7.07287">
        <ele>722.59997558594</ele>
        <time>2013-12-08T08:54:25.000Z</time>
      </trkpt>
      <trkpt lat="43.74389" lon="7.07275">
        <ele>724</ele>
        <time>2013-12-08T08:54:30.000Z</time>
      </trkpt>
      <trkpt lat="43.74393" lon="7.07269">
        <ele>725.59997558594</ele>
        <time>2013-12-08T08:54:34.000Z</time>
      </trkpt>
      <trkpt lat="43.74394" lon="7.07267">
        <ele>726.20001220703</ele>
        <time>2013-12-08T08:54:35.000Z</time>
      </trkpt>
      <trkpt lat="43.74395" lon="7.07262">
        <ele>727</ele>
        <time>2013-12-08T08:54:38.000Z</time>
      </trkpt>
      <trkpt lat="43.74398" lon="7.07258">
        <ele>728.20001220703</ele>
        <time>2013-12-08T08:54:40.000Z</time>
      </trkpt>
      <trkpt lat="43.74397" lon="7.07243">
        <ele>729.59997558594</ele>
        <time>2013-12-08T08:54:45.000Z</time>
      </trkpt>
      <trkpt lat="43.744" lon="7.0723">
        <ele>732.40002441406</ele>
        <time>2013-12-08T08:54:50.000Z</time>
      </trkpt>
      <trkpt lat="43.74401" lon="7.07212">
        <ele>735.79998779297</ele>
        <time>2013-12-08T08:54:57.000Z</time>
      </trkpt>
      <trkpt lat="43.74403" lon="7.07194">
        <ele>739.20001220703</ele>
        <time>2013-12-08T08:55:04.000Z</time>
      </trkpt>
      <trkpt lat="43.74402" lon="7.07189">
        <ele>739.59997558594</ele>
        <time>2013-12-08T08:55:06.000Z</time>
      </trkpt>
      <trkpt lat="43.74402" lon="7.07182">
        <ele>740.79998779297</ele>
        <time>2013-12-08T08:55:09.000Z</time>
      </trkpt>
      <trkpt lat="43.74403" lon="7.07177">
        <ele>742</ele>
        <time>2013-12-08T08:55:13.000Z</time>
      </trkpt>
      <trkpt lat="43.74403" lon="7.07174">
        <ele>742.40002441406</ele>
        <time>2013-12-08T08:55:20.000Z</time>
      </trkpt>
      <trkpt lat="43.74403" lon="7.07168">
        <ele>743.40002441406</ele>
        <time>2013-12-08T08:55:25.000Z</time>
      </trkpt>
      <trkpt lat="43.74404" lon="7.07158">
        <ele>745.20001220703</ele>
        <time>2013-12-08T08:55:32.000Z</time>
      </trkpt>
      <trkpt lat="43.74404" lon="7.07145">
        <ele>747.40002441406</ele>
        <time>2013-12-08T08:55:38.000Z</time>
      </trkpt>
      <trkpt lat="43.74403" lon="7.0713">
        <ele>749.59997558594</ele>
        <time>2013-12-08T08:55:45.000Z</time>
      </trkpt>
      <trkpt lat="43.74403" lon="7.07118">
        <ele>751.79998779297</ele>
        <time>2013-12-08T08:55:52.000Z</time>
      </trkpt>
      <trkpt lat="43.74402" lon="7.07115">
        <ele>751.79998779297</ele>
        <time>2013-12-08T08:55:58.000Z</time>
      </trkpt>
      <trkpt lat="43.744" lon="7.07111">
        <ele>752</ele>
        <time>2013-12-08T08:56:04.000Z</time>
      </trkpt>
      <trkpt lat="43.744" lon="7.07108">
        <ele>752.59997558594</ele>
        <time>2013-12-08T08:56:07.000Z</time>
      </trkpt>
      <trkpt lat="43.74401" lon="7.07103">
        <ele>753.59997558594</ele>
        <time>2013-12-08T08:56:11.000Z</time>
      </trkpt>
      <trkpt lat="43.74401" lon="7.071">
        <ele>754.20001220703</ele>
        <time>2013-12-08T08:56:13.000Z</time>
      </trkpt>
      <trkpt lat="43.74401" lon="7.07098">
        <ele>754.59997558594</ele>
        <time>2013-12-08T08:56:15.000Z</time>
      </trkpt>
      <trkpt lat="43.74398" lon="7.0709">
        <ele>755.20001220703</ele>
        <time>2013-12-08T08:56:21.000Z</time>
      </trkpt>
      <trkpt lat="43.74398" lon="7.07087">
        <ele>755.79998779297</ele>
        <time>2013-12-08T08:56:24.000Z</time>
      </trkpt>
      <trkpt lat="43.74401" lon="7.0708">
        <ele>757.40002441406</ele>
        <time>2013-12-08T08:56:33.000Z</time>
      </trkpt>
      <trkpt lat="43.74401" lon="7.07074">
        <ele>758</ele>
        <time>2013-12-08T08:56:41.000Z</time>
      </trkpt>
      <trkpt lat="43.74403" lon="7.07075">
        <ele>758.40002441406</ele>
        <time>2013-12-08T08:56:47.000Z</time>
      </trkpt>
      <trkpt lat="43.74399" lon="7.07067">
        <ele>758.40002441406</ele>
        <time>2013-12-08T08:56:53.000Z</time>
      </trkpt>
      <trkpt lat="43.74398" lon="7.07056">
        <ele>759</ele>
        <time>2013-12-08T08:56:58.000Z</time>
      </trkpt>
      <trkpt lat="43.74395" lon="7.07048">
        <ele>759.20001220703</ele>
        <time>2013-12-08T08:57:03.000Z</time>
      </trkpt>
      <trkpt lat="43.74394" lon="7.07034">
        <ele>760.20001220703</ele>
        <time>2013-12-08T08:57:10.000Z</time>
      </trkpt>
      <trkpt lat="43.74391" lon="7.07024">
        <ele>760.59997558594</ele>
        <time>2013-12-08T08:57:17.000Z</time>
      </trkpt>
      <trkpt lat="43.74392" lon="7.07021">
        <ele>761.40002441406</ele>
        <time>2013-12-08T08:57:47.000Z</time>
      </trkpt>
      <trkpt lat="43.7439" lon="7.07012">
        <ele>761.59997558594</ele>
        <time>2013-12-08T08:58:35.000Z</time>
      </trkpt>
      <trkpt lat="43.74391" lon="7.06998">
        <ele>763.40002441406</ele>
        <time>2013-12-08T08:58:43.000Z</time>
      </trkpt>
      <trkpt lat="43.74388" lon="7.06989">
        <ele>763.20001220703</ele>
        <time>2013-12-08T08:58:49.000Z</time>
      </trkpt>
      <trkpt lat="43.74387" lon="7.06976">
        <ele>764</ele>
        <time>2013-12-08T08:58:55.000Z</time>
      </trkpt>
      <trkpt lat="43.74385" lon="7.06967">
        <ele>764.20001220703</ele>
        <time>2013-12-08T08:59:01.000Z</time>
      </trkpt>
      <trkpt lat="43.74385" lon="7.06964">
        <ele>764.40002441406</ele>
        <time>2013-12-08T08:59:03.000Z</time>
      </trkpt>
      <trkpt lat="43.74387" lon="7.06955">
        <ele>765.40002441406</ele>
        <time>2013-12-08T08:59:07.000Z</time>
      </trkpt>
      <trkpt lat="43.74386" lon="7.06949">
        <ele>765.79998779297</ele>
        <time>2013-12-08T08:59:13.000Z</time>
      </trkpt>
      <trkpt lat="43.74387" lon="7.06944">
        <ele>766.20001220703</ele>
        <time>2013-12-08T08:59:19.000Z</time>
      </trkpt>
      <trkpt lat="43.74385" lon="7.06938">
        <ele>766.20001220703</ele>
        <time>2013-12-08T08:59:26.000Z</time>
      </trkpt>
      <trkpt lat="43.74383" lon="7.06936">
        <ele>765.79998779297</ele>
        <time>2013-12-08T08:59:31.000Z</time>
      </trkpt>
      <trkpt lat="43.74377" lon="7.06931">
        <ele>765</ele>
        <time>2013-12-08T09:00:56.000Z</time>
      </trkpt>
      <trkpt lat="43.74378" lon="7.0692">
        <ele>766</ele>
        <time>2013-12-08T09:01:03.000Z</time>
      </trkpt>
      <trkpt lat="43.74378" lon="7.06903">
        <ele>766.79998779297</ele>
        <time>2013-12-08T09:01:11.000Z</time>
      </trkpt>
      <trkpt lat="43.7438" lon="7.06888">
        <ele>768.20001220703</ele>
        <time>2013-12-08T09:01:18.000Z</time>
      </trkpt>
      <trkpt lat="43.74382" lon="7.06877">
        <ele>769</ele>
        <time>2013-12-08T09:01:24.000Z</time>
      </trkpt>
      <trkpt lat="43.74382" lon="7.06875">
        <ele>769.20001220703</ele>
        <time>2013-12-08T09:01:25.000Z</time>
      </trkpt>
      <trkpt lat="43.74384" lon="7.06859">
        <ele>770.40002441406</ele>
        <time>2013-12-08T09:01:33.000Z</time>
      </trkpt>
      <trkpt lat="43.74386" lon="7.06844">
        <ele>771.40002441406</ele>
        <time>2013-12-08T09:01:41.000Z</time>
      </trkpt>
      <trkpt lat="43.7439" lon="7.06829">
        <ele>772.40002441406</ele>
        <time>2013-12-08T09:01:48.000Z</time>
      </trkpt>
      <trkpt lat="43.74392" lon="7.06819">
        <ele>772.79998779297</ele>
        <time>2013-12-08T09:01:54.000Z</time>
      </trkpt>
      <trkpt lat="43.74396" lon="7.06808">
        <ele>773.20001220703</ele>
        <time>2013-12-08T09:02:00.000Z</time>
      </trkpt>
      <trkpt lat="43.74398" lon="7.06794">
        <ele>773.20001220703</ele>
        <time>2013-12-08T09:02:07.000Z</time>
      </trkpt>
      <trkpt lat="43.74396" lon="7.0678">
        <ele>772.59997558594</ele>
        <time>2013-12-08T09:02:14.000Z</time>
      </trkpt>
      <trkpt lat="43.74399" lon="7.06767">
        <ele>773</ele>
        <time>2013-12-08T09:02:21.000Z</time>
      </trkpt>
      <trkpt lat="43.74402" lon="7.06755">
        <ele>773.20001220703</ele>
        <time>2013-12-08T09:02:28.000Z</time>
      </trkpt>
      <trkpt lat="43.74403" lon="7.06754">
        <ele>773.20001220703</ele>
        <time>2013-12-08T09:02:29.000Z</time>
      </trkpt>
      <trkpt lat="43.74405" lon="7.06747">
        <ele>773.59997558594</ele>
        <time>2013-12-08T09:02:33.000Z</time>
      </trkpt>
      <trkpt lat="43.74402" lon="7.06745">
        <ele>773.40002441406</ele>
        <time>2013-12-08T09:02:36.000Z</time>
      </trkpt>
      <trkpt lat="43.74404" lon="7.06738">
        <ele>774</ele>
        <time>2013-12-08T09:02:43.000Z</time>
      </trkpt>
      <trkpt lat="43.74404" lon="7.06736">
        <ele>774.20001220703</ele>
        <time>2013-12-08T09:02:45.000Z</time>
      </trkpt>
      <trkpt lat="43.74408" lon="7.06733">
        <ele>774.59997558594</ele>
        <time>2013-12-08T09:02:50.000Z</time>
      </trkpt>
      <trkpt lat="43.7441" lon="7.06728">
        <ele>775</ele>
        <time>2013-12-08T09:02:55.000Z</time>
      </trkpt>
      <trkpt lat="43.74411" lon="7.06727">
        <ele>775.20001220703</ele>
        <time>2013-12-08T09:02:57.000Z</time>
      </trkpt>
      <trkpt lat="43.74415" lon="7.06723">
        <ele>775.79998779297</ele>
        <time>2013-12-08T09:03:04.000Z</time>
      </trkpt>
      <trkpt lat="43.74419" lon="7.06718">
        <ele>777.20001220703</ele>
        <time>2013-12-08T09:03:11.000Z</time>
      </trkpt>
      <trkpt lat="43.74419" lon="7.06716">
        <ele>777</ele>
        <time>2013-12-08T09:03:13.000Z</time>
      </trkpt>
      <trkpt lat="43.74419" lon="7.06712">
        <ele>777.40002441406</ele>
        <time>2013-12-08T09:03:18.000Z</time>
      </trkpt>
      <trkpt lat="43.7442" lon="7.06711">
        <ele>777.79998779297</ele>
        <time>2013-12-08T09:03:19.000Z</time>
      </trkpt>
      <trkpt lat="43.74421" lon="7.06709">
        <ele>778.40002441406</ele>
        <time>2013-12-08T09:03:21.000Z</time>
      </trkpt>
      <trkpt lat="43.74425" lon="7.06705">
        <ele>779.59997558594</ele>
        <time>2013-12-08T09:03:26.000Z</time>
      </trkpt>
      <trkpt lat="43.74427" lon="7.06697">
        <ele>780.79998779297</ele>
        <time>2013-12-08T09:03:35.000Z</time>
      </trkpt>
      <trkpt lat="43.74431" lon="7.06692">
        <ele>782.40002441406</ele>
        <time>2013-12-08T09:03:41.000Z</time>
      </trkpt>
      <trkpt lat="43.74436" lon="7.06685">
        <ele>784</ele>
        <time>2013-12-08T09:03:48.000Z</time>
      </trkpt>
      <trkpt lat="43.74436" lon="7.06684">
        <ele>784</ele>
        <time>2013-12-08T09:03:53.000Z</time>
      </trkpt>
      <trkpt lat="43.74438" lon="7.06676">
        <ele>784.79998779297</ele>
        <time>2013-12-08T09:03:57.000Z</time>
      </trkpt>
      <trkpt lat="43.74444" lon="7.06667">
        <ele>786.79998779297</ele>
        <time>2013-12-08T09:04:03.000Z</time>
      </trkpt>
      <trkpt lat="43.74449" lon="7.06658">
        <ele>789.40002441406</ele>
        <time>2013-12-08T09:04:09.000Z</time>
      </trkpt>
      <trkpt lat="43.74453" lon="7.06645">
        <ele>791.79998779297</ele>
        <time>2013-12-08T09:04:17.000Z</time>
      </trkpt>
      <trkpt lat="43.74458" lon="7.06633">
        <ele>793.79998779297</ele>
        <time>2013-12-08T09:04:25.000Z</time>
      </trkpt>
      <trkpt lat="43.74461" lon="7.06622">
        <ele>795.20001220703</ele>
        <time>2013-12-08T09:04:32.000Z</time>
      </trkpt>
      <trkpt lat="43.74465" lon="7.06611">
        <ele>796.40002441406</ele>
        <time>2013-12-08T09:04:39.000Z</time>
      </trkpt>
      <trkpt lat="43.7447" lon="7.06602">
        <ele>797</ele>
        <time>2013-12-08T09:04:45.000Z</time>
      </trkpt>
      <trkpt lat="43.74476" lon="7.06595">
        <ele>797.59997558594</ele>
        <time>2013-12-08T09:04:50.000Z</time>
      </trkpt>
      <trkpt lat="43.74485" lon="7.06585">
        <ele>797.79998779297</ele>
        <time>2013-12-08T09:04:57.000Z</time>
      </trkpt>
      <trkpt lat="43.74488" lon="7.06581">
        <ele>798.20001220703</ele>
        <time>2013-12-08T09:05:02.000Z</time>
      </trkpt>
      <trkpt lat="43.74491" lon="7.06578">
        <ele>798.40002441406</ele>
        <time>2013-12-08T09:05:07.000Z</time>
      </trkpt>
      <trkpt lat="43.74491" lon="7.06577">
        <ele>798.59997558594</ele>
        <time>2013-12-08T09:05:11.000Z</time>
      </trkpt>
      <trkpt lat="43.74494" lon="7.06576">
        <ele>798.59997558594</ele>
        <time>2013-12-08T09:05:16.000Z</time>
      </trkpt>
      <trkpt lat="43.74496" lon="7.06572">
        <ele>799</ele>
        <time>2013-12-08T09:05:24.000Z</time>
      </trkpt>
      <trkpt lat="43.74498" lon="7.06569">
        <ele>799</ele>
        <time>2013-12-08T09:05:30.000Z</time>
      </trkpt>
      <trkpt lat="43.74501" lon="7.06567">
        <ele>799.40002441406</ele>
        <time>2013-12-08T09:05:37.000Z</time>
      </trkpt>
      <trkpt lat="43.74502" lon="7.06563">
        <ele>800.20001220703</ele>
        <time>2013-12-08T09:05:45.000Z</time>
      </trkpt>
      <trkpt lat="43.74508" lon="7.06559">
        <ele>802.20001220703</ele>
        <time>2013-12-08T09:05:53.000Z</time>
      </trkpt>
      <trkpt lat="43.74511" lon="7.06555">
        <ele>803.40002441406</ele>
        <time>2013-12-08T09:06:00.000Z</time>
      </trkpt>
      <trkpt lat="43.74517" lon="7.06551">
        <ele>805.40002441406</ele>
        <time>2013-12-08T09:06:09.000Z</time>
      </trkpt>
      <trkpt lat="43.74523" lon="7.06546">
        <ele>807.20001220703</ele>
        <time>2013-12-08T09:06:16.000Z</time>
      </trkpt>
      <trkpt lat="43.74529" lon="7.06541">
        <ele>808.59997558594</ele>
        <time>2013-12-08T09:06:25.000Z</time>
      </trkpt>
      <trkpt lat="43.74533" lon="7.06536">
        <ele>809.59997558594</ele>
        <time>2013-12-08T09:06:33.000Z</time>
      </trkpt>
      <trkpt lat="43.74538" lon="7.06531">
        <ele>810.40002441406</ele>
        <time>2013-12-08T09:06:39.000Z</time>
      </trkpt>
      <trkpt lat="43.74539" lon="7.0653">
        <ele>810.59997558594</ele>
        <time>2013-12-08T09:06:41.000Z</time>
      </trkpt>
      <trkpt lat="43.74545" lon="7.06523">
        <ele>811.40002441406</ele>
        <time>2013-12-08T09:06:50.000Z</time>
      </trkpt>
      <trkpt lat="43.74552" lon="7.06518">
        <ele>812</ele>
        <time>2013-12-08T09:06:58.000Z</time>
      </trkpt>
      <trkpt lat="43.74556" lon="7.06513">
        <ele>812.40002441406</ele>
        <time>2013-12-08T09:07:05.000Z</time>
      </trkpt>
      <trkpt lat="43.74563" lon="7.06508">
        <ele>812.59997558594</ele>
        <time>2013-12-08T09:07:14.000Z</time>
      </trkpt>
      <trkpt lat="43.7457" lon="7.065">
        <ele>812.40002441406</ele>
        <time>2013-12-08T09:07:23.000Z</time>
      </trkpt>
      <trkpt lat="43.74571" lon="7.06497">
        <ele>812.59997558594</ele>
        <time>2013-12-08T09:07:31.000Z</time>
      </trkpt>
      <trkpt lat="43.74576" lon="7.06486">
        <ele>812.79998779297</ele>
        <time>2013-12-08T09:13:34.000Z</time>
      </trkpt>
      <trkpt lat="43.74582" lon="7.06474">
        <ele>812.79998779297</ele>
        <time>2013-12-08T09:13:42.000Z</time>
      </trkpt>
      <trkpt lat="43.7459" lon="7.06464">
        <ele>814</ele>
        <time>2013-12-08T09:13:51.000Z</time>
      </trkpt>
      <trkpt lat="43.74597" lon="7.06456">
        <ele>814.79998779297</ele>
        <time>2013-12-08T09:13:58.000Z</time>
      </trkpt>
      <trkpt lat="43.74605" lon="7.06447">
        <ele>815.79998779297</ele>
        <time>2013-12-08T09:14:06.000Z</time>
      </trkpt>
      <trkpt lat="43.74605" lon="7.06446">
        <ele>815.79998779297</ele>
        <time>2013-12-08T09:14:07.000Z</time>
      </trkpt>
      <trkpt lat="43.74611" lon="7.06443">
        <ele>816.59997558594</ele>
        <time>2013-12-08T09:14:11.000Z</time>
      </trkpt>
      <trkpt lat="43.74613" lon="7.06442">
        <ele>817</ele>
        <time>2013-12-08T09:14:12.000Z</time>
      </trkpt>
      <trkpt lat="43.7462" lon="7.06435">
        <ele>817.40002441406</ele>
        <time>2013-12-08T09:14:18.000Z</time>
      </trkpt>
      <trkpt lat="43.74625" lon="7.06428">
        <ele>817.59997558594</ele>
        <time>2013-12-08T09:14:23.000Z</time>
      </trkpt>
      <trkpt lat="43.74626" lon="7.06427">
        <ele>817.59997558594</ele>
        <time>2013-12-08T09:14:24.000Z</time>
      </trkpt>
      <trkpt lat="43.74631" lon="7.06421">
        <ele>817.59997558594</ele>
        <time>2013-12-08T09:14:29.000Z</time>
      </trkpt>
      <trkpt lat="43.74643" lon="7.06415">
        <ele>818.79998779297</ele>
        <time>2013-12-08T09:14:37.000Z</time>
      </trkpt>
      <trkpt lat="43.74656" lon="7.06411">
        <ele>821.20001220703</ele>
        <time>2013-12-08T09:14:46.000Z</time>
      </trkpt>
      <trkpt lat="43.74667" lon="7.06406">
        <ele>823.40002441406</ele>
        <time>2013-12-08T09:14:55.000Z</time>
      </trkpt>
      <trkpt lat="43.74678" lon="7.06405">
        <ele>825.79998779297</ele>
        <time>2013-12-08T09:15:02.000Z</time>
      </trkpt>
      <trkpt lat="43.74685" lon="7.06403">
        <ele>827.79998779297</ele>
        <time>2013-12-08T09:15:08.000Z</time>
      </trkpt>
      <trkpt lat="43.74692" lon="7.06402">
        <ele>829.40002441406</ele>
        <time>2013-12-08T09:15:13.000Z</time>
      </trkpt>
      <trkpt lat="43.74696" lon="7.06401">
        <ele>830.20001220703</ele>
        <time>2013-12-08T09:15:15.000Z</time>
      </trkpt>
      <trkpt lat="43.74701" lon="7.06402">
        <ele>831.20001220703</ele>
        <time>2013-12-08T09:15:18.000Z</time>
      </trkpt>
      <trkpt lat="43.74705" lon="7.06401">
        <ele>832.20001220703</ele>
        <time>2013-12-08T09:15:21.000Z</time>
      </trkpt>
      <trkpt lat="43.74706" lon="7.06401">
        <ele>832.59997558594</ele>
        <time>2013-12-08T09:15:22.000Z</time>
      </trkpt>
      <trkpt lat="43.7471" lon="7.06402">
        <ele>833.20001220703</ele>
        <time>2013-12-08T09:15:25.000Z</time>
      </trkpt>
      <trkpt lat="43.74714" lon="7.06402">
        <ele>834.20001220703</ele>
        <time>2013-12-08T09:15:28.000Z</time>
      </trkpt>
      <trkpt lat="43.74724" lon="7.06399">
        <ele>836.59997558594</ele>
        <time>2013-12-08T09:15:35.000Z</time>
      </trkpt>
      <trkpt lat="43.74729" lon="7.06398">
        <ele>837.59997558594</ele>
        <time>2013-12-08T09:15:41.000Z</time>
      </trkpt>
      <trkpt lat="43.74735" lon="7.06393">
        <ele>839</ele>
        <time>2013-12-08T09:15:53.000Z</time>
      </trkpt>
      <trkpt lat="43.74742" lon="7.06387">
        <ele>840.79998779297</ele>
        <time>2013-12-08T09:16:00.000Z</time>
      </trkpt>
      <trkpt lat="43.74748" lon="7.06381">
        <ele>842.20001220703</ele>
        <time>2013-12-08T09:16:07.000Z</time>
      </trkpt>
      <trkpt lat="43.74756" lon="7.06371">
        <ele>844.40002441406</ele>
        <time>2013-12-08T09:16:16.000Z</time>
      </trkpt>
      <trkpt lat="43.7476" lon="7.06361">
        <ele>845.40002441406</ele>
        <time>2013-12-08T09:16:22.000Z</time>
      </trkpt>
      <trkpt lat="43.74765" lon="7.06349">
        <ele>846.79998779297</ele>
        <time>2013-12-08T09:16:30.000Z</time>
      </trkpt>
      <trkpt lat="43.74764" lon="7.06339">
        <ele>846.59997558594</ele>
        <time>2013-12-08T09:16:36.000Z</time>
      </trkpt>
      <trkpt lat="43.74765" lon="7.06338">
        <ele>846.79998779297</ele>
        <time>2013-12-08T09:16:41.000Z</time>
      </trkpt>
      <trkpt lat="43.74765" lon="7.06338">
        <ele>847</ele>
        <time>2013-12-08T09:16:43.000Z</time>
      </trkpt>
      <trkpt lat="43.74766" lon="7.06337">
        <ele>847.40002441406</ele>
        <time>2013-12-08T09:16:44.000Z</time>
      </trkpt>
      <trkpt lat="43.74768" lon="7.06334">
        <ele>847.79998779297</ele>
        <time>2013-12-08T09:16:48.000Z</time>
      </trkpt>
      <trkpt lat="43.7477" lon="7.06331">
        <ele>849</ele>
        <time>2013-12-08T09:16:57.000Z</time>
      </trkpt>
      <trkpt lat="43.74772" lon="7.0633">
        <ele>849.59997558594</ele>
        <time>2013-12-08T09:17:02.000Z</time>
      </trkpt>
      <trkpt lat="43.74774" lon="7.06329">
        <ele>850.40002441406</ele>
        <time>2013-12-08T09:17:07.000Z</time>
      </trkpt>
      <trkpt lat="43.74777" lon="7.06324">
        <ele>852.20001220703</ele>
        <time>2013-12-08T09:17:15.000Z</time>
      </trkpt>
      <trkpt lat="43.74777" lon="7.06319">
        <ele>853.20001220703</ele>
        <time>2013-12-08T09:17:21.000Z</time>
      </trkpt>
      <trkpt lat="43.74777" lon="7.06317">
        <ele>853.59997558594</ele>
        <time>2013-12-08T09:17:28.000Z</time>
      </trkpt>
      <trkpt lat="43.74778" lon="7.06317">
        <ele>853.79998779297</ele>
        <time>2013-12-08T09:17:33.000Z</time>
      </trkpt>
      <trkpt lat="43.74775" lon="7.06313">
        <ele>854.20001220703</ele>
        <time>2013-12-08T09:17:39.000Z</time>
      </trkpt>
      <trkpt lat="43.74773" lon="7.06309">
        <ele>854.40002441406</ele>
        <time>2013-12-08T09:17:45.000Z</time>
      </trkpt>
      <trkpt lat="43.7477" lon="7.06306">
        <ele>854.59997558594</ele>
        <time>2013-12-08T09:17:52.000Z</time>
      </trkpt>
      <trkpt lat="43.74765" lon="7.06302">
        <ele>854.79998779297</ele>
        <time>2013-12-08T09:18:01.000Z</time>
      </trkpt>
      <trkpt lat="43.74762" lon="7.06297">
        <ele>855.40002441406</ele>
        <time>2013-12-08T09:18:07.000Z</time>
      </trkpt>
      <trkpt lat="43.74762" lon="7.06296">
        <ele>855.59997558594</ele>
        <time>2013-12-08T09:18:15.000Z</time>
      </trkpt>
      <trkpt lat="43.74763" lon="7.06294">
        <ele>856.40002441406</ele>
        <time>2013-12-08T09:18:21.000Z</time>
      </trkpt>
      <trkpt lat="43.74767" lon="7.06291">
        <ele>857.79998779297</ele>
        <time>2013-12-08T09:18:28.000Z</time>
      </trkpt>
      <trkpt lat="43.74772" lon="7.06287">
        <ele>859.40002441406</ele>
        <time>2013-12-08T09:18:36.000Z</time>
      </trkpt>
      <trkpt lat="43.74777" lon="7.06283">
        <ele>861.20001220703</ele>
        <time>2013-12-08T09:18:44.000Z</time>
      </trkpt>
      <trkpt lat="43.74782" lon="7.06277">
        <ele>863</ele>
        <time>2013-12-08T09:18:52.000Z</time>
      </trkpt>
      <trkpt lat="43.74782" lon="7.06277">
        <ele>863</ele>
        <time>2013-12-08T09:18:53.000Z</time>
      </trkpt>
      <trkpt lat="43.74781" lon="7.06276">
        <ele>863.20001220703</ele>
        <time>2013-12-08T09:18:57.000Z</time>
      </trkpt>
      <trkpt lat="43.74777" lon="7.06272">
        <ele>863.59997558594</ele>
        <time>2013-12-08T09:19:04.000Z</time>
      </trkpt>
      <trkpt lat="43.74772" lon="7.0627">
        <ele>863.40002441406</ele>
        <time>2013-12-08T09:19:11.000Z</time>
      </trkpt>
      <trkpt lat="43.74766" lon="7.06265">
        <ele>864</ele>
        <time>2013-12-08T09:19:20.000Z</time>
      </trkpt>
      <trkpt lat="43.74767" lon="7.06265">
        <ele>864.20001220703</ele>
        <time>2013-12-08T09:19:25.000Z</time>
      </trkpt>
      <trkpt lat="43.74769" lon="7.06262">
        <ele>865.20001220703</ele>
        <time>2013-12-08T09:19:29.000Z</time>
      </trkpt>
      <trkpt lat="43.7477" lon="7.06261">
        <ele>865.40002441406</ele>
        <time>2013-12-08T09:19:30.000Z</time>
      </trkpt>
      <trkpt lat="43.74774" lon="7.06254">
        <ele>867.20001220703</ele>
        <time>2013-12-08T09:19:38.000Z</time>
      </trkpt>
      <trkpt lat="43.74778" lon="7.06247">
        <ele>869</ele>
        <time>2013-12-08T09:19:45.000Z</time>
      </trkpt>
      <trkpt lat="43.7478" lon="7.06244">
        <ele>869.79998779297</ele>
        <time>2013-12-08T09:19:49.000Z</time>
      </trkpt>
      <trkpt lat="43.74783" lon="7.06242">
        <ele>870.40002441406</ele>
        <time>2013-12-08T09:19:53.000Z</time>
      </trkpt>
      <trkpt lat="43.74785" lon="7.06236">
        <ele>872</ele>
        <time>2013-12-08T09:19:59.000Z</time>
      </trkpt>
      <trkpt lat="43.74789" lon="7.06228">
        <ele>874</ele>
        <time>2013-12-08T09:20:07.000Z</time>
      </trkpt>
      <trkpt lat="43.74789" lon="7.06227">
        <ele>874.20001220703</ele>
        <time>2013-12-08T09:20:08.000Z</time>
      </trkpt>
      <trkpt lat="43.74791" lon="7.06223">
        <ele>875.20001220703</ele>
        <time>2013-12-08T09:20:13.000Z</time>
      </trkpt>
      <trkpt lat="43.74792" lon="7.06222">
        <ele>875.40002441406</ele>
        <time>2013-12-08T09:20:14.000Z</time>
      </trkpt>
      <trkpt lat="43.74796" lon="7.06215">
        <ele>877</ele>
        <time>2013-12-08T09:20:22.000Z</time>
      </trkpt>
      <trkpt lat="43.748" lon="7.06207">
        <ele>878.40002441406</ele>
        <time>2013-12-08T09:20:31.000Z</time>
      </trkpt>
      <trkpt lat="43.74802" lon="7.06202">
        <ele>879.40002441406</ele>
        <time>2013-12-08T09:20:36.000Z</time>
      </trkpt>
      <trkpt lat="43.74802" lon="7.062">
        <ele>879.79998779297</ele>
        <time>2013-12-08T09:20:38.000Z</time>
      </trkpt>
      <trkpt lat="43.74805" lon="7.06191">
        <ele>881.40002441406</ele>
        <time>2013-12-08T09:20:46.000Z</time>
      </trkpt>
      <trkpt lat="43.74805" lon="7.06189">
        <ele>881.79998779297</ele>
        <time>2013-12-08T09:20:48.000Z</time>
      </trkpt>
      <trkpt lat="43.74806" lon="7.06185">
        <ele>882.59997558594</ele>
        <time>2013-12-08T09:20:52.000Z</time>
      </trkpt>
      <trkpt lat="43.74807" lon="7.06178">
        <ele>884</ele>
        <time>2013-12-08T09:21:00.000Z</time>
      </trkpt>
      <trkpt lat="43.74809" lon="7.06172">
        <ele>885</ele>
        <time>2013-12-08T09:21:07.000Z</time>
      </trkpt>
      <trkpt lat="43.74809" lon="7.06164">
        <ele>886.40002441406</ele>
        <time>2013-12-08T09:21:14.000Z</time>
      </trkpt>
      <trkpt lat="43.7481" lon="7.06156">
        <ele>888</ele>
        <time>2013-12-08T09:21:22.000Z</time>
      </trkpt>
      <trkpt lat="43.7481" lon="7.0615">
        <ele>889.40002441406</ele>
        <time>2013-12-08T09:21:29.000Z</time>
      </trkpt>
      <trkpt lat="43.74811" lon="7.06141">
        <ele>891.20001220703</ele>
        <time>2013-12-08T09:21:36.000Z</time>
      </trkpt>
      <trkpt lat="43.74811" lon="7.0614">
        <ele>891.40002441406</ele>
        <time>2013-12-08T09:21:37.000Z</time>
      </trkpt>
      <trkpt lat="43.74812" lon="7.06135">
        <ele>892.59997558594</ele>
        <time>2013-12-08T09:21:42.000Z</time>
      </trkpt>
      <trkpt lat="43.74811" lon="7.06133">
        <ele>892.79998779297</ele>
        <time>2013-12-08T09:21:43.000Z</time>
      </trkpt>
      <trkpt lat="43.74812" lon="7.06127">
        <ele>894</ele>
        <time>2013-12-08T09:21:49.000Z</time>
      </trkpt>
      <trkpt lat="43.74813" lon="7.06117">
        <ele>896.20001220703</ele>
        <time>2013-12-08T09:21:59.000Z</time>
      </trkpt>
      <trkpt lat="43.74814" lon="7.06107">
        <ele>898.20001220703</ele>
        <time>2013-12-08T09:22:09.000Z</time>
      </trkpt>
      <trkpt lat="43.74815" lon="7.06098">
        <ele>899.79998779297</ele>
        <time>2013-12-08T09:22:16.000Z</time>
      </trkpt>
      <trkpt lat="43.74815" lon="7.06092">
        <ele>901.20001220703</ele>
        <time>2013-12-08T09:22:24.000Z</time>
      </trkpt>
      <trkpt lat="43.74816" lon="7.06085">
        <ele>902.59997558594</ele>
        <time>2013-12-08T09:22:31.000Z</time>
      </trkpt>
      <trkpt lat="43.74818" lon="7.06075">
        <ele>904.40002441406</ele>
        <time>2013-12-08T09:22:40.000Z</time>
      </trkpt>
      <trkpt lat="43.74818" lon="7.0607">
        <ele>905.20001220703</ele>
        <time>2013-12-08T09:22:44.000Z</time>
      </trkpt>
      <trkpt lat="43.74818" lon="7.06065">
        <ele>906.20001220703</ele>
        <time>2013-12-08T09:22:48.000Z</time>
      </trkpt>
      <trkpt lat="43.7482" lon="7.06057">
        <ele>907.59997558594</ele>
        <time>2013-12-08T09:22:56.000Z</time>
      </trkpt>
      <trkpt lat="43.74823" lon="7.0605">
        <ele>908.59997558594</ele>
        <time>2013-12-08T09:23:03.000Z</time>
      </trkpt>
      <trkpt lat="43.74825" lon="7.06046">
        <ele>909.20001220703</ele>
        <time>2013-12-08T09:23:07.000Z</time>
      </trkpt>
      <trkpt lat="43.74825" lon="7.06043">
        <ele>910</ele>
        <time>2013-12-08T09:23:10.000Z</time>
      </trkpt>
      <trkpt lat="43.74825" lon="7.06034">
        <ele>911.79998779297</ele>
        <time>2013-12-08T09:23:18.000Z</time>
      </trkpt>
      <trkpt lat="43.7482" lon="7.0603">
        <ele>913.20001220703</ele>
        <time>2013-12-08T09:23:25.000Z</time>
      </trkpt>
      <trkpt lat="43.74815" lon="7.06034">
        <ele>913</ele>
        <time>2013-12-08T09:23:32.000Z</time>
      </trkpt>
      <trkpt lat="43.74808" lon="7.0604">
        <ele>912.59997558594</ele>
        <time>2013-12-08T09:23:41.000Z</time>
      </trkpt>
      <trkpt lat="43.748" lon="7.06045">
        <ele>912.79998779297</ele>
        <time>2013-12-08T09:23:51.000Z</time>
      </trkpt>
      <trkpt lat="43.74792" lon="7.06047">
        <ele>913.59997558594</ele>
        <time>2013-12-08T09:24:00.000Z</time>
      </trkpt>
      <trkpt lat="43.74791" lon="7.06047">
        <ele>913.40002441406</ele>
        <time>2013-12-08T09:24:01.000Z</time>
      </trkpt>
      <trkpt lat="43.74786" lon="7.06054">
        <ele>913.20001220703</ele>
        <time>2013-12-08T09:24:09.000Z</time>
      </trkpt>
      <trkpt lat="43.74785" lon="7.06055">
        <ele>913.20001220703</ele>
        <time>2013-12-08T09:24:10.000Z</time>
      </trkpt>
      <trkpt lat="43.74779" lon="7.0606">
        <ele>913</ele>
        <time>2013-12-08T09:24:18.000Z</time>
      </trkpt>
      <trkpt lat="43.74778" lon="7.06061">
        <ele>913.20001220703</ele>
        <time>2013-12-08T09:24:20.000Z</time>
      </trkpt>
      <trkpt lat="43.74775" lon="7.06065">
        <ele>912.79998779297</ele>
        <time>2013-12-08T09:24:24.000Z</time>
      </trkpt>
      <trkpt lat="43.74769" lon="7.06071">
        <ele>912.59997558594</ele>
        <time>2013-12-08T09:24:33.000Z</time>
      </trkpt>
      <trkpt lat="43.7477" lon="7.06069">
        <ele>913</ele>
        <time>2013-12-08T09:24:41.000Z</time>
      </trkpt>
      <trkpt lat="43.74769" lon="7.06068">
        <ele>913.20001220703</ele>
        <time>2013-12-08T09:25:04.000Z</time>
      </trkpt>
      <trkpt lat="43.74768" lon="7.06071">
        <ele>913</ele>
        <time>2013-12-08T09:25:08.000Z</time>
      </trkpt>
      <trkpt lat="43.74767" lon="7.06072">
        <ele>913</ele>
        <time>2013-12-08T09:25:17.000Z</time>
      </trkpt>
      <trkpt lat="43.74759" lon="7.06073">
        <ele>914</ele>
        <time>2013-12-08T09:25:48.000Z</time>
      </trkpt>
      <trkpt lat="43.74759" lon="7.06073">
        <ele>914</ele>
        <time>2013-12-08T09:25:56.000Z</time>
      </trkpt>
      <trkpt lat="43.74759" lon="7.06084">
        <ele>912.40002441406</ele>
        <time>2013-12-08T09:35:25.000Z</time>
      </trkpt>
      <trkpt lat="43.74748" lon="7.06086">
        <ele>913.20001220703</ele>
        <time>2013-12-08T09:35:32.000Z</time>
      </trkpt>
      <trkpt lat="43.74735" lon="7.06084">
        <ele>912.59997558594</ele>
        <time>2013-12-08T09:35:40.000Z</time>
      </trkpt>
      <trkpt lat="43.74732" lon="7.06079">
        <ele>913.20001220703</ele>
        <time>2013-12-08T09:35:45.000Z</time>
      </trkpt>
      <trkpt lat="43.74732" lon="7.0607">
        <ele>914.40002441406</ele>
        <time>2013-12-08T09:35:50.000Z</time>
      </trkpt>
      <trkpt lat="43.74732" lon="7.06068">
        <ele>914.59997558594</ele>
        <time>2013-12-08T09:35:51.000Z</time>
      </trkpt>
      <trkpt lat="43.74736" lon="7.06064">
        <ele>915.40002441406</ele>
        <time>2013-12-08T09:35:54.000Z</time>
      </trkpt>
      <trkpt lat="43.74742" lon="7.06055">
        <ele>917.40002441406</ele>
        <time>2013-12-08T09:36:01.000Z</time>
      </trkpt>
      <trkpt lat="43.74752" lon="7.06044">
        <ele>919.40002441406</ele>
        <time>2013-12-08T09:36:11.000Z</time>
      </trkpt>
      <trkpt lat="43.7476" lon="7.06032">
        <ele>920.20001220703</ele>
        <time>2013-12-08T09:36:18.000Z</time>
      </trkpt>
      <trkpt lat="43.74763" lon="7.06015">
        <ele>922.40002441406</ele>
        <time>2013-12-08T09:36:25.000Z</time>
      </trkpt>
      <trkpt lat="43.74767" lon="7.05994">
        <ele>925</ele>
        <time>2013-12-08T09:36:34.000Z</time>
      </trkpt>
      <trkpt lat="43.74769" lon="7.05979">
        <ele>926.20001220703</ele>
        <time>2013-12-08T09:36:40.000Z</time>
      </trkpt>
      <trkpt lat="43.74771" lon="7.05962">
        <ele>927.79998779297</ele>
        <time>2013-12-08T09:36:48.000Z</time>
      </trkpt>
      <trkpt lat="43.74766" lon="7.05945">
        <ele>929.59997558594</ele>
        <time>2013-12-08T09:36:56.000Z</time>
      </trkpt>
      <trkpt lat="43.74762" lon="7.05925">
        <ele>931.40002441406</ele>
        <time>2013-12-08T09:37:05.000Z</time>
      </trkpt>
      <trkpt lat="43.74764" lon="7.05909">
        <ele>933</ele>
        <time>2013-12-08T09:37:14.000Z</time>
      </trkpt>
      <trkpt lat="43.74772" lon="7.05902">
        <ele>934</ele>
        <time>2013-12-08T09:37:20.000Z</time>
      </trkpt>
      <trkpt lat="43.74779" lon="7.05892">
        <ele>935.40002441406</ele>
        <time>2013-12-08T09:37:26.000Z</time>
      </trkpt>
      <trkpt lat="43.74787" lon="7.05883">
        <ele>936.79998779297</ele>
        <time>2013-12-08T09:37:33.000Z</time>
      </trkpt>
      <trkpt lat="43.74794" lon="7.05871">
        <ele>938.59997558594</ele>
        <time>2013-12-08T09:37:40.000Z</time>
      </trkpt>
      <trkpt lat="43.74799" lon="7.05859">
        <ele>940.40002441406</ele>
        <time>2013-12-08T09:37:46.000Z</time>
      </trkpt>
      <trkpt lat="43.74799" lon="7.05858">
        <ele>940.59997558594</ele>
        <time>2013-12-08T09:37:47.000Z</time>
      </trkpt>
      <trkpt lat="43.748" lon="7.05854">
        <ele>941.20001220703</ele>
        <time>2013-12-08T09:37:52.000Z</time>
      </trkpt>
      <trkpt lat="43.74801" lon="7.05854">
        <ele>941.20001220703</ele>
        <time>2013-12-08T09:37:53.000Z</time>
      </trkpt>
      <trkpt lat="43.74806" lon="7.05849">
        <ele>942.20001220703</ele>
        <time>2013-12-08T09:37:58.000Z</time>
      </trkpt>
      <trkpt lat="43.74811" lon="7.05841">
        <ele>943.59997558594</ele>
        <time>2013-12-08T09:38:05.000Z</time>
      </trkpt>
      <trkpt lat="43.7482" lon="7.05835">
        <ele>944.79998779297</ele>
        <time>2013-12-08T09:38:13.000Z</time>
      </trkpt>
      <trkpt lat="43.74829" lon="7.05833">
        <ele>945.79998779297</ele>
        <time>2013-12-08T09:38:20.000Z</time>
      </trkpt>
      <trkpt lat="43.74837" lon="7.05828">
        <ele>947</ele>
        <time>2013-12-08T09:38:26.000Z</time>
      </trkpt>
      <trkpt lat="43.74848" lon="7.05824">
        <ele>948.79998779297</ele>
        <time>2013-12-08T09:38:34.000Z</time>
      </trkpt>
      <trkpt lat="43.74863" lon="7.05825">
        <ele>950.79998779297</ele>
        <time>2013-12-08T09:38:42.000Z</time>
      </trkpt>
      <trkpt lat="43.74879" lon="7.05826">
        <ele>952.59997558594</ele>
        <time>2013-12-08T09:38:52.000Z</time>
      </trkpt>
      <trkpt lat="43.7489" lon="7.05827">
        <ele>954</ele>
        <time>2013-12-08T09:38:59.000Z</time>
      </trkpt>
      <trkpt lat="43.74899" lon="7.05822">
        <ele>955.40002441406</ele>
        <time>2013-12-08T09:39:05.000Z</time>
      </trkpt>
      <trkpt lat="43.74909" lon="7.0582">
        <ele>956.79998779297</ele>
        <time>2013-12-08T09:39:11.000Z</time>
      </trkpt>
      <trkpt lat="43.74917" lon="7.05814">
        <ele>958.20001220703</ele>
        <time>2013-12-08T09:39:17.000Z</time>
      </trkpt>
      <trkpt lat="43.74924" lon="7.05803">
        <ele>959.40002441406</ele>
        <time>2013-12-08T09:39:24.000Z</time>
      </trkpt>
      <trkpt lat="43.74934" lon="7.05793">
        <ele>960.79998779297</ele>
        <time>2013-12-08T09:39:32.000Z</time>
      </trkpt>
      <trkpt lat="43.74937" lon="7.05783">
        <ele>961.40002441406</ele>
        <time>2013-12-08T09:39:39.000Z</time>
      </trkpt>
      <trkpt lat="43.74935" lon="7.0578">
        <ele>961.59997558594</ele>
        <time>2013-12-08T09:39:45.000Z</time>
      </trkpt>
      <trkpt lat="43.7493" lon="7.05782">
        <ele>961</ele>
        <time>2013-12-08T09:39:50.000Z</time>
      </trkpt>
      <trkpt lat="43.74926" lon="7.05783">
        <ele>960.79998779297</ele>
        <time>2013-12-08T09:39:53.000Z</time>
      </trkpt>
      <trkpt lat="43.74926" lon="7.05786">
        <ele>960.59997558594</ele>
        <time>2013-12-08T09:39:55.000Z</time>
      </trkpt>
      <trkpt lat="43.74929" lon="7.05786">
        <ele>960.79998779297</ele>
        <time>2013-12-08T09:39:59.000Z</time>
      </trkpt>
      <trkpt lat="43.74934" lon="7.05783">
        <ele>961.20001220703</ele>
        <time>2013-12-08T09:40:03.000Z</time>
      </trkpt>
      <trkpt lat="43.74936" lon="7.05782">
        <ele>961.59997558594</ele>
        <time>2013-12-08T09:40:05.000Z</time>
      </trkpt>
      <trkpt lat="43.74937" lon="7.05781">
        <ele>961.59997558594</ele>
        <time>2013-12-08T09:40:10.000Z</time>
      </trkpt>
      <trkpt lat="43.7494" lon="7.05779">
        <ele>962</ele>
        <time>2013-12-08T09:40:21.000Z</time>
      </trkpt>
      <trkpt lat="43.74947" lon="7.05765">
        <ele>963</ele>
        <time>2013-12-08T09:40:29.000Z</time>
      </trkpt>
      <trkpt lat="43.74953" lon="7.05755">
        <ele>964</ele>
        <time>2013-12-08T09:40:37.000Z</time>
      </trkpt>
      <trkpt lat="43.74959" lon="7.05745">
        <ele>964.79998779297</ele>
        <time>2013-12-08T09:40:44.000Z</time>
      </trkpt>
      <trkpt lat="43.74967" lon="7.05731">
        <ele>966</ele>
        <time>2013-12-08T09:40:53.000Z</time>
      </trkpt>
      <trkpt lat="43.74973" lon="7.05718">
        <ele>967</ele>
        <time>2013-12-08T09:41:01.000Z</time>
      </trkpt>
      <trkpt lat="43.7498" lon="7.05705">
        <ele>967.79998779297</ele>
        <time>2013-12-08T09:41:08.000Z</time>
      </trkpt>
      <trkpt lat="43.74992" lon="7.05684">
        <ele>969.20001220703</ele>
        <time>2013-12-08T09:41:18.000Z</time>
      </trkpt>
      <trkpt lat="43.74995" lon="7.05681">
        <ele>969.40002441406</ele>
        <time>2013-12-08T09:41:20.000Z</time>
      </trkpt>
      <trkpt lat="43.75001" lon="7.05679">
        <ele>969.59997558594</ele>
        <time>2013-12-08T09:41:24.000Z</time>
      </trkpt>
      <trkpt lat="43.75013" lon="7.05677">
        <ele>970</ele>
        <time>2013-12-08T09:41:31.000Z</time>
      </trkpt>
      <trkpt lat="43.75024" lon="7.05667">
        <ele>970.59997558594</ele>
        <time>2013-12-08T09:41:39.000Z</time>
      </trkpt>
      <trkpt lat="43.75036" lon="7.05655">
        <ele>971</ele>
        <time>2013-12-08T09:41:47.000Z</time>
      </trkpt>
      <trkpt lat="43.75043" lon="7.05642">
        <ele>971.40002441406</ele>
        <time>2013-12-08T09:41:54.000Z</time>
      </trkpt>
      <trkpt lat="43.75047" lon="7.05626">
        <ele>971.40002441406</ele>
        <time>2013-12-08T09:42:01.000Z</time>
      </trkpt>
      <trkpt lat="43.75057" lon="7.05613">
        <ele>971.59997558594</ele>
        <time>2013-12-08T09:42:07.000Z</time>
      </trkpt>
      <trkpt lat="43.75071" lon="7.05597">
        <ele>971.40002441406</ele>
        <time>2013-12-08T09:42:15.000Z</time>
      </trkpt>
      <trkpt lat="43.75089" lon="7.05576">
        <ele>970.59997558594</ele>
        <time>2013-12-08T09:42:23.000Z</time>
      </trkpt>
      <trkpt lat="43.75109" lon="7.0556">
        <ele>969</ele>
        <time>2013-12-08T09:42:29.000Z</time>
      </trkpt>
      <trkpt lat="43.75129" lon="7.05549">
        <ele>967.59997558594</ele>
        <time>2013-12-08T09:42:34.000Z</time>
      </trkpt>
      <trkpt lat="43.75133" lon="7.05546">
        <ele>967.40002441406</ele>
        <time>2013-12-08T09:42:35.000Z</time>
      </trkpt>
      <trkpt lat="43.75144" lon="7.05532">
        <ele>966.79998779297</ele>
        <time>2013-12-08T09:42:38.000Z</time>
      </trkpt>
      <trkpt lat="43.7517" lon="7.05497">
        <ele>966</ele>
        <time>2013-12-08T09:42:44.000Z</time>
      </trkpt>
      <trkpt lat="43.75184" lon="7.0548">
        <ele>966</ele>
        <time>2013-12-08T09:42:47.000Z</time>
      </trkpt>
      <trkpt lat="43.75193" lon="7.05472">
        <ele>966</ele>
        <time>2013-12-08T09:42:49.000Z</time>
      </trkpt>
      <trkpt lat="43.75197" lon="7.05469">
        <ele>966</ele>
        <time>2013-12-08T09:42:50.000Z</time>
      </trkpt>
      <trkpt lat="43.75213" lon="7.05458">
        <ele>965.79998779297</ele>
        <time>2013-12-08T09:42:54.000Z</time>
      </trkpt>
      <trkpt lat="43.7523" lon="7.05444">
        <ele>965.79998779297</ele>
        <time>2013-12-08T09:43:00.000Z</time>
      </trkpt>
      <trkpt lat="43.75244" lon="7.05424">
        <ele>966.59997558594</ele>
        <time>2013-12-08T09:43:07.000Z</time>
      </trkpt>
      <trkpt lat="43.75254" lon="7.05414">
        <ele>967</ele>
        <time>2013-12-08T09:43:12.000Z</time>
      </trkpt>
      <trkpt lat="43.75263" lon="7.05401">
        <ele>967</ele>
        <time>2013-12-08T09:43:17.000Z</time>
      </trkpt>
      <trkpt lat="43.75269" lon="7.0538">
        <ele>967.59997558594</ele>
        <time>2013-12-08T09:43:23.000Z</time>
      </trkpt>
      <trkpt lat="43.75276" lon="7.05363">
        <ele>968</ele>
        <time>2013-12-08T09:43:29.000Z</time>
      </trkpt>
      <trkpt lat="43.75285" lon="7.05339">
        <ele>968.79998779297</ele>
        <time>2013-12-08T09:43:37.000Z</time>
      </trkpt>
      <trkpt lat="43.75292" lon="7.05314">
        <ele>969.40002441406</ele>
        <time>2013-12-08T09:43:45.000Z</time>
      </trkpt>
      <trkpt lat="43.75301" lon="7.05296">
        <ele>969.79998779297</ele>
        <time>2013-12-08T09:43:50.000Z</time>
      </trkpt>
      <trkpt lat="43.75311" lon="7.0528">
        <ele>970.20001220703</ele>
        <time>2013-12-08T09:43:54.000Z</time>
      </trkpt>
      <trkpt lat="43.75323" lon="7.0526">
        <ele>970.59997558594</ele>
        <time>2013-12-08T09:44:00.000Z</time>
      </trkpt>
      <trkpt lat="43.75341" lon="7.05232">
        <ele>971</ele>
        <time>2013-12-08T09:44:09.000Z</time>
      </trkpt>
      <trkpt lat="43.75353" lon="7.05216">
        <ele>971</ele>
        <time>2013-12-08T09:44:15.000Z</time>
      </trkpt>
      <trkpt lat="43.75368" lon="7.05187">
        <ele>971.40002441406</ele>
        <time>2013-12-08T09:44:24.000Z</time>
      </trkpt>
      <trkpt lat="43.75381" lon="7.05165">
        <ele>971.59997558594</ele>
        <time>2013-12-08T09:44:30.000Z</time>
      </trkpt>
      <trkpt lat="43.75395" lon="7.05143">
        <ele>972</ele>
        <time>2013-12-08T09:44:34.000Z</time>
      </trkpt>
      <trkpt lat="43.75399" lon="7.0514">
        <ele>972.20001220703</ele>
        <time>2013-12-08T09:44:35.000Z</time>
      </trkpt>
      <trkpt lat="43.75407" lon="7.05138">
        <ele>972.20001220703</ele>
        <time>2013-12-08T09:44:37.000Z</time>
      </trkpt>
      <trkpt lat="43.75414" lon="7.05138">
        <ele>972.40002441406</ele>
        <time>2013-12-08T09:44:39.000Z</time>
      </trkpt>
      <trkpt lat="43.75417" lon="7.05137">
        <ele>972.40002441406</ele>
        <time>2013-12-08T09:44:40.000Z</time>
      </trkpt>
      <trkpt lat="43.75422" lon="7.05134">
        <ele>972.20001220703</ele>
        <time>2013-12-08T09:44:42.000Z</time>
      </trkpt>
      <trkpt lat="43.75435" lon="7.05114">
        <ele>971.79998779297</ele>
        <time>2013-12-08T09:44:48.000Z</time>
      </trkpt>
      <trkpt lat="43.75437" lon="7.05105">
        <ele>971.79998779297</ele>
        <time>2013-12-08T09:44:50.000Z</time>
      </trkpt>
      <trkpt lat="43.75443" lon="7.05093">
        <ele>971.59997558594</ele>
        <time>2013-12-08T09:44:54.000Z</time>
      </trkpt>
      <trkpt lat="43.7545" lon="7.05071">
        <ele>971.59997558594</ele>
        <time>2013-12-08T09:44:59.000Z</time>
      </trkpt>
      <trkpt lat="43.75454" lon="7.05031">
        <ele>972</ele>
        <time>2013-12-08T09:45:06.000Z</time>
      </trkpt>
      <trkpt lat="43.7546" lon="7.04996">
        <ele>972.40002441406</ele>
        <time>2013-12-08T09:45:13.000Z</time>
      </trkpt>
      <trkpt lat="43.75468" lon="7.04979">
        <ele>971.79998779297</ele>
        <time>2013-12-08T09:45:17.000Z</time>
      </trkpt>
      <trkpt lat="43.75485" lon="7.04962">
        <ele>971.20001220703</ele>
        <time>2013-12-08T09:45:24.000Z</time>
      </trkpt>
      <trkpt lat="43.75497" lon="7.04943">
        <ele>970.59997558594</ele>
        <time>2013-12-08T09:45:30.000Z</time>
      </trkpt>
      <trkpt lat="43.75503" lon="7.0491">
        <ele>969.20001220703</ele>
        <time>2013-12-08T09:45:35.000Z</time>
      </trkpt>
      <trkpt lat="43.75505" lon="7.04881">
        <ele>968</ele>
        <time>2013-12-08T09:45:39.000Z</time>
      </trkpt>
      <trkpt lat="43.75506" lon="7.04874">
        <ele>967.59997558594</ele>
        <time>2013-12-08T09:45:40.000Z</time>
      </trkpt>
      <trkpt lat="43.75513" lon="7.04854">
        <ele>966</ele>
        <time>2013-12-08T09:45:43.000Z</time>
      </trkpt>
      <trkpt lat="43.7553" lon="7.04803">
        <ele>964.59997558594</ele>
        <time>2013-12-08T09:45:50.000Z</time>
      </trkpt>
      <trkpt lat="43.7554" lon="7.04778">
        <ele>964.79998779297</ele>
        <time>2013-12-08T09:45:53.000Z</time>
      </trkpt>
      <trkpt lat="43.75547" lon="7.04763">
        <ele>964.79998779297</ele>
        <time>2013-12-08T09:45:55.000Z</time>
      </trkpt>
      <trkpt lat="43.75558" lon="7.04744">
        <ele>965</ele>
        <time>2013-12-08T09:45:58.000Z</time>
      </trkpt>
      <trkpt lat="43.75567" lon="7.04734">
        <ele>964.59997558594</ele>
        <time>2013-12-08T09:46:00.000Z</time>
      </trkpt>
      <trkpt lat="43.75571" lon="7.04729">
        <ele>964.59997558594</ele>
        <time>2013-12-08T09:46:01.000Z</time>
      </trkpt>
      <trkpt lat="43.75579" lon="7.04716">
        <ele>964.40002441406</ele>
        <time>2013-12-08T09:46:04.000Z</time>
      </trkpt>
      <trkpt lat="43.75595" lon="7.04694">
        <ele>965</ele>
        <time>2013-12-08T09:46:11.000Z</time>
      </trkpt>
      <trkpt lat="43.75608" lon="7.04678">
        <ele>965.79998779297</ele>
        <time>2013-12-08T09:46:17.000Z</time>
      </trkpt>
      <trkpt lat="43.75622" lon="7.04665">
        <ele>966.40002441406</ele>
        <time>2013-12-08T09:46:22.000Z</time>
      </trkpt>
      <trkpt lat="43.7564" lon="7.04649">
        <ele>967</ele>
        <time>2013-12-08T09:46:28.000Z</time>
      </trkpt>
      <trkpt lat="43.75661" lon="7.04628">
        <ele>967.79998779297</ele>
        <time>2013-12-08T09:46:36.000Z</time>
      </trkpt>
      <trkpt lat="43.75674" lon="7.04611">
        <ele>968.59997558594</ele>
        <time>2013-12-08T09:46:42.000Z</time>
      </trkpt>
      <trkpt lat="43.75695" lon="7.04589">
        <ele>970.20001220703</ele>
        <time>2013-12-08T09:46:51.000Z</time>
      </trkpt>
      <trkpt lat="43.75706" lon="7.04573">
        <ele>971</ele>
        <time>2013-12-08T09:46:57.000Z</time>
      </trkpt>
      <trkpt lat="43.75707" lon="7.0457">
        <ele>971.20001220703</ele>
        <time>2013-12-08T09:46:58.000Z</time>
      </trkpt>
      <trkpt lat="43.75713" lon="7.04563">
        <ele>971.40002441406</ele>
        <time>2013-12-08T09:47:02.000Z</time>
      </trkpt>
      <trkpt lat="43.75718" lon="7.04562">
        <ele>971.59997558594</ele>
        <time>2013-12-08T09:47:04.000Z</time>
      </trkpt>
      <trkpt lat="43.75721" lon="7.0456">
        <ele>971.79998779297</ele>
        <time>2013-12-08T09:47:06.000Z</time>
      </trkpt>
      <trkpt lat="43.75723" lon="7.04558">
        <ele>971.79998779297</ele>
        <time>2013-12-08T09:47:08.000Z</time>
      </trkpt>
      <trkpt lat="43.75725" lon="7.04553">
        <ele>971.79998779297</ele>
        <time>2013-12-08T09:47:12.000Z</time>
      </trkpt>
      <trkpt lat="43.75729" lon="7.04548">
        <ele>972</ele>
        <time>2013-12-08T09:47:21.000Z</time>
      </trkpt>
      <trkpt lat="43.75741" lon="7.04534">
        <ele>972.20001220703</ele>
        <time>2013-12-08T09:47:29.000Z</time>
      </trkpt>
      <trkpt lat="43.75744" lon="7.04531">
        <ele>972.20001220703</ele>
        <time>2013-12-08T09:47:34.000Z</time>
      </trkpt>
      <trkpt lat="43.75743" lon="7.04531">
        <ele>972.20001220703</ele>
        <time>2013-12-08T09:48:06.000Z</time>
      </trkpt>
      <trkpt lat="43.75746" lon="7.04528">
        <ele>972.20001220703</ele>
        <time>2013-12-08T09:49:09.000Z</time>
      </trkpt>
      <trkpt lat="43.75755" lon="7.04515">
        <ele>972.20001220703</ele>
        <time>2013-12-08T09:49:15.000Z</time>
      </trkpt>
      <trkpt lat="43.75774" lon="7.0449">
        <ele>972.59997558594</ele>
        <time>2013-12-08T09:49:23.000Z</time>
      </trkpt>
      <trkpt lat="43.7579" lon="7.04465">
        <ele>972.79998779297</ele>
        <time>2013-12-08T09:49:30.000Z</time>
      </trkpt>
      <trkpt lat="43.75808" lon="7.04439">
        <ele>972.59997558594</ele>
        <time>2013-12-08T09:49:37.000Z</time>
      </trkpt>
      <trkpt lat="43.75828" lon="7.04411">
        <ele>972</ele>
        <time>2013-12-08T09:49:44.000Z</time>
      </trkpt>
      <trkpt lat="43.75841" lon="7.04397">
        <ele>972</ele>
        <time>2013-12-08T09:49:48.000Z</time>
      </trkpt>
      <trkpt lat="43.75851" lon="7.04388">
        <ele>972</ele>
        <time>2013-12-08T09:49:51.000Z</time>
      </trkpt>
      <trkpt lat="43.75875" lon="7.04373">
        <ele>972</ele>
        <time>2013-12-08T09:49:58.000Z</time>
      </trkpt>
      <trkpt lat="43.75893" lon="7.04366">
        <ele>972.20001220703</ele>
        <time>2013-12-08T09:50:03.000Z</time>
      </trkpt>
      <trkpt lat="43.75923" lon="7.04355">
        <ele>972.40002441406</ele>
        <time>2013-12-08T09:50:11.000Z</time>
      </trkpt>
      <trkpt lat="43.7595" lon="7.04347">
        <ele>972</ele>
        <time>2013-12-08T09:50:17.000Z</time>
      </trkpt>
      <trkpt lat="43.75959" lon="7.04344">
        <ele>972</ele>
        <time>2013-12-08T09:50:19.000Z</time>
      </trkpt>
      <trkpt lat="43.75968" lon="7.04339">
        <ele>971.79998779297</ele>
        <time>2013-12-08T09:50:21.000Z</time>
      </trkpt>
      <trkpt lat="43.75972" lon="7.04336">
        <ele>971.59997558594</ele>
        <time>2013-12-08T09:50:22.000Z</time>
      </trkpt>
      <trkpt lat="43.75996" lon="7.04307">
        <ele>970.40002441406</ele>
        <time>2013-12-08T09:50:29.000Z</time>
      </trkpt>
      <trkpt lat="43.76026" lon="7.04266">
        <ele>969.40002441406</ele>
        <time>2013-12-08T09:50:37.000Z</time>
      </trkpt>
      <trkpt lat="43.76056" lon="7.04231">
        <ele>969</ele>
        <time>2013-12-08T09:50:44.000Z</time>
      </trkpt>
      <trkpt lat="43.7609" lon="7.04194">
        <ele>969.79998779297</ele>
        <time>2013-12-08T09:50:52.000Z</time>
      </trkpt>
      <trkpt lat="43.76122" lon="7.04162">
        <ele>970.40002441406</ele>
        <time>2013-12-08T09:51:00.000Z</time>
      </trkpt>
      <trkpt lat="43.76145" lon="7.04138">
        <ele>970.79998779297</ele>
        <time>2013-12-08T09:51:07.000Z</time>
      </trkpt>
      <trkpt lat="43.76166" lon="7.04114">
        <ele>971.59997558594</ele>
        <time>2013-12-08T09:51:14.000Z</time>
      </trkpt>
      <trkpt lat="43.76183" lon="7.04091">
        <ele>972</ele>
        <time>2013-12-08T09:51:19.000Z</time>
      </trkpt>
      <trkpt lat="43.76186" lon="7.04087">
        <ele>972</ele>
        <time>2013-12-08T09:51:20.000Z</time>
      </trkpt>
      <trkpt lat="43.76204" lon="7.04056">
        <ele>972.40002441406</ele>
        <time>2013-12-08T09:51:27.000Z</time>
      </trkpt>
      <trkpt lat="43.76213" lon="7.04044">
        <ele>972.40002441406</ele>
        <time>2013-12-08T09:51:30.000Z</time>
      </trkpt>
      <trkpt lat="43.76224" lon="7.04035">
        <ele>972.40002441406</ele>
        <time>2013-12-08T09:51:33.000Z</time>
      </trkpt>
      <trkpt lat="43.76236" lon="7.04031">
        <ele>972.20001220703</ele>
        <time>2013-12-08T09:51:36.000Z</time>
      </trkpt>
      <trkpt lat="43.76247" lon="7.04026">
        <ele>972</ele>
        <time>2013-12-08T09:51:39.000Z</time>
      </trkpt>
      <trkpt lat="43.7626" lon="7.04019">
        <ele>971.79998779297</ele>
        <time>2013-12-08T09:51:42.000Z</time>
      </trkpt>
      <trkpt lat="43.76274" lon="7.0401">
        <ele>971.59997558594</ele>
        <time>2013-12-08T09:51:45.000Z</time>
      </trkpt>
      <trkpt lat="43.76278" lon="7.04007">
        <ele>971.40002441406</ele>
        <time>2013-12-08T09:51:46.000Z</time>
      </trkpt>
      <trkpt lat="43.76304" lon="7.03983">
        <ele>970.20001220703</ele>
        <time>2013-12-08T09:51:52.000Z</time>
      </trkpt>
      <trkpt lat="43.76344" lon="7.0394">
        <ele>968.20001220703</ele>
        <time>2013-12-08T09:52:02.000Z</time>
      </trkpt>
      <trkpt lat="43.76348" lon="7.03935">
        <ele>968.20001220703</ele>
        <time>2013-12-08T09:52:03.000Z</time>
      </trkpt>
      <trkpt lat="43.7636" lon="7.03916">
        <ele>968</ele>
        <time>2013-12-08T09:52:07.000Z</time>
      </trkpt>
      <trkpt lat="43.76367" lon="7.03889">
        <ele>968.20001220703</ele>
        <time>2013-12-08T09:52:12.000Z</time>
      </trkpt>
      <trkpt lat="43.76369" lon="7.03884">
        <ele>968.40002441406</ele>
        <time>2013-12-08T09:52:13.000Z</time>
      </trkpt>
      <trkpt lat="43.76376" lon="7.03872">
        <ele>968.59997558594</ele>
        <time>2013-12-08T09:52:16.000Z</time>
      </trkpt>
      <trkpt lat="43.76379" lon="7.03869">
        <ele>968.59997558594</ele>
        <time>2013-12-08T09:52:17.000Z</time>
      </trkpt>
      <trkpt lat="43.76382" lon="7.03867">
        <ele>968.59997558594</ele>
        <time>2013-12-08T09:52:18.000Z</time>
      </trkpt>
      <trkpt lat="43.76397" lon="7.03858">
        <ele>969</ele>
        <time>2013-12-08T09:52:22.000Z</time>
      </trkpt>
      <trkpt lat="43.76419" lon="7.0385">
        <ele>969.40002441406</ele>
        <time>2013-12-08T09:52:28.000Z</time>
      </trkpt>
      <trkpt lat="43.76436" lon="7.03844">
        <ele>971.20001220703</ele>
        <time>2013-12-08T09:52:34.000Z</time>
      </trkpt>
      <trkpt lat="43.76435" lon="7.03832">
        <ele>971</ele>
        <time>2013-12-08T09:52:37.000Z</time>
      </trkpt>
      <trkpt lat="43.76431" lon="7.03796">
        <ele>969.40002441406</ele>
        <time>2013-12-08T09:52:44.000Z</time>
      </trkpt>
      <trkpt lat="43.76428" lon="7.03779">
        <ele>968.40002441406</ele>
        <time>2013-12-08T09:52:49.000Z</time>
      </trkpt>
      <trkpt lat="43.7642" lon="7.03765">
        <ele>967</ele>
        <time>2013-12-08T09:52:54.000Z</time>
      </trkpt>
      <trkpt lat="43.76407" lon="7.03749">
        <ele>966.20001220703</ele>
        <time>2013-12-08T09:52:59.000Z</time>
      </trkpt>
      <trkpt lat="43.764" lon="7.03718">
        <ele>964.79998779297</ele>
        <time>2013-12-08T09:53:03.000Z</time>
      </trkpt>
      <trkpt lat="43.76393" lon="7.03692">
        <ele>963.59997558594</ele>
        <time>2013-12-08T09:53:06.000Z</time>
      </trkpt>
      <trkpt lat="43.76389" lon="7.03686">
        <ele>963.40002441406</ele>
        <time>2013-12-08T09:53:07.000Z</time>
      </trkpt>
      <trkpt lat="43.76367" lon="7.03663">
        <ele>962.40002441406</ele>
        <time>2013-12-08T09:53:11.000Z</time>
      </trkpt>
      <trkpt lat="43.76362" lon="7.03655">
        <ele>962</ele>
        <time>2013-12-08T09:53:12.000Z</time>
      </trkpt>
      <trkpt lat="43.76344" lon="7.03636">
        <ele>960.59997558594</ele>
        <time>2013-12-08T09:53:15.000Z</time>
      </trkpt>
      <trkpt lat="43.7633" lon="7.03623">
        <ele>959.20001220703</ele>
        <time>2013-12-08T09:53:18.000Z</time>
      </trkpt>
      <trkpt lat="43.76321" lon="7.03618">
        <ele>958.40002441406</ele>
        <time>2013-12-08T09:53:20.000Z</time>
      </trkpt>
      <trkpt lat="43.76305" lon="7.03607">
        <ele>956.79998779297</ele>
        <time>2013-12-08T09:53:24.000Z</time>
      </trkpt>
      <trkpt lat="43.76281" lon="7.03584">
        <ele>954.20001220703</ele>
        <time>2013-12-08T09:53:29.000Z</time>
      </trkpt>
      <trkpt lat="43.76276" lon="7.03578">
        <ele>954</ele>
        <time>2013-12-08T09:53:30.000Z</time>
      </trkpt>
      <trkpt lat="43.76264" lon="7.03563">
        <ele>953.20001220703</ele>
        <time>2013-12-08T09:53:33.000Z</time>
      </trkpt>
      <trkpt lat="43.76246" lon="7.03548">
        <ele>952</ele>
        <time>2013-12-08T09:53:37.000Z</time>
      </trkpt>
      <trkpt lat="43.76242" lon="7.03543">
        <ele>951.79998779297</ele>
        <time>2013-12-08T09:53:38.000Z</time>
      </trkpt>
      <trkpt lat="43.76224" lon="7.03532">
        <ele>950.59997558594</ele>
        <time>2013-12-08T09:53:42.000Z</time>
      </trkpt>
      <trkpt lat="43.76207" lon="7.03509">
        <ele>949.20001220703</ele>
        <time>2013-12-08T09:53:46.000Z</time>
      </trkpt>
      <trkpt lat="43.76203" lon="7.03501">
        <ele>948.79998779297</ele>
        <time>2013-12-08T09:53:47.000Z</time>
      </trkpt>
      <trkpt lat="43.76197" lon="7.03489">
        <ele>948.79998779297</ele>
        <time>2013-12-08T09:53:49.000Z</time>
      </trkpt>
      <trkpt lat="43.76194" lon="7.03486">
        <ele>948.59997558594</ele>
        <time>2013-12-08T09:53:50.000Z</time>
      </trkpt>
      <trkpt lat="43.76187" lon="7.0348">
        <ele>948.20001220703</ele>
        <time>2013-12-08T09:53:53.000Z</time>
      </trkpt>
      <trkpt lat="43.76182" lon="7.03477">
        <ele>948</ele>
        <time>2013-12-08T09:53:55.000Z</time>
      </trkpt>
      <trkpt lat="43.7617" lon="7.03465">
        <ele>947.20001220703</ele>
        <time>2013-12-08T09:54:01.000Z</time>
      </trkpt>
      <trkpt lat="43.76154" lon="7.03442">
        <ele>946.40002441406</ele>
        <time>2013-12-08T09:54:05.000Z</time>
      </trkpt>
      <trkpt lat="43.76138" lon="7.03415">
        <ele>945.40002441406</ele>
        <time>2013-12-08T09:54:09.000Z</time>
      </trkpt>
      <trkpt lat="43.76134" lon="7.03409">
        <ele>945.59997558594</ele>
        <time>2013-12-08T09:54:10.000Z</time>
      </trkpt>
      <trkpt lat="43.76121" lon="7.03375">
        <ele>947.20001220703</ele>
        <time>2013-12-08T09:54:15.000Z</time>
      </trkpt>
      <trkpt lat="43.76108" lon="7.03343">
        <ele>947.59997558594</ele>
        <time>2013-12-08T09:54:20.000Z</time>
      </trkpt>
      <trkpt lat="43.76104" lon="7.03338">
        <ele>947.59997558594</ele>
        <time>2013-12-08T09:54:21.000Z</time>
      </trkpt>
      <trkpt lat="43.76088" lon="7.03311">
        <ele>947.79998779297</ele>
        <time>2013-12-08T09:54:27.000Z</time>
      </trkpt>
      <trkpt lat="43.76078" lon="7.03297">
        <ele>948</ele>
        <time>2013-12-08T09:54:31.000Z</time>
      </trkpt>
      <trkpt lat="43.76072" lon="7.03292">
        <ele>947.79998779297</ele>
        <time>2013-12-08T09:54:33.000Z</time>
      </trkpt>
      <trkpt lat="43.76053" lon="7.03277">
        <ele>947</ele>
        <time>2013-12-08T09:54:38.000Z</time>
      </trkpt>
      <trkpt lat="43.76032" lon="7.03248">
        <ele>945.59997558594</ele>
        <time>2013-12-08T09:54:44.000Z</time>
      </trkpt>
      <trkpt lat="43.76023" lon="7.03234">
        <ele>944.59997558594</ele>
        <time>2013-12-08T09:54:47.000Z</time>
      </trkpt>
      <trkpt lat="43.76017" lon="7.03225">
        <ele>943.79998779297</ele>
        <time>2013-12-08T09:54:49.000Z</time>
      </trkpt>
      <trkpt lat="43.76013" lon="7.03221">
        <ele>943.40002441406</ele>
        <time>2013-12-08T09:54:50.000Z</time>
      </trkpt>
      <trkpt lat="43.76003" lon="7.03198">
        <ele>942</ele>
        <time>2013-12-08T09:54:54.000Z</time>
      </trkpt>
      <trkpt lat="43.76001" lon="7.03191">
        <ele>942</ele>
        <time>2013-12-08T09:54:55.000Z</time>
      </trkpt>
      <trkpt lat="43.76001" lon="7.03172">
        <ele>942.20001220703</ele>
        <time>2013-12-08T09:54:58.000Z</time>
      </trkpt>
      <trkpt lat="43.75996" lon="7.03151">
        <ele>942.59997558594</ele>
        <time>2013-12-08T09:55:02.000Z</time>
      </trkpt>
      <trkpt lat="43.75993" lon="7.03147">
        <ele>942.59997558594</ele>
        <time>2013-12-08T09:55:03.000Z</time>
      </trkpt>
      <trkpt lat="43.75981" lon="7.03125">
        <ele>942.59997558594</ele>
        <time>2013-12-08T09:55:09.000Z</time>
      </trkpt>
      <trkpt lat="43.75965" lon="7.03102">
        <ele>942</ele>
        <time>2013-12-08T09:55:15.000Z</time>
      </trkpt>
      <trkpt lat="43.75957" lon="7.03077">
        <ele>942</ele>
        <time>2013-12-08T09:55:21.000Z</time>
      </trkpt>
      <trkpt lat="43.75954" lon="7.03058">
        <ele>941.79998779297</ele>
        <time>2013-12-08T09:55:25.000Z</time>
      </trkpt>
      <trkpt lat="43.75939" lon="7.03046">
        <ele>940</ele>
        <time>2013-12-08T09:55:29.000Z</time>
      </trkpt>
      <trkpt lat="43.75929" lon="7.03033">
        <ele>938.79998779297</ele>
        <time>2013-12-08T09:55:32.000Z</time>
      </trkpt>
      <trkpt lat="43.75926" lon="7.03027">
        <ele>938.40002441406</ele>
        <time>2013-12-08T09:55:33.000Z</time>
      </trkpt>
      <trkpt lat="43.75914" lon="7.03002">
        <ele>936.79998779297</ele>
        <time>2013-12-08T09:55:37.000Z</time>
      </trkpt>
      <trkpt lat="43.75907" lon="7.02993">
        <ele>936.79998779297</ele>
        <time>2013-12-08T09:55:39.000Z</time>
      </trkpt>
      <trkpt lat="43.75904" lon="7.02988">
        <ele>936.79998779297</ele>
        <time>2013-12-08T09:55:40.000Z</time>
      </trkpt>
      <trkpt lat="43.75898" lon="7.0297">
        <ele>937.40002441406</ele>
        <time>2013-12-08T09:55:43.000Z</time>
      </trkpt>
      <trkpt lat="43.75889" lon="7.02939">
        <ele>938.20001220703</ele>
        <time>2013-12-08T09:55:48.000Z</time>
      </trkpt>
      <trkpt lat="43.75886" lon="7.02934">
        <ele>938.40002441406</ele>
        <time>2013-12-08T09:55:49.000Z</time>
      </trkpt>
      <trkpt lat="43.75878" lon="7.02922">
        <ele>938.40002441406</ele>
        <time>2013-12-08T09:55:52.000Z</time>
      </trkpt>
      <trkpt lat="43.75873" lon="7.02917">
        <ele>938.40002441406</ele>
        <time>2013-12-08T09:55:54.000Z</time>
      </trkpt>
      <trkpt lat="43.75854" lon="7.02895">
        <ele>938.20001220703</ele>
        <time>2013-12-08T09:56:01.000Z</time>
      </trkpt>
      <trkpt lat="43.75845" lon="7.02874">
        <ele>938.79998779297</ele>
        <time>2013-12-08T09:56:06.000Z</time>
      </trkpt>
      <trkpt lat="43.75833" lon="7.02854">
        <ele>939</ele>
        <time>2013-12-08T09:56:11.000Z</time>
      </trkpt>
      <trkpt lat="43.75821" lon="7.02833">
        <ele>939.79998779297</ele>
        <time>2013-12-08T09:56:16.000Z</time>
      </trkpt>
      <trkpt lat="43.7581" lon="7.02803">
        <ele>940</ele>
        <time>2013-12-08T09:56:22.000Z</time>
      </trkpt>
      <trkpt lat="43.758" lon="7.02774">
        <ele>940</ele>
        <time>2013-12-08T09:56:29.000Z</time>
      </trkpt>
      <trkpt lat="43.75791" lon="7.02755">
        <ele>940</ele>
        <time>2013-12-08T09:56:35.000Z</time>
      </trkpt>
      <trkpt lat="43.75789" lon="7.02754">
        <ele>940</ele>
        <time>2013-12-08T09:56:36.000Z</time>
      </trkpt>
      <trkpt lat="43.75775" lon="7.02738">
        <ele>939.59997558594</ele>
        <time>2013-12-08T09:56:44.000Z</time>
      </trkpt>
      <trkpt lat="43.75768" lon="7.02718">
        <ele>939.59997558594</ele>
        <time>2013-12-08T09:56:51.000Z</time>
      </trkpt>
      <trkpt lat="43.75757" lon="7.027">
        <ele>939.59997558594</ele>
        <time>2013-12-08T09:56:57.000Z</time>
      </trkpt>
      <trkpt lat="43.75749" lon="7.02672">
        <ele>940</ele>
        <time>2013-12-08T09:57:03.000Z</time>
      </trkpt>
      <trkpt lat="43.75742" lon="7.02649">
        <ele>940</ele>
        <time>2013-12-08T09:57:09.000Z</time>
      </trkpt>
      <trkpt lat="43.75723" lon="7.02625">
        <ele>940.40002441406</ele>
        <time>2013-12-08T09:57:17.000Z</time>
      </trkpt>
      <trkpt lat="43.757" lon="7.02599">
        <ele>940.79998779297</ele>
        <time>2013-12-08T09:57:26.000Z</time>
      </trkpt>
      <trkpt lat="43.7568" lon="7.02578">
        <ele>941.20001220703</ele>
        <time>2013-12-08T09:57:34.000Z</time>
      </trkpt>
      <trkpt lat="43.75655" lon="7.02557">
        <ele>941.59997558594</ele>
        <time>2013-12-08T09:57:43.000Z</time>
      </trkpt>
      <trkpt lat="43.75632" lon="7.02544">
        <ele>942.79998779297</ele>
        <time>2013-12-08T09:57:51.000Z</time>
      </trkpt>
      <trkpt lat="43.7561" lon="7.02526">
        <ele>943.59997558594</ele>
        <time>2013-12-08T09:57:59.000Z</time>
      </trkpt>
      <trkpt lat="43.7559" lon="7.02506">
        <ele>943.79998779297</ele>
        <time>2013-12-08T09:58:07.000Z</time>
      </trkpt>
      <trkpt lat="43.75569" lon="7.02489">
        <ele>944.20001220703</ele>
        <time>2013-12-08T09:58:16.000Z</time>
      </trkpt>
      <trkpt lat="43.75555" lon="7.02486">
        <ele>944.59997558594</ele>
        <time>2013-12-08T09:58:21.000Z</time>
      </trkpt>
      <trkpt lat="43.7554" lon="7.02484">
        <ele>945.20001220703</ele>
        <time>2013-12-08T09:58:27.000Z</time>
      </trkpt>
      <trkpt lat="43.75527" lon="7.02471">
        <ele>945.20001220703</ele>
        <time>2013-12-08T09:58:32.000Z</time>
      </trkpt>
      <trkpt lat="43.75513" lon="7.02464">
        <ele>945.59997558594</ele>
        <time>2013-12-08T09:58:37.000Z</time>
      </trkpt>
      <trkpt lat="43.75491" lon="7.02455">
        <ele>945.79998779297</ele>
        <time>2013-12-08T09:58:45.000Z</time>
      </trkpt>
      <trkpt lat="43.75477" lon="7.02439">
        <ele>945.40002441406</ele>
        <time>2013-12-08T09:58:50.000Z</time>
      </trkpt>
      <trkpt lat="43.75459" lon="7.02425">
        <ele>945.20001220703</ele>
        <time>2013-12-08T09:58:55.000Z</time>
      </trkpt>
      <trkpt lat="43.75445" lon="7.02412">
        <ele>944.79998779297</ele>
        <time>2013-12-08T09:58:59.000Z</time>
      </trkpt>
      <trkpt lat="43.75442" lon="7.02408">
        <ele>944.79998779297</ele>
        <time>2013-12-08T09:59:00.000Z</time>
      </trkpt>
      <trkpt lat="43.75433" lon="7.02397">
        <ele>944.40002441406</ele>
        <time>2013-12-08T09:59:03.000Z</time>
      </trkpt>
      <trkpt lat="43.75429" lon="7.02388">
        <ele>944.20001220703</ele>
        <time>2013-12-08T09:59:05.000Z</time>
      </trkpt>
      <trkpt lat="43.75427" lon="7.02384">
        <ele>944.20001220703</ele>
        <time>2013-12-08T09:59:06.000Z</time>
      </trkpt>
      <trkpt lat="43.75421" lon="7.0237">
        <ele>943.79998779297</ele>
        <time>2013-12-08T09:59:09.000Z</time>
      </trkpt>
      <trkpt lat="43.75412" lon="7.02358">
        <ele>943.79998779297</ele>
        <time>2013-12-08T09:59:12.000Z</time>
      </trkpt>
      <trkpt lat="43.75409" lon="7.02355">
        <ele>944</ele>
        <time>2013-12-08T09:59:13.000Z</time>
      </trkpt>
      <trkpt lat="43.75399" lon="7.02342">
        <ele>944.20001220703</ele>
        <time>2013-12-08T09:59:18.000Z</time>
      </trkpt>
      <trkpt lat="43.75396" lon="7.02321">
        <ele>944</ele>
        <time>2013-12-08T09:59:23.000Z</time>
      </trkpt>
      <trkpt lat="43.75386" lon="7.02297">
        <ele>944.20001220703</ele>
        <time>2013-12-08T09:59:29.000Z</time>
      </trkpt>
      <trkpt lat="43.75376" lon="7.02265">
        <ele>944.20001220703</ele>
        <time>2013-12-08T09:59:35.000Z</time>
      </trkpt>
      <trkpt lat="43.75373" lon="7.02243">
        <ele>944</ele>
        <time>2013-12-08T09:59:39.000Z</time>
      </trkpt>
      <trkpt lat="43.75374" lon="7.02236">
        <ele>943.79998779297</ele>
        <time>2013-12-08T09:59:40.000Z</time>
      </trkpt>
      <trkpt lat="43.75378" lon="7.02201">
        <ele>943</ele>
        <time>2013-12-08T09:59:45.000Z</time>
      </trkpt>
      <trkpt lat="43.75377" lon="7.02194">
        <ele>942.79998779297</ele>
        <time>2013-12-08T09:59:46.000Z</time>
      </trkpt>
      <trkpt lat="43.75373" lon="7.02162">
        <ele>942.59997558594</ele>
        <time>2013-12-08T09:59:50.000Z</time>
      </trkpt>
      <trkpt lat="43.7537" lon="7.02141">
        <ele>942.40002441406</ele>
        <time>2013-12-08T09:59:53.000Z</time>
      </trkpt>
      <trkpt lat="43.75365" lon="7.02124">
        <ele>942.40002441406</ele>
        <time>2013-12-08T09:59:56.000Z</time>
      </trkpt>
      <trkpt lat="43.75364" lon="7.02119">
        <ele>942.40002441406</ele>
        <time>2013-12-08T09:59:57.000Z</time>
      </trkpt>
      <trkpt lat="43.75359" lon="7.02097">
        <ele>942.20001220703</ele>
        <time>2013-12-08T10:00:01.000Z</time>
      </trkpt>
      <trkpt lat="43.75354" lon="7.02075">
        <ele>942.20001220703</ele>
        <time>2013-12-08T10:00:05.000Z</time>
      </trkpt>
      <trkpt lat="43.75353" lon="7.0207">
        <ele>942.20001220703</ele>
        <time>2013-12-08T10:00:06.000Z</time>
      </trkpt>
      <trkpt lat="43.75352" lon="7.0206">
        <ele>942.40002441406</ele>
        <time>2013-12-08T10:00:08.000Z</time>
      </trkpt>
      <trkpt lat="43.75351" lon="7.02041">
        <ele>942.79998779297</ele>
        <time>2013-12-08T10:00:12.000Z</time>
      </trkpt>
      <trkpt lat="43.75345" lon="7.01998">
        <ele>943.79998779297</ele>
        <time>2013-12-08T10:00:21.000Z</time>
      </trkpt>
      <trkpt lat="43.75343" lon="7.01963">
        <ele>944.20001220703</ele>
        <time>2013-12-08T10:00:28.000Z</time>
      </trkpt>
      <trkpt lat="43.75341" lon="7.01927">
        <ele>944.59997558594</ele>
        <time>2013-12-08T10:00:36.000Z</time>
      </trkpt>
      <trkpt lat="43.75347" lon="7.01902">
        <ele>944.59997558594</ele>
        <time>2013-12-08T10:00:42.000Z</time>
      </trkpt>
      <trkpt lat="43.75351" lon="7.01885">
        <ele>944.59997558594</ele>
        <time>2013-12-08T10:00:46.000Z</time>
      </trkpt>
      <trkpt lat="43.75354" lon="7.01861">
        <ele>944.59997558594</ele>
        <time>2013-12-08T10:00:52.000Z</time>
      </trkpt>
      <trkpt lat="43.75354" lon="7.0185">
        <ele>944.59997558594</ele>
        <time>2013-12-08T10:00:57.000Z</time>
      </trkpt>
      <trkpt lat="43.75352" lon="7.01847">
        <ele>944.59997558594</ele>
        <time>2013-12-08T10:01:00.000Z</time>
      </trkpt>
      <trkpt lat="43.7535" lon="7.01846">
        <ele>944.59997558594</ele>
        <time>2013-12-08T10:01:02.000Z</time>
      </trkpt>
      <trkpt lat="43.75348" lon="7.01845">
        <ele>944.59997558594</ele>
        <time>2013-12-08T10:01:10.000Z</time>
      </trkpt>
      <trkpt lat="43.75349" lon="7.01844">
        <ele>944.59997558594</ele>
        <time>2013-12-08T10:01:32.000Z</time>
      </trkpt>
      <trkpt lat="43.75348" lon="7.01844">
        <ele>944.59997558594</ele>
        <time>2013-12-08T10:01:36.000Z</time>
      </trkpt>
      <trkpt lat="43.75345" lon="7.01843">
        <ele>944.79998779297</ele>
        <time>2013-12-08T10:01:40.000Z</time>
      </trkpt>
      <trkpt lat="43.75348" lon="7.01838">
        <ele>944.59997558594</ele>
        <time>2013-12-08T10:02:25.000Z</time>
      </trkpt>
      <trkpt lat="43.75346" lon="7.0184">
        <ele>944.59997558594</ele>
        <time>2013-12-08T10:03:09.000Z</time>
      </trkpt>
      <trkpt lat="43.75348" lon="7.01843">
        <ele>944.59997558594</ele>
        <time>2013-12-08T10:04:15.000Z</time>
      </trkpt>
      <trkpt lat="43.75338" lon="7.01839">
        <ele>944.79998779297</ele>
        <time>2013-12-08T10:05:38.000Z</time>
      </trkpt>
      <trkpt lat="43.75326" lon="7.01844">
        <ele>945.59997558594</ele>
        <time>2013-12-08T10:05:46.000Z</time>
      </trkpt>
      <trkpt lat="43.75314" lon="7.01844">
        <ele>946.79998779297</ele>
        <time>2013-12-08T10:05:53.000Z</time>
      </trkpt>
      <trkpt lat="43.75299" lon="7.01843">
        <ele>948.20001220703</ele>
        <time>2013-12-08T10:06:03.000Z</time>
      </trkpt>
      <trkpt lat="43.75285" lon="7.01839">
        <ele>949.59997558594</ele>
        <time>2013-12-08T10:06:12.000Z</time>
      </trkpt>
      <trkpt lat="43.75272" lon="7.01837">
        <ele>950.79998779297</ele>
        <time>2013-12-08T10:06:21.000Z</time>
      </trkpt>
      <trkpt lat="43.75259" lon="7.01835">
        <ele>952.20001220703</ele>
        <time>2013-12-08T10:06:31.000Z</time>
      </trkpt>
      <trkpt lat="43.75252" lon="7.01835">
        <ele>952.79998779297</ele>
        <time>2013-12-08T10:06:37.000Z</time>
      </trkpt>
      <trkpt lat="43.75241" lon="7.0183">
        <ele>954.40002441406</ele>
        <time>2013-12-08T10:06:45.000Z</time>
      </trkpt>
      <trkpt lat="43.75231" lon="7.01826">
        <ele>956</ele>
        <time>2013-12-08T10:06:52.000Z</time>
      </trkpt>
      <trkpt lat="43.7523" lon="7.01825">
        <ele>956.20001220703</ele>
        <time>2013-12-08T10:06:53.000Z</time>
      </trkpt>
      <trkpt lat="43.75223" lon="7.01825">
        <ele>957.40002441406</ele>
        <time>2013-12-08T10:06:58.000Z</time>
      </trkpt>
      <trkpt lat="43.75221" lon="7.01824">
        <ele>957.79998779297</ele>
        <time>2013-12-08T10:07:00.000Z</time>
      </trkpt>
      <trkpt lat="43.75211" lon="7.01819">
        <ele>959.20001220703</ele>
        <time>2013-12-08T10:07:06.000Z</time>
      </trkpt>
      <trkpt lat="43.75203" lon="7.01814">
        <ele>960.59997558594</ele>
        <time>2013-12-08T10:07:13.000Z</time>
      </trkpt>
      <trkpt lat="43.75194" lon="7.01808">
        <ele>962.20001220703</ele>
        <time>2013-12-08T10:07:20.000Z</time>
      </trkpt>
      <trkpt lat="43.75183" lon="7.01804">
        <ele>964.40002441406</ele>
        <time>2013-12-08T10:07:29.000Z</time>
      </trkpt>
      <trkpt lat="43.75174" lon="7.01803">
        <ele>966.20001220703</ele>
        <time>2013-12-08T10:07:36.000Z</time>
      </trkpt>
      <trkpt lat="43.75163" lon="7.01803">
        <ele>968.40002441406</ele>
        <time>2013-12-08T10:07:44.000Z</time>
      </trkpt>
      <trkpt lat="43.7515" lon="7.01798">
        <ele>969.40002441406</ele>
        <time>2013-12-08T10:07:53.000Z</time>
      </trkpt>
      <trkpt lat="43.75139" lon="7.01794">
        <ele>970.20001220703</ele>
        <time>2013-12-08T10:08:02.000Z</time>
      </trkpt>
      <trkpt lat="43.75127" lon="7.01792">
        <ele>971</ele>
        <time>2013-12-08T10:08:11.000Z</time>
      </trkpt>
      <trkpt lat="43.75116" lon="7.01794">
        <ele>972.40002441406</ele>
        <time>2013-12-08T10:08:20.000Z</time>
      </trkpt>
      <trkpt lat="43.75107" lon="7.01796">
        <ele>973.20001220703</ele>
        <time>2013-12-08T10:08:26.000Z</time>
      </trkpt>
      <trkpt lat="43.75098" lon="7.01801">
        <ele>974.59997558594</ele>
        <time>2013-12-08T10:08:34.000Z</time>
      </trkpt>
      <trkpt lat="43.75089" lon="7.0181">
        <ele>976.59997558594</ele>
        <time>2013-12-08T10:08:44.000Z</time>
      </trkpt>
      <trkpt lat="43.75082" lon="7.01821">
        <ele>978.79998779297</ele>
        <time>2013-12-08T10:08:53.000Z</time>
      </trkpt>
      <trkpt lat="43.75072" lon="7.01832">
        <ele>981.79998779297</ele>
        <time>2013-12-08T10:09:03.000Z</time>
      </trkpt>
      <trkpt lat="43.75062" lon="7.01834">
        <ele>983.59997558594</ele>
        <time>2013-12-08T10:09:10.000Z</time>
      </trkpt>
      <trkpt lat="43.75059" lon="7.01837">
        <ele>984.20001220703</ele>
        <time>2013-12-08T10:09:13.000Z</time>
      </trkpt>
      <trkpt lat="43.75058" lon="7.01842">
        <ele>984.40002441406</ele>
        <time>2013-12-08T10:09:16.000Z</time>
      </trkpt>
      <trkpt lat="43.75054" lon="7.01848">
        <ele>985.40002441406</ele>
        <time>2013-12-08T10:09:22.000Z</time>
      </trkpt>
      <trkpt lat="43.75051" lon="7.0185">
        <ele>986</ele>
        <time>2013-12-08T10:09:25.000Z</time>
      </trkpt>
      <trkpt lat="43.75047" lon="7.01851">
        <ele>986.59997558594</ele>
        <time>2013-12-08T10:09:28.000Z</time>
      </trkpt>
      <trkpt lat="43.75044" lon="7.0185">
        <ele>987</ele>
        <time>2013-12-08T10:09:30.000Z</time>
      </trkpt>
      <trkpt lat="43.75043" lon="7.01851">
        <ele>987.40002441406</ele>
        <time>2013-12-08T10:09:31.000Z</time>
      </trkpt>
      <trkpt lat="43.75043" lon="7.01851">
        <ele>987.40002441406</ele>
        <time>2013-12-08T10:09:33.000Z</time>
      </trkpt>
      <trkpt lat="43.75038" lon="7.01851">
        <ele>988.20001220703</ele>
        <time>2013-12-08T10:09:40.000Z</time>
      </trkpt>
      <trkpt lat="43.75038" lon="7.01852">
        <ele>988.40002441406</ele>
        <time>2013-12-08T10:09:50.000Z</time>
      </trkpt>
      <trkpt lat="43.75035" lon="7.01856">
        <ele>989.20001220703</ele>
        <time>2013-12-08T10:09:56.000Z</time>
      </trkpt>
      <trkpt lat="43.75031" lon="7.01857">
        <ele>990</ele>
        <time>2013-12-08T10:10:02.000Z</time>
      </trkpt>
      <trkpt lat="43.75025" lon="7.01858">
        <ele>991</ele>
        <time>2013-12-08T10:10:10.000Z</time>
      </trkpt>
      <trkpt lat="43.75019" lon="7.0186">
        <ele>992.20001220703</ele>
        <time>2013-12-08T10:10:18.000Z</time>
      </trkpt>
      <trkpt lat="43.75012" lon="7.01863">
        <ele>993.79998779297</ele>
        <time>2013-12-08T10:10:27.000Z</time>
      </trkpt>
      <trkpt lat="43.75009" lon="7.01866">
        <ele>994.59997558594</ele>
        <time>2013-12-08T10:10:32.000Z</time>
      </trkpt>
      <trkpt lat="43.75008" lon="7.01866">
        <ele>994.79998779297</ele>
        <time>2013-12-08T10:10:33.000Z</time>
      </trkpt>
      <trkpt lat="43.75005" lon="7.0187">
        <ele>995.59997558594</ele>
        <time>2013-12-08T10:10:40.000Z</time>
      </trkpt>
      <trkpt lat="43.75001" lon="7.0187">
        <ele>996.40002441406</ele>
        <time>2013-12-08T10:10:47.000Z</time>
      </trkpt>
      <trkpt lat="43.74994" lon="7.01869">
        <ele>997.40002441406</ele>
        <time>2013-12-08T10:10:52.000Z</time>
      </trkpt>
      <trkpt lat="43.74983" lon="7.01866">
        <ele>998.79998779297</ele>
        <time>2013-12-08T10:11:01.000Z</time>
      </trkpt>
      <trkpt lat="43.74975" lon="7.0187">
        <ele>1000.200012207</ele>
        <time>2013-12-08T10:11:10.000Z</time>
      </trkpt>
      <trkpt lat="43.7497" lon="7.01871">
        <ele>1001</ele>
        <time>2013-12-08T10:11:15.000Z</time>
      </trkpt>
      <trkpt lat="43.74968" lon="7.01871">
        <ele>1001.4000244141</ele>
        <time>2013-12-08T10:11:17.000Z</time>
      </trkpt>
      <trkpt lat="43.74959" lon="7.01872">
        <ele>1002.5999755859</ele>
        <time>2013-12-08T10:11:23.000Z</time>
      </trkpt>
      <trkpt lat="43.74957" lon="7.01872">
        <ele>1003</ele>
        <time>2013-12-08T10:11:25.000Z</time>
      </trkpt>
      <trkpt lat="43.74954" lon="7.01873">
        <ele>1003.4000244141</ele>
        <time>2013-12-08T10:11:28.000Z</time>
      </trkpt>
      <trkpt lat="43.74951" lon="7.01873">
        <ele>1003.799987793</ele>
        <time>2013-12-08T10:11:30.000Z</time>
      </trkpt>
      <trkpt lat="43.74944" lon="7.01877">
        <ele>1005.200012207</ele>
        <time>2013-12-08T10:11:35.000Z</time>
      </trkpt>
      <trkpt lat="43.74936" lon="7.01877">
        <ele>1006.4000244141</ele>
        <time>2013-12-08T10:11:40.000Z</time>
      </trkpt>
      <trkpt lat="43.74927" lon="7.01878">
        <ele>1007.799987793</ele>
        <time>2013-12-08T10:11:46.000Z</time>
      </trkpt>
      <trkpt lat="43.74919" lon="7.0188">
        <ele>1009.200012207</ele>
        <time>2013-12-08T10:11:52.000Z</time>
      </trkpt>
      <trkpt lat="43.74909" lon="7.01881">
        <ele>1010.5999755859</ele>
        <time>2013-12-08T10:12:00.000Z</time>
      </trkpt>
      <trkpt lat="43.74901" lon="7.01881">
        <ele>1011.799987793</ele>
        <time>2013-12-08T10:12:07.000Z</time>
      </trkpt>
      <trkpt lat="43.74896" lon="7.01882">
        <ele>1012.4000244141</ele>
        <time>2013-12-08T10:12:15.000Z</time>
      </trkpt>
      <trkpt lat="43.74894" lon="7.01883">
        <ele>1012.799987793</ele>
        <time>2013-12-08T10:12:28.000Z</time>
      </trkpt>
      <trkpt lat="43.74892" lon="7.01884">
        <ele>1013.200012207</ele>
        <time>2013-12-08T10:12:35.000Z</time>
      </trkpt>
      <trkpt lat="43.74891" lon="7.01888">
        <ele>1014</ele>
        <time>2013-12-08T10:12:40.000Z</time>
      </trkpt>
      <trkpt lat="43.74888" lon="7.01889">
        <ele>1014.5999755859</ele>
        <time>2013-12-08T10:12:47.000Z</time>
      </trkpt>
      <trkpt lat="43.74886" lon="7.01891">
        <ele>1015.200012207</ele>
        <time>2013-12-08T10:12:52.000Z</time>
      </trkpt>
      <trkpt lat="43.74884" lon="7.01896">
        <ele>1016.4000244141</ele>
        <time>2013-12-08T10:13:09.000Z</time>
      </trkpt>
      <trkpt lat="43.74879" lon="7.01894">
        <ele>1016.5999755859</ele>
        <time>2013-12-08T10:16:29.000Z</time>
      </trkpt>
      <trkpt lat="43.74873" lon="7.01899">
        <ele>1018.4000244141</ele>
        <time>2013-12-08T10:16:36.000Z</time>
      </trkpt>
      <trkpt lat="43.74868" lon="7.01904">
        <ele>1020.200012207</ele>
        <time>2013-12-08T10:16:44.000Z</time>
      </trkpt>
      <trkpt lat="43.74861" lon="7.0191">
        <ele>1022.5999755859</ele>
        <time>2013-12-08T10:16:53.000Z</time>
      </trkpt>
      <trkpt lat="43.74857" lon="7.01916">
        <ele>1024.4000244141</ele>
        <time>2013-12-08T10:17:01.000Z</time>
      </trkpt>
      <trkpt lat="43.74854" lon="7.01917">
        <ele>1025</ele>
        <time>2013-12-08T10:17:04.000Z</time>
      </trkpt>
      <trkpt lat="43.7485" lon="7.01919">
        <ele>1026</ele>
        <time>2013-12-08T10:17:08.000Z</time>
      </trkpt>
      <trkpt lat="43.74849" lon="7.01919">
        <ele>1026.1999511719</ele>
        <time>2013-12-08T10:17:10.000Z</time>
      </trkpt>
      <trkpt lat="43.74846" lon="7.01921">
        <ele>1027</ele>
        <time>2013-12-08T10:17:14.000Z</time>
      </trkpt>
      <trkpt lat="43.74841" lon="7.01922">
        <ele>1028</ele>
        <time>2013-12-08T10:17:19.000Z</time>
      </trkpt>
      <trkpt lat="43.74837" lon="7.01922">
        <ele>1028.8000488281</ele>
        <time>2013-12-08T10:17:25.000Z</time>
      </trkpt>
      <trkpt lat="43.74835" lon="7.01923">
        <ele>1029.4000244141</ele>
        <time>2013-12-08T10:17:31.000Z</time>
      </trkpt>
      <trkpt lat="43.74831" lon="7.01922">
        <ele>1030.1999511719</ele>
        <time>2013-12-08T10:17:38.000Z</time>
      </trkpt>
      <trkpt lat="43.74825" lon="7.0192">
        <ele>1031</ele>
        <time>2013-12-08T10:17:42.000Z</time>
      </trkpt>
      <trkpt lat="43.74814" lon="7.01919">
        <ele>1033</ele>
        <time>2013-12-08T10:17:48.000Z</time>
      </trkpt>
      <trkpt lat="43.74804" lon="7.01918">
        <ele>1034.8000488281</ele>
        <time>2013-12-08T10:17:55.000Z</time>
      </trkpt>
      <trkpt lat="43.74801" lon="7.01918">
        <ele>1035.4000244141</ele>
        <time>2013-12-08T10:18:02.000Z</time>
      </trkpt>
      <trkpt lat="43.74796" lon="7.01917">
        <ele>1036.1999511719</ele>
        <time>2013-12-08T10:18:09.000Z</time>
      </trkpt>
      <trkpt lat="43.7479" lon="7.01916">
        <ele>1037</ele>
        <time>2013-12-08T10:18:17.000Z</time>
      </trkpt>
      <trkpt lat="43.74785" lon="7.01918">
        <ele>1038.4000244141</ele>
        <time>2013-12-08T10:18:25.000Z</time>
      </trkpt>
      <trkpt lat="43.7478" lon="7.01919">
        <ele>1039.5999755859</ele>
        <time>2013-12-08T10:18:33.000Z</time>
      </trkpt>
      <trkpt lat="43.74773" lon="7.01921">
        <ele>1041.1999511719</ele>
        <time>2013-12-08T10:18:42.000Z</time>
      </trkpt>
      <trkpt lat="43.74773" lon="7.01921">
        <ele>1041.4000244141</ele>
        <time>2013-12-08T10:18:43.000Z</time>
      </trkpt>
      <trkpt lat="43.74769" lon="7.01922">
        <ele>1042.1999511719</ele>
        <time>2013-12-08T10:18:49.000Z</time>
      </trkpt>
      <trkpt lat="43.74765" lon="7.01922">
        <ele>1042.8000488281</ele>
        <time>2013-12-08T10:18:56.000Z</time>
      </trkpt>
      <trkpt lat="43.74757" lon="7.01921">
        <ele>1044.4000244141</ele>
        <time>2013-12-08T10:19:01.000Z</time>
      </trkpt>
      <trkpt lat="43.74756" lon="7.0192">
        <ele>1044.4000244141</ele>
        <time>2013-12-08T10:19:02.000Z</time>
      </trkpt>
      <trkpt lat="43.74751" lon="7.01918">
        <ele>1045</ele>
        <time>2013-12-08T10:19:07.000Z</time>
      </trkpt>
      <trkpt lat="43.74749" lon="7.01919">
        <ele>1045.4000244141</ele>
        <time>2013-12-08T10:19:12.000Z</time>
      </trkpt>
      <trkpt lat="43.74748" lon="7.0192">
        <ele>1045.8000488281</ele>
        <time>2013-12-08T10:19:13.000Z</time>
      </trkpt>
      <trkpt lat="43.74741" lon="7.01921">
        <ele>1046.5999755859</ele>
        <time>2013-12-08T10:19:19.000Z</time>
      </trkpt>
      <trkpt lat="43.74739" lon="7.01921">
        <ele>1046.8000488281</ele>
        <time>2013-12-08T10:19:20.000Z</time>
      </trkpt>
      <trkpt lat="43.74729" lon="7.01923">
        <ele>1048.1999511719</ele>
        <time>2013-12-08T10:19:27.000Z</time>
      </trkpt>
      <trkpt lat="43.7472" lon="7.01923">
        <ele>1049.1999511719</ele>
        <time>2013-12-08T10:19:33.000Z</time>
      </trkpt>
      <trkpt lat="43.7472" lon="7.01923">
        <ele>1049.1999511719</ele>
        <time>2013-12-08T10:19:34.000Z</time>
      </trkpt>
      <trkpt lat="43.74719" lon="7.01922">
        <ele>1049.1999511719</ele>
        <time>2013-12-08T10:19:40.000Z</time>
      </trkpt>
      <trkpt lat="43.74714" lon="7.01921">
        <ele>1049.4000244141</ele>
        <time>2013-12-08T10:19:47.000Z</time>
      </trkpt>
      <trkpt lat="43.74711" lon="7.01923">
        <ele>1050.1999511719</ele>
        <time>2013-12-08T10:19:53.000Z</time>
      </trkpt>
      <trkpt lat="43.74709" lon="7.01925">
        <ele>1050.8000488281</ele>
        <time>2013-12-08T10:19:59.000Z</time>
      </trkpt>
      <trkpt lat="43.74708" lon="7.01938">
        <ele>1053.4000244141</ele>
        <time>2013-12-08T10:20:05.000Z</time>
      </trkpt>
      <trkpt lat="43.74708" lon="7.01943">
        <ele>1054.5999755859</ele>
        <time>2013-12-08T10:20:07.000Z</time>
      </trkpt>
      <trkpt lat="43.74708" lon="7.01944">
        <ele>1054.8000488281</ele>
        <time>2013-12-08T10:20:09.000Z</time>
      </trkpt>
      <trkpt lat="43.74705" lon="7.01946">
        <ele>1055.5999755859</ele>
        <time>2013-12-08T10:20:15.000Z</time>
      </trkpt>
      <trkpt lat="43.74702" lon="7.01945">
        <ele>1055.8000488281</ele>
        <time>2013-12-08T10:20:21.000Z</time>
      </trkpt>
      <trkpt lat="43.74698" lon="7.01947">
        <ele>1056.8000488281</ele>
        <time>2013-12-08T10:20:28.000Z</time>
      </trkpt>
      <trkpt lat="43.74697" lon="7.0195">
        <ele>1057.5999755859</ele>
        <time>2013-12-08T10:20:33.000Z</time>
      </trkpt>
      <trkpt lat="43.74695" lon="7.01953">
        <ele>1058.4000244141</ele>
        <time>2013-12-08T10:20:39.000Z</time>
      </trkpt>
      <trkpt lat="43.74693" lon="7.01957">
        <ele>1059.5999755859</ele>
        <time>2013-12-08T10:20:42.000Z</time>
      </trkpt>
      <trkpt lat="43.74693" lon="7.01961">
        <ele>1060.5999755859</ele>
        <time>2013-12-08T10:20:45.000Z</time>
      </trkpt>
      <trkpt lat="43.74693" lon="7.01962">
        <ele>1060.8000488281</ele>
        <time>2013-12-08T10:20:46.000Z</time>
      </trkpt>
      <trkpt lat="43.74693" lon="7.01967">
        <ele>1061.8000488281</ele>
        <time>2013-12-08T10:20:51.000Z</time>
      </trkpt>
      <trkpt lat="43.74692" lon="7.01968">
        <ele>1062.1999511719</ele>
        <time>2013-12-08T10:20:53.000Z</time>
      </trkpt>
      <trkpt lat="43.74684" lon="7.0197">
        <ele>1063.8000488281</ele>
        <time>2013-12-08T10:21:00.000Z</time>
      </trkpt>
      <trkpt lat="43.74683" lon="7.01971">
        <ele>1064.1999511719</ele>
        <time>2013-12-08T10:21:01.000Z</time>
      </trkpt>
      <trkpt lat="43.7468" lon="7.01973">
        <ele>1065.1999511719</ele>
        <time>2013-12-08T10:21:06.000Z</time>
      </trkpt>
      <trkpt lat="43.74676" lon="7.01977">
        <ele>1066.5999755859</ele>
        <time>2013-12-08T10:21:12.000Z</time>
      </trkpt>
      <trkpt lat="43.74669" lon="7.01977">
        <ele>1067.8000488281</ele>
        <time>2013-12-08T10:21:19.000Z</time>
      </trkpt>
      <trkpt lat="43.7466" lon="7.01981">
        <ele>1068.4000244141</ele>
        <time>2013-12-08T10:21:27.000Z</time>
      </trkpt>
      <trkpt lat="43.74658" lon="7.01983">
        <ele>1068.8000488281</ele>
        <time>2013-12-08T10:21:30.000Z</time>
      </trkpt>
      <trkpt lat="43.74657" lon="7.01986">
        <ele>1069.4000244141</ele>
        <time>2013-12-08T10:21:33.000Z</time>
      </trkpt>
      <trkpt lat="43.74651" lon="7.01985">
        <ele>1068.4000244141</ele>
        <time>2013-12-08T10:21:39.000Z</time>
      </trkpt>
      <trkpt lat="43.74649" lon="7.01985">
        <ele>1068.1999511719</ele>
        <time>2013-12-08T10:21:40.000Z</time>
      </trkpt>
      <trkpt lat="43.74641" lon="7.01987">
        <ele>1067.5999755859</ele>
        <time>2013-12-08T10:21:48.000Z</time>
      </trkpt>
      <trkpt lat="43.7464" lon="7.01988">
        <ele>1067.8000488281</ele>
        <time>2013-12-08T10:21:49.000Z</time>
      </trkpt>
      <trkpt lat="43.74639" lon="7.01989">
        <ele>1068</ele>
        <time>2013-12-08T10:21:53.000Z</time>
      </trkpt>
      <trkpt lat="43.74639" lon="7.01993">
        <ele>1069.1999511719</ele>
        <time>2013-12-08T10:21:58.000Z</time>
      </trkpt>
      <trkpt lat="43.74639" lon="7.01995">
        <ele>1069.5999755859</ele>
        <time>2013-12-08T10:22:04.000Z</time>
      </trkpt>
      <trkpt lat="43.74639" lon="7.01996">
        <ele>1069.8000488281</ele>
        <time>2013-12-08T10:22:15.000Z</time>
      </trkpt>
      <trkpt lat="43.7464" lon="7.01999">
        <ele>1070.4000244141</ele>
        <time>2013-12-08T10:22:21.000Z</time>
      </trkpt>
      <trkpt lat="43.7464" lon="7.02002">
        <ele>1071.1999511719</ele>
        <time>2013-12-08T10:22:36.000Z</time>
      </trkpt>
      <trkpt lat="43.74639" lon="7.02003">
        <ele>1071.4000244141</ele>
        <time>2013-12-08T10:22:43.000Z</time>
      </trkpt>
      <trkpt lat="43.74638" lon="7.02005">
        <ele>1071.8000488281</ele>
        <time>2013-12-08T10:22:51.000Z</time>
      </trkpt>
      <trkpt lat="43.74637" lon="7.02008">
        <ele>1072.1999511719</ele>
        <time>2013-12-08T10:22:56.000Z</time>
      </trkpt>
      <trkpt lat="43.74636" lon="7.0201">
        <ele>1072.5999755859</ele>
        <time>2013-12-08T10:23:01.000Z</time>
      </trkpt>
      <trkpt lat="43.74637" lon="7.02013">
        <ele>1073.4000244141</ele>
        <time>2013-12-08T10:23:08.000Z</time>
      </trkpt>
      <trkpt lat="43.74636" lon="7.02016">
        <ele>1074</ele>
        <time>2013-12-08T10:23:13.000Z</time>
      </trkpt>
      <trkpt lat="43.74635" lon="7.02019">
        <ele>1074.5999755859</ele>
        <time>2013-12-08T10:23:18.000Z</time>
      </trkpt>
      <trkpt lat="43.74634" lon="7.02022">
        <ele>1075.1999511719</ele>
        <time>2013-12-08T10:23:24.000Z</time>
      </trkpt>
      <trkpt lat="43.74632" lon="7.02026">
        <ele>1076</ele>
        <time>2013-12-08T10:23:31.000Z</time>
      </trkpt>
      <trkpt lat="43.74631" lon="7.02033">
        <ele>1077.5999755859</ele>
        <time>2013-12-08T10:23:39.000Z</time>
      </trkpt>
      <trkpt lat="43.74629" lon="7.02039">
        <ele>1078.8000488281</ele>
        <time>2013-12-08T10:23:46.000Z</time>
      </trkpt>
      <trkpt lat="43.74627" lon="7.02043">
        <ele>1079.5999755859</ele>
        <time>2013-12-08T10:23:52.000Z</time>
      </trkpt>
      <trkpt lat="43.74625" lon="7.02049">
        <ele>1081</ele>
        <time>2013-12-08T10:23:58.000Z</time>
      </trkpt>
      <trkpt lat="43.74623" lon="7.02054">
        <ele>1082.1999511719</ele>
        <time>2013-12-08T10:24:04.000Z</time>
      </trkpt>
      <trkpt lat="43.74621" lon="7.02053">
        <ele>1082</ele>
        <time>2013-12-08T10:24:15.000Z</time>
      </trkpt>
      <trkpt lat="43.74617" lon="7.02059">
        <ele>1083.4000244141</ele>
        <time>2013-12-08T10:26:55.000Z</time>
      </trkpt>
      <trkpt lat="43.74618" lon="7.02067">
        <ele>1085.4000244141</ele>
        <time>2013-12-08T10:27:02.000Z</time>
      </trkpt>
      <trkpt lat="43.74618" lon="7.02069">
        <ele>1086</ele>
        <time>2013-12-08T10:27:03.000Z</time>
      </trkpt>
      <trkpt lat="43.74614" lon="7.02073">
        <ele>1086.8000488281</ele>
        <time>2013-12-08T10:27:07.000Z</time>
      </trkpt>
      <trkpt lat="43.74609" lon="7.02074">
        <ele>1087</ele>
        <time>2013-12-08T10:27:14.000Z</time>
      </trkpt>
      <trkpt lat="43.74607" lon="7.02073">
        <ele>1087</ele>
        <time>2013-12-08T10:27:19.000Z</time>
      </trkpt>
      <trkpt lat="43.74605" lon="7.02076">
        <ele>1087.8000488281</ele>
        <time>2013-12-08T10:27:25.000Z</time>
      </trkpt>
      <trkpt lat="43.74601" lon="7.0208">
        <ele>1088.8000488281</ele>
        <time>2013-12-08T10:27:33.000Z</time>
      </trkpt>
      <trkpt lat="43.74598" lon="7.02079">
        <ele>1088.5999755859</ele>
        <time>2013-12-08T10:27:40.000Z</time>
      </trkpt>
      <trkpt lat="43.74595" lon="7.02081">
        <ele>1089.1999511719</ele>
        <time>2013-12-08T10:27:45.000Z</time>
      </trkpt>
      <trkpt lat="43.74592" lon="7.02085">
        <ele>1090.1999511719</ele>
        <time>2013-12-08T10:27:51.000Z</time>
      </trkpt>
      <trkpt lat="43.7459" lon="7.02088">
        <ele>1090.8000488281</ele>
        <time>2013-12-08T10:28:01.000Z</time>
      </trkpt>
      <trkpt lat="43.74588" lon="7.02089">
        <ele>1091</ele>
        <time>2013-12-08T10:28:08.000Z</time>
      </trkpt>
      <trkpt lat="43.74586" lon="7.02091">
        <ele>1091.4000244141</ele>
        <time>2013-12-08T10:28:22.000Z</time>
      </trkpt>
      <trkpt lat="43.74584" lon="7.02093">
        <ele>1091.8000488281</ele>
        <time>2013-12-08T10:28:28.000Z</time>
      </trkpt>
      <trkpt lat="43.74583" lon="7.02097">
        <ele>1092.5999755859</ele>
        <time>2013-12-08T10:28:33.000Z</time>
      </trkpt>
      <trkpt lat="43.74579" lon="7.02101">
        <ele>1092.5999755859</ele>
        <time>2013-12-08T10:28:41.000Z</time>
      </trkpt>
      <trkpt lat="43.74575" lon="7.02106">
        <ele>1092.8000488281</ele>
        <time>2013-12-08T10:28:48.000Z</time>
      </trkpt>
      <trkpt lat="43.74573" lon="7.0211">
        <ele>1093.4000244141</ele>
        <time>2013-12-08T10:28:53.000Z</time>
      </trkpt>
      <trkpt lat="43.74571" lon="7.02116">
        <ele>1094.4000244141</ele>
        <time>2013-12-08T10:29:00.000Z</time>
      </trkpt>
      <trkpt lat="43.74567" lon="7.0212">
        <ele>1094.8000488281</ele>
        <time>2013-12-08T10:29:06.000Z</time>
      </trkpt>
      <trkpt lat="43.74566" lon="7.02126">
        <ele>1096.1999511719</ele>
        <time>2013-12-08T10:29:13.000Z</time>
      </trkpt>
      <trkpt lat="43.74564" lon="7.02134">
        <ele>1097.8000488281</ele>
        <time>2013-12-08T10:29:21.000Z</time>
      </trkpt>
      <trkpt lat="43.74562" lon="7.02141">
        <ele>1099.4000244141</ele>
        <time>2013-12-08T10:29:28.000Z</time>
      </trkpt>
      <trkpt lat="43.74559" lon="7.02148">
        <ele>1100.8000488281</ele>
        <time>2013-12-08T10:29:36.000Z</time>
      </trkpt>
      <trkpt lat="43.74557" lon="7.02152">
        <ele>1101.8000488281</ele>
        <time>2013-12-08T10:29:40.000Z</time>
      </trkpt>
      <trkpt lat="43.74555" lon="7.02155">
        <ele>1102.5999755859</ele>
        <time>2013-12-08T10:29:43.000Z</time>
      </trkpt>
      <trkpt lat="43.74553" lon="7.02159">
        <ele>1103.4000244141</ele>
        <time>2013-12-08T10:29:48.000Z</time>
      </trkpt>
      <trkpt lat="43.74552" lon="7.0216">
        <ele>1104</ele>
        <time>2013-12-08T10:29:50.000Z</time>
      </trkpt>
      <trkpt lat="43.74551" lon="7.02166">
        <ele>1105.5999755859</ele>
        <time>2013-12-08T10:29:56.000Z</time>
      </trkpt>
      <trkpt lat="43.74549" lon="7.02176">
        <ele>1107.4000244141</ele>
        <time>2013-12-08T10:30:04.000Z</time>
      </trkpt>
      <trkpt lat="43.74546" lon="7.02183">
        <ele>1109</ele>
        <time>2013-12-08T10:30:12.000Z</time>
      </trkpt>
      <trkpt lat="43.7454" lon="7.02189">
        <ele>1110.4000244141</ele>
        <time>2013-12-08T10:30:19.000Z</time>
      </trkpt>
      <trkpt lat="43.74538" lon="7.02192">
        <ele>1111.1999511719</ele>
        <time>2013-12-08T10:30:23.000Z</time>
      </trkpt>
      <trkpt lat="43.74536" lon="7.02196">
        <ele>1112</ele>
        <time>2013-12-08T10:30:27.000Z</time>
      </trkpt>
      <trkpt lat="43.74532" lon="7.02201">
        <ele>1113.4000244141</ele>
        <time>2013-12-08T10:30:35.000Z</time>
      </trkpt>
      <trkpt lat="43.74528" lon="7.02206">
        <ele>1114.8000488281</ele>
        <time>2013-12-08T10:30:42.000Z</time>
      </trkpt>
      <trkpt lat="43.74522" lon="7.02212">
        <ele>1116.4000244141</ele>
        <time>2013-12-08T10:30:50.000Z</time>
      </trkpt>
      <trkpt lat="43.74519" lon="7.02217">
        <ele>1118.1999511719</ele>
        <time>2013-12-08T10:30:57.000Z</time>
      </trkpt>
      <trkpt lat="43.74516" lon="7.02227">
        <ele>1120.8000488281</ele>
        <time>2013-12-08T10:31:07.000Z</time>
      </trkpt>
      <trkpt lat="43.74513" lon="7.02232">
        <ele>1122.4000244141</ele>
        <time>2013-12-08T10:31:14.000Z</time>
      </trkpt>
      <trkpt lat="43.74509" lon="7.02239">
        <ele>1124.5999755859</ele>
        <time>2013-12-08T10:31:23.000Z</time>
      </trkpt>
      <trkpt lat="43.74507" lon="7.02245">
        <ele>1126.8000488281</ele>
        <time>2013-12-08T10:31:31.000Z</time>
      </trkpt>
      <trkpt lat="43.74505" lon="7.02253">
        <ele>1128.8000488281</ele>
        <time>2013-12-08T10:31:39.000Z</time>
      </trkpt>
      <trkpt lat="43.74502" lon="7.0226">
        <ele>1130.4000244141</ele>
        <time>2013-12-08T10:31:48.000Z</time>
      </trkpt>
      <trkpt lat="43.74503" lon="7.02267">
        <ele>1131.4000244141</ele>
        <time>2013-12-08T10:31:55.000Z</time>
      </trkpt>
      <trkpt lat="43.745" lon="7.02272">
        <ele>1132.5999755859</ele>
        <time>2013-12-08T10:32:03.000Z</time>
      </trkpt>
      <trkpt lat="43.74499" lon="7.02279">
        <ele>1133.8000488281</ele>
        <time>2013-12-08T10:32:10.000Z</time>
      </trkpt>
      <trkpt lat="43.74494" lon="7.02281">
        <ele>1133.8000488281</ele>
        <time>2013-12-08T10:32:17.000Z</time>
      </trkpt>
      <trkpt lat="43.74492" lon="7.02283">
        <ele>1134.1999511719</ele>
        <time>2013-12-08T10:32:23.000Z</time>
      </trkpt>
      <trkpt lat="43.74488" lon="7.02289">
        <ele>1135.1999511719</ele>
        <time>2013-12-08T10:32:30.000Z</time>
      </trkpt>
      <trkpt lat="43.74486" lon="7.02293">
        <ele>1135.8000488281</ele>
        <time>2013-12-08T10:32:35.000Z</time>
      </trkpt>
      <trkpt lat="43.74485" lon="7.02296">
        <ele>1136.4000244141</ele>
        <time>2013-12-08T10:32:40.000Z</time>
      </trkpt>
      <trkpt lat="43.7448" lon="7.02302">
        <ele>1137.5999755859</ele>
        <time>2013-12-08T10:32:49.000Z</time>
      </trkpt>
      <trkpt lat="43.74476" lon="7.02307">
        <ele>1138.8000488281</ele>
        <time>2013-12-08T10:32:55.000Z</time>
      </trkpt>
      <trkpt lat="43.74473" lon="7.02313">
        <ele>1140.1999511719</ele>
        <time>2013-12-08T10:33:03.000Z</time>
      </trkpt>
      <trkpt lat="43.74468" lon="7.02317">
        <ele>1141.5999755859</ele>
        <time>2013-12-08T10:33:10.000Z</time>
      </trkpt>
      <trkpt lat="43.74465" lon="7.02324">
        <ele>1143.4000244141</ele>
        <time>2013-12-08T10:33:17.000Z</time>
      </trkpt>
      <trkpt lat="43.74459" lon="7.02331">
        <ele>1145.5999755859</ele>
        <time>2013-12-08T10:33:26.000Z</time>
      </trkpt>
      <trkpt lat="43.74458" lon="7.02333">
        <ele>1146.5999755859</ele>
        <time>2013-12-08T10:33:29.000Z</time>
      </trkpt>
      <trkpt lat="43.74458" lon="7.02336">
        <ele>1147</ele>
        <time>2013-12-08T10:33:32.000Z</time>
      </trkpt>
      <trkpt lat="43.74455" lon="7.02339">
        <ele>1148</ele>
        <time>2013-12-08T10:33:39.000Z</time>
      </trkpt>
      <trkpt lat="43.74452" lon="7.02345">
        <ele>1149.4000244141</ele>
        <time>2013-12-08T10:33:47.000Z</time>
      </trkpt>
      <trkpt lat="43.74447" lon="7.0235">
        <ele>1150.8000488281</ele>
        <time>2013-12-08T10:33:55.000Z</time>
      </trkpt>
      <trkpt lat="43.74443" lon="7.02357">
        <ele>1152.5999755859</ele>
        <time>2013-12-08T10:34:02.000Z</time>
      </trkpt>
      <trkpt lat="43.74439" lon="7.02359">
        <ele>1153.5999755859</ele>
        <time>2013-12-08T10:34:08.000Z</time>
      </trkpt>
      <trkpt lat="43.74436" lon="7.02365">
        <ele>1155</ele>
        <time>2013-12-08T10:34:15.000Z</time>
      </trkpt>
      <trkpt lat="43.74431" lon="7.02374">
        <ele>1157.4000244141</ele>
        <time>2013-12-08T10:34:24.000Z</time>
      </trkpt>
      <trkpt lat="43.74429" lon="7.02378">
        <ele>1158.8000488281</ele>
        <time>2013-12-08T10:34:32.000Z</time>
      </trkpt>
      <trkpt lat="43.74429" lon="7.02372">
        <ele>1157.4000244141</ele>
        <time>2013-12-08T10:34:58.000Z</time>
      </trkpt>
      <trkpt lat="43.74429" lon="7.02368">
        <ele>1156.4000244141</ele>
        <time>2013-12-08T10:35:03.000Z</time>
      </trkpt>
      <trkpt lat="43.74431" lon="7.02362">
        <ele>1155</ele>
        <time>2013-12-08T10:35:10.000Z</time>
      </trkpt>
      <trkpt lat="43.74432" lon="7.02358">
        <ele>1154</ele>
        <time>2013-12-08T10:35:18.000Z</time>
      </trkpt>
      <trkpt lat="43.74437" lon="7.02367">
        <ele>1155.4000244141</ele>
        <time>2013-12-08T10:40:05.000Z</time>
      </trkpt>
      <trkpt lat="43.74433" lon="7.02373">
        <ele>1157.1999511719</ele>
        <time>2013-12-08T10:40:14.000Z</time>
      </trkpt>
      <trkpt lat="43.74428" lon="7.02379">
        <ele>1159</ele>
        <time>2013-12-08T10:40:23.000Z</time>
      </trkpt>
      <trkpt lat="43.74426" lon="7.02384">
        <ele>1160.4000244141</ele>
        <time>2013-12-08T10:40:30.000Z</time>
      </trkpt>
      <trkpt lat="43.74423" lon="7.02389">
        <ele>1161.8000488281</ele>
        <time>2013-12-08T10:40:37.000Z</time>
      </trkpt>
      <trkpt lat="43.74421" lon="7.02395">
        <ele>1163.5999755859</ele>
        <time>2013-12-08T10:40:46.000Z</time>
      </trkpt>
      <trkpt lat="43.74418" lon="7.02401">
        <ele>1165</ele>
        <time>2013-12-08T10:40:53.000Z</time>
      </trkpt>
      <trkpt lat="43.74416" lon="7.02408">
        <ele>1167.1999511719</ele>
        <time>2013-12-08T10:41:02.000Z</time>
      </trkpt>
      <trkpt lat="43.74412" lon="7.02416">
        <ele>1169.4000244141</ele>
        <time>2013-12-08T10:41:12.000Z</time>
      </trkpt>
      <trkpt lat="43.7441" lon="7.02423">
        <ele>1170.8000488281</ele>
        <time>2013-12-08T10:41:21.000Z</time>
      </trkpt>
      <trkpt lat="43.74408" lon="7.02426">
        <ele>1171.5999755859</ele>
        <time>2013-12-08T10:41:26.000Z</time>
      </trkpt>
      <trkpt lat="43.74406" lon="7.02433">
        <ele>1173</ele>
        <time>2013-12-08T10:41:35.000Z</time>
      </trkpt>
      <trkpt lat="43.74403" lon="7.02437">
        <ele>1174.4000244141</ele>
        <time>2013-12-08T10:41:43.000Z</time>
      </trkpt>
      <trkpt lat="43.744" lon="7.02445">
        <ele>1176</ele>
        <time>2013-12-08T10:41:51.000Z</time>
      </trkpt>
      <trkpt lat="43.74397" lon="7.02451">
        <ele>1177.5999755859</ele>
        <time>2013-12-08T10:42:01.000Z</time>
      </trkpt>
      <trkpt lat="43.74395" lon="7.02454">
        <ele>1178.5999755859</ele>
        <time>2013-12-08T10:42:07.000Z</time>
      </trkpt>
      <trkpt lat="43.74392" lon="7.0246">
        <ele>1180</ele>
        <time>2013-12-08T10:42:15.000Z</time>
      </trkpt>
      <trkpt lat="43.74389" lon="7.02463">
        <ele>1181.1999511719</ele>
        <time>2013-12-08T10:42:23.000Z</time>
      </trkpt>
      <trkpt lat="43.74385" lon="7.02465">
        <ele>1182</ele>
        <time>2013-12-08T10:42:29.000Z</time>
      </trkpt>
      <trkpt lat="43.74383" lon="7.0247">
        <ele>1183.1999511719</ele>
        <time>2013-12-08T10:42:35.000Z</time>
      </trkpt>
      <trkpt lat="43.7438" lon="7.02475">
        <ele>1185</ele>
        <time>2013-12-08T10:42:41.000Z</time>
      </trkpt>
      <trkpt lat="43.74375" lon="7.02479">
        <ele>1186.5999755859</ele>
        <time>2013-12-08T10:42:49.000Z</time>
      </trkpt>
      <trkpt lat="43.74371" lon="7.02481">
        <ele>1187.5999755859</ele>
        <time>2013-12-08T10:42:54.000Z</time>
      </trkpt>
      <trkpt lat="43.74369" lon="7.02483">
        <ele>1188.1999511719</ele>
        <time>2013-12-08T10:42:57.000Z</time>
      </trkpt>
      <trkpt lat="43.74366" lon="7.02488">
        <ele>1190</ele>
        <time>2013-12-08T10:43:05.000Z</time>
      </trkpt>
      <trkpt lat="43.74362" lon="7.02495">
        <ele>1192.1999511719</ele>
        <time>2013-12-08T10:43:15.000Z</time>
      </trkpt>
      <trkpt lat="43.74359" lon="7.02501">
        <ele>1194</ele>
        <time>2013-12-08T10:43:24.000Z</time>
      </trkpt>
      <trkpt lat="43.74356" lon="7.02506">
        <ele>1195.1999511719</ele>
        <time>2013-12-08T10:43:31.000Z</time>
      </trkpt>
      <trkpt lat="43.74353" lon="7.02513">
        <ele>1196.8000488281</ele>
        <time>2013-12-08T10:43:39.000Z</time>
      </trkpt>
      <trkpt lat="43.74351" lon="7.02519">
        <ele>1198</ele>
        <time>2013-12-08T10:43:46.000Z</time>
      </trkpt>
      <trkpt lat="43.74349" lon="7.02525">
        <ele>1199.4000244141</ele>
        <time>2013-12-08T10:43:55.000Z</time>
      </trkpt>
      <trkpt lat="43.74347" lon="7.02529">
        <ele>1200.4000244141</ele>
        <time>2013-12-08T10:44:03.000Z</time>
      </trkpt>
      <trkpt lat="43.74344" lon="7.02533">
        <ele>1201.4000244141</ele>
        <time>2013-12-08T10:44:10.000Z</time>
      </trkpt>
      <trkpt lat="43.74341" lon="7.02537">
        <ele>1202.5999755859</ele>
        <time>2013-12-08T10:44:16.000Z</time>
      </trkpt>
      <trkpt lat="43.74339" lon="7.02542">
        <ele>1203.8000488281</ele>
        <time>2013-12-08T10:44:24.000Z</time>
      </trkpt>
      <trkpt lat="43.74335" lon="7.02548">
        <ele>1205.1999511719</ele>
        <time>2013-12-08T10:44:32.000Z</time>
      </trkpt>
      <trkpt lat="43.74333" lon="7.02551">
        <ele>1206</ele>
        <time>2013-12-08T10:44:39.000Z</time>
      </trkpt>
      <trkpt lat="43.7433" lon="7.02555">
        <ele>1206.5999755859</ele>
        <time>2013-12-08T10:44:46.000Z</time>
      </trkpt>
      <trkpt lat="43.74327" lon="7.02559">
        <ele>1207.4000244141</ele>
        <time>2013-12-08T10:44:52.000Z</time>
      </trkpt>
      <trkpt lat="43.74326" lon="7.02564">
        <ele>1208.4000244141</ele>
        <time>2013-12-08T10:44:59.000Z</time>
      </trkpt>
      <trkpt lat="43.74323" lon="7.02566">
        <ele>1208.8000488281</ele>
        <time>2013-12-08T10:45:05.000Z</time>
      </trkpt>
      <trkpt lat="43.74319" lon="7.02571">
        <ele>1210</ele>
        <time>2013-12-08T10:45:13.000Z</time>
      </trkpt>
      <trkpt lat="43.74316" lon="7.02577">
        <ele>1211.1999511719</ele>
        <time>2013-12-08T10:45:21.000Z</time>
      </trkpt>
      <trkpt lat="43.74313" lon="7.02582">
        <ele>1212.4000244141</ele>
        <time>2013-12-08T10:45:28.000Z</time>
      </trkpt>
      <trkpt lat="43.74309" lon="7.02591">
        <ele>1214.4000244141</ele>
        <time>2013-12-08T10:45:38.000Z</time>
      </trkpt>
      <trkpt lat="43.74306" lon="7.02599">
        <ele>1216</ele>
        <time>2013-12-08T10:45:47.000Z</time>
      </trkpt>
      <trkpt lat="43.74301" lon="7.02606">
        <ele>1217.5999755859</ele>
        <time>2013-12-08T10:45:57.000Z</time>
      </trkpt>
      <trkpt lat="43.74298" lon="7.02611">
        <ele>1218.8000488281</ele>
        <time>2013-12-08T10:46:05.000Z</time>
      </trkpt>
      <trkpt lat="43.74294" lon="7.02618">
        <ele>1220.1999511719</ele>
        <time>2013-12-08T10:46:13.000Z</time>
      </trkpt>
      <trkpt lat="43.74289" lon="7.02624">
        <ele>1221.8000488281</ele>
        <time>2013-12-08T10:46:22.000Z</time>
      </trkpt>
      <trkpt lat="43.74285" lon="7.02629">
        <ele>1223</ele>
        <time>2013-12-08T10:46:30.000Z</time>
      </trkpt>
      <trkpt lat="43.7428" lon="7.02632">
        <ele>1224</ele>
        <time>2013-12-08T10:46:37.000Z</time>
      </trkpt>
      <trkpt lat="43.74276" lon="7.02638">
        <ele>1225.5999755859</ele>
        <time>2013-12-08T10:46:46.000Z</time>
      </trkpt>
      <trkpt lat="43.7427" lon="7.02645">
        <ele>1227.1999511719</ele>
        <time>2013-12-08T10:46:55.000Z</time>
      </trkpt>
      <trkpt lat="43.74266" lon="7.02651">
        <ele>1228.8000488281</ele>
        <time>2013-12-08T10:47:04.000Z</time>
      </trkpt>
      <trkpt lat="43.74262" lon="7.02659">
        <ele>1230.4000244141</ele>
        <time>2013-12-08T10:47:13.000Z</time>
      </trkpt>
      <trkpt lat="43.7426" lon="7.02664">
        <ele>1231.4000244141</ele>
        <time>2013-12-08T10:47:21.000Z</time>
      </trkpt>
      <trkpt lat="43.74259" lon="7.02669">
        <ele>1232.5999755859</ele>
        <time>2013-12-08T10:47:27.000Z</time>
      </trkpt>
      <trkpt lat="43.74259" lon="7.02679">
        <ele>1233.8000488281</ele>
        <time>2013-12-08T10:47:36.000Z</time>
      </trkpt>
      <trkpt lat="43.74258" lon="7.02687">
        <ele>1235.1999511719</ele>
        <time>2013-12-08T10:47:45.000Z</time>
      </trkpt>
      <trkpt lat="43.74256" lon="7.02694">
        <ele>1236.1999511719</ele>
        <time>2013-12-08T10:47:53.000Z</time>
      </trkpt>
      <trkpt lat="43.74254" lon="7.02701">
        <ele>1237.4000244141</ele>
        <time>2013-12-08T10:48:01.000Z</time>
      </trkpt>
      <trkpt lat="43.74251" lon="7.02708">
        <ele>1238.8000488281</ele>
        <time>2013-12-08T10:48:09.000Z</time>
      </trkpt>
      <trkpt lat="43.74249" lon="7.02715">
        <ele>1240</ele>
        <time>2013-12-08T10:48:17.000Z</time>
      </trkpt>
      <trkpt lat="43.74249" lon="7.02721">
        <ele>1241</ele>
        <time>2013-12-08T10:48:23.000Z</time>
      </trkpt>
      <trkpt lat="43.74246" lon="7.02727">
        <ele>1242</ele>
        <time>2013-12-08T10:48:30.000Z</time>
      </trkpt>
      <trkpt lat="43.74247" lon="7.02733">
        <ele>1242.8000488281</ele>
        <time>2013-12-08T10:48:37.000Z</time>
      </trkpt>
      <trkpt lat="43.74247" lon="7.02741">
        <ele>1243.8000488281</ele>
        <time>2013-12-08T10:48:45.000Z</time>
      </trkpt>
      <trkpt lat="43.74244" lon="7.02747">
        <ele>1245</ele>
        <time>2013-12-08T10:48:52.000Z</time>
      </trkpt>
      <trkpt lat="43.74241" lon="7.02753">
        <ele>1246.1999511719</ele>
        <time>2013-12-08T10:49:00.000Z</time>
      </trkpt>
      <trkpt lat="43.74237" lon="7.02759">
        <ele>1247</ele>
        <time>2013-12-08T10:49:08.000Z</time>
      </trkpt>
      <trkpt lat="43.74233" lon="7.02766">
        <ele>1248.1999511719</ele>
        <time>2013-12-08T10:49:15.000Z</time>
      </trkpt>
      <trkpt lat="43.74229" lon="7.02773">
        <ele>1249.1999511719</ele>
        <time>2013-12-08T10:49:24.000Z</time>
      </trkpt>
      <trkpt lat="43.74224" lon="7.02779">
        <ele>1250.4000244141</ele>
        <time>2013-12-08T10:49:33.000Z</time>
      </trkpt>
      <trkpt lat="43.74221" lon="7.02784">
        <ele>1251</ele>
        <time>2013-12-08T10:49:38.000Z</time>
      </trkpt>
      <trkpt lat="43.74219" lon="7.02786">
        <ele>1251.5999755859</ele>
        <time>2013-12-08T10:49:42.000Z</time>
      </trkpt>
      <trkpt lat="43.74215" lon="7.02793">
        <ele>1252.5999755859</ele>
        <time>2013-12-08T10:49:50.000Z</time>
      </trkpt>
      <trkpt lat="43.7421" lon="7.02801">
        <ele>1253.8000488281</ele>
        <time>2013-12-08T10:49:59.000Z</time>
      </trkpt>
      <trkpt lat="43.74207" lon="7.02809">
        <ele>1255</ele>
        <time>2013-12-08T10:50:08.000Z</time>
      </trkpt>
      <trkpt lat="43.74205" lon="7.02816">
        <ele>1256</ele>
        <time>2013-12-08T10:50:15.000Z</time>
      </trkpt>
      <trkpt lat="43.74202" lon="7.02824">
        <ele>1257</ele>
        <time>2013-12-08T10:50:23.000Z</time>
      </trkpt>
      <trkpt lat="43.74199" lon="7.0283">
        <ele>1258</ele>
        <time>2013-12-08T10:50:30.000Z</time>
      </trkpt>
      <trkpt lat="43.74196" lon="7.02837">
        <ele>1258.5999755859</ele>
        <time>2013-12-08T10:50:38.000Z</time>
      </trkpt>
      <trkpt lat="43.74194" lon="7.02841">
        <ele>1258.8000488281</ele>
        <time>2013-12-08T10:50:44.000Z</time>
      </trkpt>
      <trkpt lat="43.74193" lon="7.02844">
        <ele>1259</ele>
        <time>2013-12-08T10:50:53.000Z</time>
      </trkpt>
      <trkpt lat="43.74191" lon="7.02847">
        <ele>1259.1999511719</ele>
        <time>2013-12-08T10:50:55.000Z</time>
      </trkpt>
      <trkpt lat="43.74189" lon="7.02855">
        <ele>1259.4000244141</ele>
        <time>2013-12-08T10:51:00.000Z</time>
      </trkpt>
      <trkpt lat="43.74188" lon="7.02858">
        <ele>1259.5999755859</ele>
        <time>2013-12-08T10:51:02.000Z</time>
      </trkpt>
      <trkpt lat="43.74183" lon="7.0287">
        <ele>1260.1999511719</ele>
        <time>2013-12-08T10:51:10.000Z</time>
      </trkpt>
      <trkpt lat="43.74178" lon="7.02881">
        <ele>1260.5999755859</ele>
        <time>2013-12-08T10:51:17.000Z</time>
      </trkpt>
      <trkpt lat="43.74178" lon="7.02895">
        <ele>1260.8000488281</ele>
        <time>2013-12-08T10:51:24.000Z</time>
      </trkpt>
      <trkpt lat="43.74174" lon="7.02905">
        <ele>1261.4000244141</ele>
        <time>2013-12-08T10:51:30.000Z</time>
      </trkpt>
      <trkpt lat="43.74168" lon="7.02916">
        <ele>1261.8000488281</ele>
        <time>2013-12-08T10:51:37.000Z</time>
      </trkpt>
      <trkpt lat="43.74163" lon="7.0293">
        <ele>1261.4000244141</ele>
        <time>2013-12-08T10:51:43.000Z</time>
      </trkpt>
      <trkpt lat="43.7416" lon="7.0295">
        <ele>1260.5999755859</ele>
        <time>2013-12-08T10:51:48.000Z</time>
      </trkpt>
      <trkpt lat="43.74159" lon="7.02966">
        <ele>1259.8000488281</ele>
        <time>2013-12-08T10:51:51.000Z</time>
      </trkpt>
      <trkpt lat="43.74162" lon="7.02974">
        <ele>1259.8000488281</ele>
        <time>2013-12-08T10:51:53.000Z</time>
      </trkpt>
      <trkpt lat="43.74163" lon="7.02987">
        <ele>1259.1999511719</ele>
        <time>2013-12-08T10:51:57.000Z</time>
      </trkpt>
      <trkpt lat="43.74164" lon="7.02993">
        <ele>1259.1999511719</ele>
        <time>2013-12-08T10:51:59.000Z</time>
      </trkpt>
      <trkpt lat="43.74166" lon="7.02996">
        <ele>1259</ele>
        <time>2013-12-08T10:52:01.000Z</time>
      </trkpt>
      <trkpt lat="43.74171" lon="7.02999">
        <ele>1258.8000488281</ele>
        <time>2013-12-08T10:52:05.000Z</time>
      </trkpt>
      <trkpt lat="43.74171" lon="7.03">
        <ele>1258.8000488281</ele>
        <time>2013-12-08T10:52:06.000Z</time>
      </trkpt>
      <trkpt lat="43.74174" lon="7.03005">
        <ele>1258.4000244141</ele>
        <time>2013-12-08T10:52:10.000Z</time>
      </trkpt>
      <trkpt lat="43.74175" lon="7.03006">
        <ele>1258.4000244141</ele>
        <time>2013-12-08T10:52:11.000Z</time>
      </trkpt>
      <trkpt lat="43.74177" lon="7.03007">
        <ele>1258.1999511719</ele>
        <time>2013-12-08T10:52:16.000Z</time>
      </trkpt>
      <trkpt lat="43.74178" lon="7.03009">
        <ele>1258.1999511719</ele>
        <time>2013-12-08T10:52:21.000Z</time>
      </trkpt>
      <trkpt lat="43.74179" lon="7.03013">
        <ele>1258</ele>
        <time>2013-12-08T10:52:27.000Z</time>
      </trkpt>
      <trkpt lat="43.7418" lon="7.03019">
        <ele>1257.8000488281</ele>
        <time>2013-12-08T10:52:34.000Z</time>
      </trkpt>
      <trkpt lat="43.74179" lon="7.03026">
        <ele>1257.4000244141</ele>
        <time>2013-12-08T10:52:40.000Z</time>
      </trkpt>
      <trkpt lat="43.74178" lon="7.03029">
        <ele>1257.4000244141</ele>
        <time>2013-12-08T10:52:45.000Z</time>
      </trkpt>
      <trkpt lat="43.74178" lon="7.03029">
        <ele>1257.4000244141</ele>
        <time>2013-12-08T10:52:53.000Z</time>
      </trkpt>
      <trkpt lat="43.74179" lon="7.03033">
        <ele>1257.1999511719</ele>
        <time>2013-12-08T10:53:13.000Z</time>
      </trkpt>
      <trkpt lat="43.74177" lon="7.03035">
        <ele>1257.1999511719</ele>
        <time>2013-12-08T10:57:37.000Z</time>
      </trkpt>
      <trkpt lat="43.74177" lon="7.03033">
        <ele>1257.1999511719</ele>
        <time>2013-12-08T10:57:41.000Z</time>
      </trkpt>
      <trkpt lat="43.74174" lon="7.0303">
        <ele>1257.4000244141</ele>
        <time>2013-12-08T10:57:47.000Z</time>
      </trkpt>
      <trkpt lat="43.74172" lon="7.03029">
        <ele>1257.4000244141</ele>
        <time>2013-12-08T10:57:52.000Z</time>
      </trkpt>
      <trkpt lat="43.74171" lon="7.03029">
        <ele>1257.5999755859</ele>
        <time>2013-12-08T10:57:53.000Z</time>
      </trkpt>
      <trkpt lat="43.74168" lon="7.03023">
        <ele>1257.8000488281</ele>
        <time>2013-12-08T10:57:56.000Z</time>
      </trkpt>
      <trkpt lat="43.74165" lon="7.0302">
        <ele>1258</ele>
        <time>2013-12-08T10:57:59.000Z</time>
      </trkpt>
      <trkpt lat="43.74163" lon="7.03018">
        <ele>1258</ele>
        <time>2013-12-08T10:58:01.000Z</time>
      </trkpt>
      <trkpt lat="43.74159" lon="7.03008">
        <ele>1258.1999511719</ele>
        <time>2013-12-08T10:58:05.000Z</time>
      </trkpt>
      <trkpt lat="43.74157" lon="7.03004">
        <ele>1258.1999511719</ele>
        <time>2013-12-08T10:58:06.000Z</time>
      </trkpt>
      <trkpt lat="43.74157" lon="7.02991">
        <ele>1258.8000488281</ele>
        <time>2013-12-08T10:58:11.000Z</time>
      </trkpt>
      <trkpt lat="43.74159" lon="7.02985">
        <ele>1259.1999511719</ele>
        <time>2013-12-08T10:58:15.000Z</time>
      </trkpt>
      <trkpt lat="43.74158" lon="7.02984">
        <ele>1259.1999511719</ele>
        <time>2013-12-08T10:58:23.000Z</time>
      </trkpt>
      <trkpt lat="43.74163" lon="7.02988">
        <ele>1259.1999511719</ele>
        <time>2013-12-08T11:02:07.000Z</time>
      </trkpt>
      <trkpt lat="43.7416" lon="7.02984">
        <ele>1259.1999511719</ele>
        <time>2013-12-08T11:02:11.000Z</time>
      </trkpt>
      <trkpt lat="43.7416" lon="7.02978">
        <ele>1259.4000244141</ele>
        <time>2013-12-08T11:03:07.000Z</time>
      </trkpt>
      <trkpt lat="43.74156" lon="7.02975">
        <ele>1259.4000244141</ele>
        <time>2013-12-08T11:03:15.000Z</time>
      </trkpt>
      <trkpt lat="43.74145" lon="7.02968">
        <ele>1259.1999511719</ele>
        <time>2013-12-08T11:03:20.000Z</time>
      </trkpt>
      <trkpt lat="43.74125" lon="7.02955">
        <ele>1259</ele>
        <time>2013-12-08T11:03:25.000Z</time>
      </trkpt>
      <trkpt lat="43.74104" lon="7.02938">
        <ele>1259.1999511719</ele>
        <time>2013-12-08T11:03:31.000Z</time>
      </trkpt>
      <trkpt lat="43.74092" lon="7.02925">
        <ele>1259.5999755859</ele>
        <time>2013-12-08T11:03:35.000Z</time>
      </trkpt>
      <trkpt lat="43.74087" lon="7.02916">
        <ele>1260</ele>
        <time>2013-12-08T11:03:39.000Z</time>
      </trkpt>
      <trkpt lat="43.74083" lon="7.02915">
        <ele>1260</ele>
        <time>2013-12-08T11:03:41.000Z</time>
      </trkpt>
      <trkpt lat="43.74076" lon="7.02909">
        <ele>1259.4000244141</ele>
        <time>2013-12-08T11:03:45.000Z</time>
      </trkpt>
      <trkpt lat="43.74071" lon="7.02904">
        <ele>1259</ele>
        <time>2013-12-08T11:03:48.000Z</time>
      </trkpt>
      <trkpt lat="43.74065" lon="7.02905">
        <ele>1258.4000244141</ele>
        <time>2013-12-08T11:03:51.000Z</time>
      </trkpt>
      <trkpt lat="43.74063" lon="7.02905">
        <ele>1258.1999511719</ele>
        <time>2013-12-08T11:03:52.000Z</time>
      </trkpt>
      <trkpt lat="43.7406" lon="7.02906">
        <ele>1257.8000488281</ele>
        <time>2013-12-08T11:03:55.000Z</time>
      </trkpt>
      <trkpt lat="43.74059" lon="7.02904">
        <ele>1257.8000488281</ele>
        <time>2013-12-08T11:03:57.000Z</time>
      </trkpt>
      <trkpt lat="43.74052" lon="7.02899">
        <ele>1257.1999511719</ele>
        <time>2013-12-08T11:04:04.000Z</time>
      </trkpt>
      <trkpt lat="43.7405" lon="7.02898">
        <ele>1257</ele>
        <time>2013-12-08T11:04:05.000Z</time>
      </trkpt>
      <trkpt lat="43.74042" lon="7.02899">
        <ele>1256.1999511719</ele>
        <time>2013-12-08T11:04:10.000Z</time>
      </trkpt>
      <trkpt lat="43.74036" lon="7.02898">
        <ele>1255.8000488281</ele>
        <time>2013-12-08T11:04:13.000Z</time>
      </trkpt>
      <trkpt lat="43.74032" lon="7.02896">
        <ele>1255.4000244141</ele>
        <time>2013-12-08T11:04:15.000Z</time>
      </trkpt>
      <trkpt lat="43.74019" lon="7.02898">
        <ele>1254</ele>
        <time>2013-12-08T11:04:20.000Z</time>
      </trkpt>
      <trkpt lat="43.74017" lon="7.02899">
        <ele>1253.8000488281</ele>
        <time>2013-12-08T11:04:21.000Z</time>
      </trkpt>
      <trkpt lat="43.74006" lon="7.02899">
        <ele>1252.5999755859</ele>
        <time>2013-12-08T11:04:27.000Z</time>
      </trkpt>
      <trkpt lat="43.73994" lon="7.02896">
        <ele>1250.1999511719</ele>
        <time>2013-12-08T11:04:33.000Z</time>
      </trkpt>
      <trkpt lat="43.73979" lon="7.02896">
        <ele>1245.5999755859</ele>
        <time>2013-12-08T11:04:40.000Z</time>
      </trkpt>
      <trkpt lat="43.73971" lon="7.02906">
        <ele>1242.1999511719</ele>
        <time>2013-12-08T11:04:46.000Z</time>
      </trkpt>
      <trkpt lat="43.73968" lon="7.0291">
        <ele>1241</ele>
        <time>2013-12-08T11:04:51.000Z</time>
      </trkpt>
      <trkpt lat="43.73963" lon="7.02915">
        <ele>1239</ele>
        <time>2013-12-08T11:04:58.000Z</time>
      </trkpt>
      <trkpt lat="43.73955" lon="7.02924">
        <ele>1236</ele>
        <time>2013-12-08T11:05:04.000Z</time>
      </trkpt>
      <trkpt lat="43.73948" lon="7.0293">
        <ele>1233.8000488281</ele>
        <time>2013-12-08T11:05:10.000Z</time>
      </trkpt>
      <trkpt lat="43.73946" lon="7.02928">
        <ele>1233.1999511719</ele>
        <time>2013-12-08T11:05:15.000Z</time>
      </trkpt>
      <trkpt lat="43.73941" lon="7.02931">
        <ele>1231.4000244141</ele>
        <time>2013-12-08T11:05:41.000Z</time>
      </trkpt>
      <trkpt lat="43.73942" lon="7.0293">
        <ele>1231.8000488281</ele>
        <time>2013-12-08T11:06:00.000Z</time>
      </trkpt>
      <trkpt lat="43.73941" lon="7.02929">
        <ele>1231.4000244141</ele>
        <time>2013-12-08T11:06:09.000Z</time>
      </trkpt>
      <trkpt lat="43.7394" lon="7.02927">
        <ele>1231.1999511719</ele>
        <time>2013-12-08T11:06:11.000Z</time>
      </trkpt>
      <trkpt lat="43.73938" lon="7.02926">
        <ele>1230.5999755859</ele>
        <time>2013-12-08T11:06:17.000Z</time>
      </trkpt>
      <trkpt lat="43.73937" lon="7.02927">
        <ele>1230.1999511719</ele>
        <time>2013-12-08T11:06:22.000Z</time>
      </trkpt>
      <trkpt lat="43.73934" lon="7.02925">
        <ele>1229.4000244141</ele>
        <time>2013-12-08T11:06:29.000Z</time>
      </trkpt>
      <trkpt lat="43.73927" lon="7.02921">
        <ele>1227.4000244141</ele>
        <time>2013-12-08T11:06:35.000Z</time>
      </trkpt>
      <trkpt lat="43.73924" lon="7.02918">
        <ele>1226.4000244141</ele>
        <time>2013-12-08T11:06:41.000Z</time>
      </trkpt>
      <trkpt lat="43.73919" lon="7.02913">
        <ele>1225</ele>
        <time>2013-12-08T11:06:45.000Z</time>
      </trkpt>
      <trkpt lat="43.73909" lon="7.02907">
        <ele>1221.8000488281</ele>
        <time>2013-12-08T11:06:50.000Z</time>
      </trkpt>
      <trkpt lat="43.73906" lon="7.02903">
        <ele>1220.5999755859</ele>
        <time>2013-12-08T11:06:52.000Z</time>
      </trkpt>
      <trkpt lat="43.73901" lon="7.02901">
        <ele>1218.8000488281</ele>
        <time>2013-12-08T11:06:54.000Z</time>
      </trkpt>
      <trkpt lat="43.73889" lon="7.02891">
        <ele>1214.4000244141</ele>
        <time>2013-12-08T11:07:00.000Z</time>
      </trkpt>
      <trkpt lat="43.73882" lon="7.02885">
        <ele>1211.8000488281</ele>
        <time>2013-12-08T11:07:04.000Z</time>
      </trkpt>
      <trkpt lat="43.7388" lon="7.02885">
        <ele>1211.1999511719</ele>
        <time>2013-12-08T11:07:05.000Z</time>
      </trkpt>
      <trkpt lat="43.73879" lon="7.02883">
        <ele>1210.8000488281</ele>
        <time>2013-12-08T11:07:06.000Z</time>
      </trkpt>
      <trkpt lat="43.73877" lon="7.0288">
        <ele>1210.1999511719</ele>
        <time>2013-12-08T11:07:09.000Z</time>
      </trkpt>
      <trkpt lat="43.73877" lon="7.0288">
        <ele>1210.1999511719</ele>
        <time>2013-12-08T11:07:10.000Z</time>
      </trkpt>
      <trkpt lat="43.73872" lon="7.02874">
        <ele>1208.1999511719</ele>
        <time>2013-12-08T11:15:37.000Z</time>
      </trkpt>
      <trkpt lat="43.73858" lon="7.02859">
        <ele>1203</ele>
        <time>2013-12-08T11:15:43.000Z</time>
      </trkpt>
      <trkpt lat="43.73852" lon="7.02845">
        <ele>1200.8000488281</ele>
        <time>2013-12-08T11:15:47.000Z</time>
      </trkpt>
      <trkpt lat="43.73851" lon="7.02844">
        <ele>1200.4000244141</ele>
        <time>2013-12-08T11:15:48.000Z</time>
      </trkpt>
      <trkpt lat="43.73845" lon="7.0284">
        <ele>1198.1999511719</ele>
        <time>2013-12-08T11:15:51.000Z</time>
      </trkpt>
      <trkpt lat="43.73843" lon="7.02837">
        <ele>1197.1999511719</ele>
        <time>2013-12-08T11:15:53.000Z</time>
      </trkpt>
      <trkpt lat="43.73839" lon="7.02834">
        <ele>1195.4000244141</ele>
        <time>2013-12-08T11:15:55.000Z</time>
      </trkpt>
      <trkpt lat="43.73832" lon="7.02828">
        <ele>1192.1999511719</ele>
        <time>2013-12-08T11:15:59.000Z</time>
      </trkpt>
      <trkpt lat="43.73822" lon="7.0282">
        <ele>1187.5999755859</ele>
        <time>2013-12-08T11:16:04.000Z</time>
      </trkpt>
      <trkpt lat="43.73809" lon="7.02808">
        <ele>1181.8000488281</ele>
        <time>2013-12-08T11:16:11.000Z</time>
      </trkpt>
      <trkpt lat="43.73802" lon="7.02799">
        <ele>1178.5999755859</ele>
        <time>2013-12-08T11:16:16.000Z</time>
      </trkpt>
      <trkpt lat="43.738" lon="7.02796">
        <ele>1177.8000488281</ele>
        <time>2013-12-08T11:16:21.000Z</time>
      </trkpt>
      <trkpt lat="43.73795" lon="7.02793">
        <ele>1175.5999755859</ele>
        <time>2013-12-08T11:16:32.000Z</time>
      </trkpt>
      <trkpt lat="43.73793" lon="7.0279">
        <ele>1174.5999755859</ele>
        <time>2013-12-08T11:16:37.000Z</time>
      </trkpt>
      <trkpt lat="43.73786" lon="7.02783">
        <ele>1171.8000488281</ele>
        <time>2013-12-08T11:16:43.000Z</time>
      </trkpt>
      <trkpt lat="43.73785" lon="7.02782">
        <ele>1171.1999511719</ele>
        <time>2013-12-08T11:16:45.000Z</time>
      </trkpt>
      <trkpt lat="43.73781" lon="7.02778">
        <ele>1169.4000244141</ele>
        <time>2013-12-08T11:16:48.000Z</time>
      </trkpt>
      <trkpt lat="43.73773" lon="7.02765">
        <ele>1166</ele>
        <time>2013-12-08T11:16:54.000Z</time>
      </trkpt>
      <trkpt lat="43.73763" lon="7.02758">
        <ele>1162</ele>
        <time>2013-12-08T11:17:00.000Z</time>
      </trkpt>
      <trkpt lat="43.73756" lon="7.02754">
        <ele>1159.4000244141</ele>
        <time>2013-12-08T11:17:05.000Z</time>
      </trkpt>
      <trkpt lat="43.73755" lon="7.02751">
        <ele>1158.8000488281</ele>
        <time>2013-12-08T11:17:06.000Z</time>
      </trkpt>
      <trkpt lat="43.73753" lon="7.0275">
        <ele>1158</ele>
        <time>2013-12-08T11:17:07.000Z</time>
      </trkpt>
      <trkpt lat="43.7375" lon="7.02746">
        <ele>1155.5999755859</ele>
        <time>2013-12-08T11:17:09.000Z</time>
      </trkpt>
      <trkpt lat="43.73742" lon="7.02741">
        <ele>1151.4000244141</ele>
        <time>2013-12-08T11:17:13.000Z</time>
      </trkpt>
      <trkpt lat="43.73739" lon="7.0274">
        <ele>1150.5999755859</ele>
        <time>2013-12-08T11:17:14.000Z</time>
      </trkpt>
      <trkpt lat="43.73734" lon="7.02738">
        <ele>1148.5999755859</ele>
        <time>2013-12-08T11:17:16.000Z</time>
      </trkpt>
      <trkpt lat="43.73727" lon="7.02734">
        <ele>1145.4000244141</ele>
        <time>2013-12-08T11:17:19.000Z</time>
      </trkpt>
      <trkpt lat="43.73724" lon="7.02733">
        <ele>1144.4000244141</ele>
        <time>2013-12-08T11:17:20.000Z</time>
      </trkpt>
      <trkpt lat="43.73721" lon="7.02733">
        <ele>1143.5999755859</ele>
        <time>2013-12-08T11:17:21.000Z</time>
      </trkpt>
      <trkpt lat="43.73713" lon="7.02733">
        <ele>1141.5999755859</ele>
        <time>2013-12-08T11:17:23.000Z</time>
      </trkpt>
      <trkpt lat="43.73693" lon="7.02729">
        <ele>1135.4000244141</ele>
        <time>2013-12-08T11:17:28.000Z</time>
      </trkpt>
      <trkpt lat="43.73674" lon="7.0273">
        <ele>1131.1999511719</ele>
        <time>2013-12-08T11:17:31.000Z</time>
      </trkpt>
      <trkpt lat="43.73644" lon="7.02737">
        <ele>1128.1999511719</ele>
        <time>2013-12-08T11:17:35.000Z</time>
      </trkpt>
      <trkpt lat="43.73626" lon="7.02742">
        <ele>1126.8000488281</ele>
        <time>2013-12-08T11:17:38.000Z</time>
      </trkpt>
      <trkpt lat="43.73613" lon="7.02741">
        <ele>1124.8000488281</ele>
        <time>2013-12-08T11:17:42.000Z</time>
      </trkpt>
      <trkpt lat="43.73611" lon="7.02741">
        <ele>1124.5999755859</ele>
        <time>2013-12-08T11:17:43.000Z</time>
      </trkpt>
      <trkpt lat="43.73611" lon="7.02741">
        <ele>1124.4000244141</ele>
        <time>2013-12-08T11:17:44.000Z</time>
      </trkpt>
      <trkpt lat="43.73611" lon="7.02741">
        <ele>1124.4000244141</ele>
        <time>2013-12-08T11:17:46.000Z</time>
      </trkpt>
      <trkpt lat="43.73603" lon="7.02735">
        <ele>1121.8000488281</ele>
        <time>2013-12-08T11:19:01.000Z</time>
      </trkpt>
      <trkpt lat="43.73602" lon="7.02734">
        <ele>1121.1999511719</ele>
        <time>2013-12-08T11:19:02.000Z</time>
      </trkpt>
      <trkpt lat="43.73596" lon="7.02731">
        <ele>1119.5999755859</ele>
        <time>2013-12-08T11:19:06.000Z</time>
      </trkpt>
      <trkpt lat="43.73581" lon="7.02727">
        <ele>1116.5999755859</ele>
        <time>2013-12-08T11:19:11.000Z</time>
      </trkpt>
      <trkpt lat="43.73568" lon="7.02722">
        <ele>1114.1999511719</ele>
        <time>2013-12-08T11:19:16.000Z</time>
      </trkpt>
      <trkpt lat="43.7355" lon="7.02721">
        <ele>1112.5999755859</ele>
        <time>2013-12-08T11:19:20.000Z</time>
      </trkpt>
      <trkpt lat="43.73527" lon="7.02719">
        <ele>1110.8000488281</ele>
        <time>2013-12-08T11:19:25.000Z</time>
      </trkpt>
      <trkpt lat="43.73504" lon="7.02711">
        <ele>1108.4000244141</ele>
        <time>2013-12-08T11:19:29.000Z</time>
      </trkpt>
      <trkpt lat="43.73498" lon="7.02708">
        <ele>1108</ele>
        <time>2013-12-08T11:19:30.000Z</time>
      </trkpt>
      <trkpt lat="43.73479" lon="7.02696">
        <ele>1107.4000244141</ele>
        <time>2013-12-08T11:19:33.000Z</time>
      </trkpt>
      <trkpt lat="43.73472" lon="7.02693">
        <ele>1107.5999755859</ele>
        <time>2013-12-08T11:19:34.000Z</time>
      </trkpt>
      <trkpt lat="43.73454" lon="7.02689">
        <ele>1108</ele>
        <time>2013-12-08T11:19:37.000Z</time>
      </trkpt>
      <trkpt lat="43.7344" lon="7.02685">
        <ele>1108.8000488281</ele>
        <time>2013-12-08T11:19:41.000Z</time>
      </trkpt>
      <trkpt lat="43.73433" lon="7.02682">
        <ele>1109.1999511719</ele>
        <time>2013-12-08T11:19:44.000Z</time>
      </trkpt>
      <trkpt lat="43.73426" lon="7.02678">
        <ele>1109.5999755859</ele>
        <time>2013-12-08T11:19:47.000Z</time>
      </trkpt>
      <trkpt lat="43.73407" lon="7.02674">
        <ele>1112.5999755859</ele>
        <time>2013-12-08T11:19:55.000Z</time>
      </trkpt>
      <trkpt lat="43.73396" lon="7.02672">
        <ele>1115</ele>
        <time>2013-12-08T11:20:02.000Z</time>
      </trkpt>
      <trkpt lat="43.73386" lon="7.02671">
        <ele>1117</ele>
        <time>2013-12-08T11:20:09.000Z</time>
      </trkpt>
      <trkpt lat="43.73379" lon="7.0267">
        <ele>1118.4000244141</ele>
        <time>2013-12-08T11:20:16.000Z</time>
      </trkpt>
      <trkpt lat="43.73376" lon="7.02671">
        <ele>1118.8000488281</ele>
        <time>2013-12-08T11:20:22.000Z</time>
      </trkpt>
      <trkpt lat="43.73373" lon="7.02671">
        <ele>1119.4000244141</ele>
        <time>2013-12-08T11:20:29.000Z</time>
      </trkpt>
      <trkpt lat="43.73372" lon="7.02672">
        <ele>1119.5999755859</ele>
        <time>2013-12-08T11:20:34.000Z</time>
      </trkpt>
      <trkpt lat="43.7337" lon="7.02673">
        <ele>1119.8000488281</ele>
        <time>2013-12-08T11:20:39.000Z</time>
      </trkpt>
      <trkpt lat="43.73366" lon="7.02673">
        <ele>1120.8000488281</ele>
        <time>2013-12-08T11:20:46.000Z</time>
      </trkpt>
      <trkpt lat="43.73363" lon="7.02675">
        <ele>1121.1999511719</ele>
        <time>2013-12-08T11:20:51.000Z</time>
      </trkpt>
      <trkpt lat="43.73357" lon="7.02676">
        <ele>1122.1999511719</ele>
        <time>2013-12-08T11:21:00.000Z</time>
      </trkpt>
      <trkpt lat="43.73351" lon="7.02678">
        <ele>1123</ele>
        <time>2013-12-08T11:21:08.000Z</time>
      </trkpt>
      <trkpt lat="43.73346" lon="7.02681">
        <ele>1123.5999755859</ele>
        <time>2013-12-08T11:21:14.000Z</time>
      </trkpt>
      <trkpt lat="43.73343" lon="7.02683">
        <ele>1124.1999511719</ele>
        <time>2013-12-08T11:21:21.000Z</time>
      </trkpt>
      <trkpt lat="43.73334" lon="7.02683">
        <ele>1126</ele>
        <time>2013-12-08T11:21:37.000Z</time>
      </trkpt>
      <trkpt lat="43.73321" lon="7.02685">
        <ele>1127.1999511719</ele>
        <time>2013-12-08T11:21:43.000Z</time>
      </trkpt>
      <trkpt lat="43.73317" lon="7.02685">
        <ele>1127.8000488281</ele>
        <time>2013-12-08T11:21:45.000Z</time>
      </trkpt>
      <trkpt lat="43.73315" lon="7.02687">
        <ele>1127.8000488281</ele>
        <time>2013-12-08T11:21:47.000Z</time>
      </trkpt>
      <trkpt lat="43.73309" lon="7.02688">
        <ele>1128.1999511719</ele>
        <time>2013-12-08T11:21:53.000Z</time>
      </trkpt>
      <trkpt lat="43.73307" lon="7.02689">
        <ele>1128.4000244141</ele>
        <time>2013-12-08T11:21:59.000Z</time>
      </trkpt>
      <trkpt lat="43.73305" lon="7.02689">
        <ele>1128.5999755859</ele>
        <time>2013-12-08T11:22:05.000Z</time>
      </trkpt>
      <trkpt lat="43.73299" lon="7.02687">
        <ele>1129.5999755859</ele>
        <time>2013-12-08T11:22:19.000Z</time>
      </trkpt>
      <trkpt lat="43.73295" lon="7.02687">
        <ele>1130</ele>
        <time>2013-12-08T11:22:26.000Z</time>
      </trkpt>
      <trkpt lat="43.73285" lon="7.02685">
        <ele>1131.4000244141</ele>
        <time>2013-12-08T11:22:33.000Z</time>
      </trkpt>
      <trkpt lat="43.73275" lon="7.02684">
        <ele>1132.8000488281</ele>
        <time>2013-12-08T11:22:39.000Z</time>
      </trkpt>
      <trkpt lat="43.73267" lon="7.02684">
        <ele>1133.5999755859</ele>
        <time>2013-12-08T11:22:45.000Z</time>
      </trkpt>
      <trkpt lat="43.73264" lon="7.02683">
        <ele>1134.1999511719</ele>
        <time>2013-12-08T11:22:47.000Z</time>
      </trkpt>
      <trkpt lat="43.7326" lon="7.02681">
        <ele>1135.1999511719</ele>
        <time>2013-12-08T11:22:50.000Z</time>
      </trkpt>
      <trkpt lat="43.73251" lon="7.02678">
        <ele>1136.8000488281</ele>
        <time>2013-12-08T11:22:56.000Z</time>
      </trkpt>
      <trkpt lat="43.73244" lon="7.02678">
        <ele>1137.4000244141</ele>
        <time>2013-12-08T11:23:01.000Z</time>
      </trkpt>
      <trkpt lat="43.73236" lon="7.02673">
        <ele>1138.8000488281</ele>
        <time>2013-12-08T11:23:08.000Z</time>
      </trkpt>
      <trkpt lat="43.73228" lon="7.02669">
        <ele>1140.4000244141</ele>
        <time>2013-12-08T11:23:15.000Z</time>
      </trkpt>
      <trkpt lat="43.73223" lon="7.02665">
        <ele>1141.1999511719</ele>
        <time>2013-12-08T11:23:19.000Z</time>
      </trkpt>
      <trkpt lat="43.73218" lon="7.02664">
        <ele>1141.4000244141</ele>
        <time>2013-12-08T11:23:22.000Z</time>
      </trkpt>
      <trkpt lat="43.73215" lon="7.02663">
        <ele>1141.4000244141</ele>
        <time>2013-12-08T11:23:25.000Z</time>
      </trkpt>
      <trkpt lat="43.73214" lon="7.02663">
        <ele>1141.5999755859</ele>
        <time>2013-12-08T11:23:26.000Z</time>
      </trkpt>
      <trkpt lat="43.73209" lon="7.02662">
        <ele>1142</ele>
        <time>2013-12-08T11:23:30.000Z</time>
      </trkpt>
      <trkpt lat="43.73208" lon="7.02661">
        <ele>1141.8000488281</ele>
        <time>2013-12-08T11:23:31.000Z</time>
      </trkpt>
      <trkpt lat="43.73204" lon="7.02659">
        <ele>1142</ele>
        <time>2013-12-08T11:23:36.000Z</time>
      </trkpt>
      <trkpt lat="43.73203" lon="7.02658">
        <ele>1142</ele>
        <time>2013-12-08T11:23:44.000Z</time>
      </trkpt>
      <trkpt lat="43.73202" lon="7.02657">
        <ele>1142</ele>
        <time>2013-12-08T11:23:45.000Z</time>
      </trkpt>
      <trkpt lat="43.73201" lon="7.02657">
        <ele>1142.1999511719</ele>
        <time>2013-12-08T11:23:49.000Z</time>
      </trkpt>
      <trkpt lat="43.73196" lon="7.02658">
        <ele>1142.5999755859</ele>
        <time>2013-12-08T11:23:56.000Z</time>
      </trkpt>
      <trkpt lat="43.7319" lon="7.02659">
        <ele>1143.4000244141</ele>
        <time>2013-12-08T11:24:03.000Z</time>
      </trkpt>
      <trkpt lat="43.73184" lon="7.0266">
        <ele>1144</ele>
        <time>2013-12-08T11:24:10.000Z</time>
      </trkpt>
      <trkpt lat="43.73182" lon="7.0266">
        <ele>1144</ele>
        <time>2013-12-08T11:24:12.000Z</time>
      </trkpt>
      <trkpt lat="43.73179" lon="7.0266">
        <ele>1144.4000244141</ele>
        <time>2013-12-08T11:24:16.000Z</time>
      </trkpt>
      <trkpt lat="43.73172" lon="7.02662">
        <ele>1145.1999511719</ele>
        <time>2013-12-08T11:24:22.000Z</time>
      </trkpt>
      <trkpt lat="43.73166" lon="7.02659">
        <ele>1145.5999755859</ele>
        <time>2013-12-08T11:24:29.000Z</time>
      </trkpt>
      <trkpt lat="43.73165" lon="7.02659">
        <ele>1145.5999755859</ele>
        <time>2013-12-08T11:24:31.000Z</time>
      </trkpt>
      <trkpt lat="43.73161" lon="7.02657">
        <ele>1146</ele>
        <time>2013-12-08T11:24:36.000Z</time>
      </trkpt>
      <trkpt lat="43.73161" lon="7.02656">
        <ele>1146</ele>
        <time>2013-12-08T11:24:37.000Z</time>
      </trkpt>
      <trkpt lat="43.7316" lon="7.02656">
        <ele>1146</ele>
        <time>2013-12-08T11:24:38.000Z</time>
      </trkpt>
      <trkpt lat="43.73157" lon="7.02656">
        <ele>1146.4000244141</ele>
        <time>2013-12-08T11:24:43.000Z</time>
      </trkpt>
      <trkpt lat="43.73149" lon="7.02653">
        <ele>1147</ele>
        <time>2013-12-08T11:24:50.000Z</time>
      </trkpt>
      <trkpt lat="43.73143" lon="7.02652">
        <ele>1147.5999755859</ele>
        <time>2013-12-08T11:24:57.000Z</time>
      </trkpt>
      <trkpt lat="43.73139" lon="7.02651">
        <ele>1148</ele>
        <time>2013-12-08T11:25:01.000Z</time>
      </trkpt>
      <trkpt lat="43.73137" lon="7.02651">
        <ele>1148.1999511719</ele>
        <time>2013-12-08T11:25:05.000Z</time>
      </trkpt>
      <trkpt lat="43.73133" lon="7.02648">
        <ele>1148.5999755859</ele>
        <time>2013-12-08T11:25:12.000Z</time>
      </trkpt>
      <trkpt lat="43.73132" lon="7.02644">
        <ele>1148.5999755859</ele>
        <time>2013-12-08T11:25:22.000Z</time>
      </trkpt>
      <trkpt lat="43.73131" lon="7.02644">
        <ele>1148.8000488281</ele>
        <time>2013-12-08T11:25:29.000Z</time>
      </trkpt>
      <trkpt lat="43.7313" lon="7.02643">
        <ele>1148.8000488281</ele>
        <time>2013-12-08T11:25:34.000Z</time>
      </trkpt>
      <trkpt lat="43.73127" lon="7.02641">
        <ele>1149.1999511719</ele>
        <time>2013-12-08T11:25:42.000Z</time>
      </trkpt>
      <trkpt lat="43.73125" lon="7.02639">
        <ele>1149.4000244141</ele>
        <time>2013-12-08T11:25:43.000Z</time>
      </trkpt>
      <trkpt lat="43.73124" lon="7.02639">
        <ele>1149.4000244141</ele>
        <time>2013-12-08T11:25:47.000Z</time>
      </trkpt>
      <trkpt lat="43.73123" lon="7.02637">
        <ele>1149.5999755859</ele>
        <time>2013-12-08T11:25:49.000Z</time>
      </trkpt>
      <trkpt lat="43.73121" lon="7.02633">
        <ele>1149.8000488281</ele>
        <time>2013-12-08T11:25:53.000Z</time>
      </trkpt>
      <trkpt lat="43.73118" lon="7.02633">
        <ele>1150.1999511719</ele>
        <time>2013-12-08T11:25:59.000Z</time>
      </trkpt>
      <trkpt lat="43.73114" lon="7.02629">
        <ele>1150.5999755859</ele>
        <time>2013-12-08T11:26:06.000Z</time>
      </trkpt>
      <trkpt lat="43.73109" lon="7.02622">
        <ele>1151.1999511719</ele>
        <time>2013-12-08T11:26:15.000Z</time>
      </trkpt>
      <trkpt lat="43.73106" lon="7.02618">
        <ele>1151.8000488281</ele>
        <time>2013-12-08T11:26:22.000Z</time>
      </trkpt>
      <trkpt lat="43.73102" lon="7.02616">
        <ele>1152.4000244141</ele>
        <time>2013-12-08T11:26:29.000Z</time>
      </trkpt>
      <trkpt lat="43.731" lon="7.02613">
        <ele>1152.5999755859</ele>
        <time>2013-12-08T11:26:34.000Z</time>
      </trkpt>
      <trkpt lat="43.73095" lon="7.02609">
        <ele>1153.4000244141</ele>
        <time>2013-12-08T11:26:44.000Z</time>
      </trkpt>
      <trkpt lat="43.73093" lon="7.02604">
        <ele>1153.8000488281</ele>
        <time>2013-12-08T11:26:50.000Z</time>
      </trkpt>
      <trkpt lat="43.73089" lon="7.02605">
        <ele>1154.4000244141</ele>
        <time>2013-12-08T11:26:57.000Z</time>
      </trkpt>
      <trkpt lat="43.73089" lon="7.02603">
        <ele>1154.5999755859</ele>
        <time>2013-12-08T11:27:02.000Z</time>
      </trkpt>
      <trkpt lat="43.73086" lon="7.02602">
        <ele>1155.1999511719</ele>
        <time>2013-12-08T11:27:05.000Z</time>
      </trkpt>
      <trkpt lat="43.73084" lon="7.02602">
        <ele>1155.5999755859</ele>
        <time>2013-12-08T11:27:07.000Z</time>
      </trkpt>
      <trkpt lat="43.73079" lon="7.02601">
        <ele>1156.8000488281</ele>
        <time>2013-12-08T11:27:13.000Z</time>
      </trkpt>
      <trkpt lat="43.73077" lon="7.02601">
        <ele>1157.4000244141</ele>
        <time>2013-12-08T11:27:15.000Z</time>
      </trkpt>
      <trkpt lat="43.73076" lon="7.02601">
        <ele>1157.8000488281</ele>
        <time>2013-12-08T11:27:17.000Z</time>
      </trkpt>
      <trkpt lat="43.7307" lon="7.02601">
        <ele>1159.1999511719</ele>
        <time>2013-12-08T11:27:25.000Z</time>
      </trkpt>
      <trkpt lat="43.73065" lon="7.02601">
        <ele>1160.8000488281</ele>
        <time>2013-12-08T11:27:32.000Z</time>
      </trkpt>
      <trkpt lat="43.73063" lon="7.02602">
        <ele>1161.4000244141</ele>
        <time>2013-12-08T11:27:37.000Z</time>
      </trkpt>
      <trkpt lat="43.73058" lon="7.02601">
        <ele>1162.8000488281</ele>
        <time>2013-12-08T11:27:43.000Z</time>
      </trkpt>
      <trkpt lat="43.73052" lon="7.02602">
        <ele>1164.5999755859</ele>
        <time>2013-12-08T11:27:49.000Z</time>
      </trkpt>
      <trkpt lat="43.7305" lon="7.02602">
        <ele>1165.1999511719</ele>
        <time>2013-12-08T11:27:54.000Z</time>
      </trkpt>
      <trkpt lat="43.73047" lon="7.02602">
        <ele>1166</ele>
        <time>2013-12-08T11:28:00.000Z</time>
      </trkpt>
      <trkpt lat="43.73044" lon="7.02603">
        <ele>1166.8000488281</ele>
        <time>2013-12-08T11:28:05.000Z</time>
      </trkpt>
      <trkpt lat="43.73041" lon="7.026">
        <ele>1167.5999755859</ele>
        <time>2013-12-08T11:28:11.000Z</time>
      </trkpt>
      <trkpt lat="43.73038" lon="7.026">
        <ele>1168.5999755859</ele>
        <time>2013-12-08T11:28:16.000Z</time>
      </trkpt>
      <trkpt lat="43.73033" lon="7.02602">
        <ele>1170</ele>
        <time>2013-12-08T11:28:21.000Z</time>
      </trkpt>
      <trkpt lat="43.73027" lon="7.02603">
        <ele>1171.5999755859</ele>
        <time>2013-12-08T11:28:28.000Z</time>
      </trkpt>
      <trkpt lat="43.73026" lon="7.02602">
        <ele>1172</ele>
        <time>2013-12-08T11:28:30.000Z</time>
      </trkpt>
      <trkpt lat="43.73024" lon="7.02602">
        <ele>1172.5999755859</ele>
        <time>2013-12-08T11:28:34.000Z</time>
      </trkpt>
      <trkpt lat="43.73022" lon="7.02601">
        <ele>1173.1999511719</ele>
        <time>2013-12-08T11:28:39.000Z</time>
      </trkpt>
      <trkpt lat="43.7302" lon="7.02599">
        <ele>1173.8000488281</ele>
        <time>2013-12-08T11:28:41.000Z</time>
      </trkpt>
      <trkpt lat="43.73018" lon="7.02599">
        <ele>1174.5999755859</ele>
        <time>2013-12-08T11:28:45.000Z</time>
      </trkpt>
      <trkpt lat="43.73015" lon="7.02596">
        <ele>1175.5999755859</ele>
        <time>2013-12-08T11:28:51.000Z</time>
      </trkpt>
      <trkpt lat="43.73011" lon="7.02593">
        <ele>1176.8000488281</ele>
        <time>2013-12-08T11:28:55.000Z</time>
      </trkpt>
      <trkpt lat="43.7301" lon="7.02594">
        <ele>1177.4000244141</ele>
        <time>2013-12-08T11:28:57.000Z</time>
      </trkpt>
      <trkpt lat="43.73006" lon="7.02594">
        <ele>1178.4000244141</ele>
        <time>2013-12-08T11:29:00.000Z</time>
      </trkpt>
      <trkpt lat="43.73" lon="7.026">
        <ele>1179.5999755859</ele>
        <time>2013-12-08T11:29:06.000Z</time>
      </trkpt>
      <trkpt lat="43.72996" lon="7.02605">
        <ele>1179.5999755859</ele>
        <time>2013-12-08T11:29:13.000Z</time>
      </trkpt>
      <trkpt lat="43.72989" lon="7.02605">
        <ele>1180</ele>
        <time>2013-12-08T11:29:17.000Z</time>
      </trkpt>
      <trkpt lat="43.72988" lon="7.02605">
        <ele>1180.1999511719</ele>
        <time>2013-12-08T11:29:18.000Z</time>
      </trkpt>
      <trkpt lat="43.72987" lon="7.02602">
        <ele>1180.5999755859</ele>
        <time>2013-12-08T11:29:20.000Z</time>
      </trkpt>
      <trkpt lat="43.72985" lon="7.02597">
        <ele>1181.1999511719</ele>
        <time>2013-12-08T11:29:24.000Z</time>
      </trkpt>
      <trkpt lat="43.72984" lon="7.02597">
        <ele>1181.4000244141</ele>
        <time>2013-12-08T11:29:25.000Z</time>
      </trkpt>
      <trkpt lat="43.72981" lon="7.02594">
        <ele>1181.8000488281</ele>
        <time>2013-12-08T11:29:30.000Z</time>
      </trkpt>
      <trkpt lat="43.72979" lon="7.02592">
        <ele>1182.1999511719</ele>
        <time>2013-12-08T11:29:32.000Z</time>
      </trkpt>
      <trkpt lat="43.72979" lon="7.02591">
        <ele>1182.4000244141</ele>
        <time>2013-12-08T11:29:35.000Z</time>
      </trkpt>
      <trkpt lat="43.7298" lon="7.02592">
        <ele>1182.1999511719</ele>
        <time>2013-12-08T11:29:44.000Z</time>
      </trkpt>
      <trkpt lat="43.72977" lon="7.02591">
        <ele>1182.5999755859</ele>
        <time>2013-12-08T11:35:04.000Z</time>
      </trkpt>
      <trkpt lat="43.72975" lon="7.02585">
        <ele>1183.5999755859</ele>
        <time>2013-12-08T11:35:18.000Z</time>
      </trkpt>
      <trkpt lat="43.72975" lon="7.02591">
        <ele>1182.8000488281</ele>
        <time>2013-12-08T11:36:12.000Z</time>
      </trkpt>
      <trkpt lat="43.72974" lon="7.02583">
        <ele>1183.8000488281</ele>
        <time>2013-12-08T11:37:57.000Z</time>
      </trkpt>
      <trkpt lat="43.72973" lon="7.02579">
        <ele>1183.8000488281</ele>
        <time>2013-12-08T11:38:03.000Z</time>
      </trkpt>
      <trkpt lat="43.72971" lon="7.02573">
        <ele>1183.8000488281</ele>
        <time>2013-12-08T11:38:10.000Z</time>
      </trkpt>
      <trkpt lat="43.7297" lon="7.0257">
        <ele>1183.8000488281</ele>
        <time>2013-12-08T11:38:15.000Z</time>
      </trkpt>
      <trkpt lat="43.72968" lon="7.02568">
        <ele>1184</ele>
        <time>2013-12-08T11:38:22.000Z</time>
      </trkpt>
      <trkpt lat="43.72964" lon="7.02564">
        <ele>1184.5999755859</ele>
        <time>2013-12-08T11:38:41.000Z</time>
      </trkpt>
      <trkpt lat="43.72958" lon="7.02557">
        <ele>1185.5999755859</ele>
        <time>2013-12-08T11:38:48.000Z</time>
      </trkpt>
      <trkpt lat="43.72959" lon="7.0255">
        <ele>1185.5999755859</ele>
        <time>2013-12-08T11:38:53.000Z</time>
      </trkpt>
      <trkpt lat="43.72959" lon="7.02549">
        <ele>1185.5999755859</ele>
        <time>2013-12-08T11:38:54.000Z</time>
      </trkpt>
      <trkpt lat="43.72958" lon="7.02547">
        <ele>1185.8000488281</ele>
        <time>2013-12-08T11:38:55.000Z</time>
      </trkpt>
      <trkpt lat="43.72956" lon="7.02544">
        <ele>1186.4000244141</ele>
        <time>2013-12-08T11:38:59.000Z</time>
      </trkpt>
      <trkpt lat="43.72955" lon="7.02542">
        <ele>1186.5999755859</ele>
        <time>2013-12-08T11:39:01.000Z</time>
      </trkpt>
      <trkpt lat="43.72953" lon="7.02539">
        <ele>1187.1999511719</ele>
        <time>2013-12-08T11:39:05.000Z</time>
      </trkpt>
      <trkpt lat="43.72951" lon="7.02531">
        <ele>1188</ele>
        <time>2013-12-08T11:39:13.000Z</time>
      </trkpt>
      <trkpt lat="43.72951" lon="7.02523">
        <ele>1188.1999511719</ele>
        <time>2013-12-08T11:39:21.000Z</time>
      </trkpt>
      <trkpt lat="43.72952" lon="7.02512">
        <ele>1188.1999511719</ele>
        <time>2013-12-08T11:39:30.000Z</time>
      </trkpt>
      <trkpt lat="43.72952" lon="7.02503">
        <ele>1188.4000244141</ele>
        <time>2013-12-08T11:39:39.000Z</time>
      </trkpt>
      <trkpt lat="43.7295" lon="7.02495">
        <ele>1189.1999511719</ele>
        <time>2013-12-08T11:39:46.000Z</time>
      </trkpt>
      <trkpt lat="43.72948" lon="7.02487">
        <ele>1189.8000488281</ele>
        <time>2013-12-08T11:39:53.000Z</time>
      </trkpt>
      <trkpt lat="43.72946" lon="7.02485">
        <ele>1191</ele>
        <time>2013-12-08T11:39:59.000Z</time>
      </trkpt>
      <trkpt lat="43.72944" lon="7.02479">
        <ele>1191.5999755859</ele>
        <time>2013-12-08T11:40:04.000Z</time>
      </trkpt>
      <trkpt lat="43.72944" lon="7.02479">
        <ele>1192</ele>
        <time>2013-12-08T11:40:05.000Z</time>
      </trkpt>
      <trkpt lat="43.72941" lon="7.02474">
        <ele>1193.4000244141</ele>
        <time>2013-12-08T11:40:10.000Z</time>
      </trkpt>
      <trkpt lat="43.72941" lon="7.02471">
        <ele>1193.8000488281</ele>
        <time>2013-12-08T11:40:13.000Z</time>
      </trkpt>
      <trkpt lat="43.72937" lon="7.02468">
        <ele>1195.8000488281</ele>
        <time>2013-12-08T11:40:19.000Z</time>
      </trkpt>
      <trkpt lat="43.72933" lon="7.02464">
        <ele>1198.4000244141</ele>
        <time>2013-12-08T11:40:26.000Z</time>
      </trkpt>
      <trkpt lat="43.72932" lon="7.0246">
        <ele>1199.4000244141</ele>
        <time>2013-12-08T11:40:34.000Z</time>
      </trkpt>
      <trkpt lat="43.72928" lon="7.02457">
        <ele>1201.8000488281</ele>
        <time>2013-12-08T11:40:43.000Z</time>
      </trkpt>
      <trkpt lat="43.72926" lon="7.02457">
        <ele>1203.1999511719</ele>
        <time>2013-12-08T11:40:48.000Z</time>
      </trkpt>
      <trkpt lat="43.72922" lon="7.02452">
        <ele>1206</ele>
        <time>2013-12-08T11:40:55.000Z</time>
      </trkpt>
      <trkpt lat="43.72921" lon="7.02451">
        <ele>1207</ele>
        <time>2013-12-08T11:41:01.000Z</time>
      </trkpt>
      <trkpt lat="43.72919" lon="7.0245">
        <ele>1208.5999755859</ele>
        <time>2013-12-08T11:41:06.000Z</time>
      </trkpt>
      <trkpt lat="43.72915" lon="7.02449">
        <ele>1210.1999511719</ele>
        <time>2013-12-08T11:41:11.000Z</time>
      </trkpt>
      <trkpt lat="43.72914" lon="7.02449">
        <ele>1210.1999511719</ele>
        <time>2013-12-08T11:41:12.000Z</time>
      </trkpt>
      <trkpt lat="43.7291" lon="7.02447">
        <ele>1211.1999511719</ele>
        <time>2013-12-08T11:41:19.000Z</time>
      </trkpt>
      <trkpt lat="43.72906" lon="7.02445">
        <ele>1212.1999511719</ele>
        <time>2013-12-08T11:41:26.000Z</time>
      </trkpt>
      <trkpt lat="43.72903" lon="7.0244">
        <ele>1213.4000244141</ele>
        <time>2013-12-08T11:41:32.000Z</time>
      </trkpt>
      <trkpt lat="43.72902" lon="7.02434">
        <ele>1214.4000244141</ele>
        <time>2013-12-08T11:41:38.000Z</time>
      </trkpt>
      <trkpt lat="43.72898" lon="7.02433">
        <ele>1215.1999511719</ele>
        <time>2013-12-08T11:41:44.000Z</time>
      </trkpt>
      <trkpt lat="43.72894" lon="7.02428">
        <ele>1216.5999755859</ele>
        <time>2013-12-08T11:41:53.000Z</time>
      </trkpt>
      <trkpt lat="43.7289" lon="7.02421">
        <ele>1218.4000244141</ele>
        <time>2013-12-08T11:42:01.000Z</time>
      </trkpt>
      <trkpt lat="43.72886" lon="7.02422">
        <ele>1218.8000488281</ele>
        <time>2013-12-08T11:42:07.000Z</time>
      </trkpt>
      <trkpt lat="43.72883" lon="7.02422">
        <ele>1219.1999511719</ele>
        <time>2013-12-08T11:42:10.000Z</time>
      </trkpt>
      <trkpt lat="43.72883" lon="7.02422">
        <ele>1219.4000244141</ele>
        <time>2013-12-08T11:42:14.000Z</time>
      </trkpt>
      <trkpt lat="43.72882" lon="7.0242">
        <ele>1220</ele>
        <time>2013-12-08T11:42:32.000Z</time>
      </trkpt>
      <trkpt lat="43.72874" lon="7.02421">
        <ele>1220.8000488281</ele>
        <time>2013-12-08T11:47:11.000Z</time>
      </trkpt>
      <trkpt lat="43.72863" lon="7.02424">
        <ele>1222</ele>
        <time>2013-12-08T11:47:16.000Z</time>
      </trkpt>
      <trkpt lat="43.72848" lon="7.02428">
        <ele>1223.8000488281</ele>
        <time>2013-12-08T11:47:21.000Z</time>
      </trkpt>
      <trkpt lat="43.72838" lon="7.0243">
        <ele>1224.8000488281</ele>
        <time>2013-12-08T11:47:25.000Z</time>
      </trkpt>
      <trkpt lat="43.72827" lon="7.02431">
        <ele>1225</ele>
        <time>2013-12-08T11:47:30.000Z</time>
      </trkpt>
      <trkpt lat="43.72827" lon="7.02431">
        <ele>1225</ele>
        <time>2013-12-08T11:47:35.000Z</time>
      </trkpt>
      <trkpt lat="43.72824" lon="7.02442">
        <ele>1222.5999755859</ele>
        <time>2013-12-08T11:48:58.000Z</time>
      </trkpt>
      <trkpt lat="43.72825" lon="7.02447">
        <ele>1221.8000488281</ele>
        <time>2013-12-08T11:49:00.000Z</time>
      </trkpt>
      <trkpt lat="43.72821" lon="7.02453">
        <ele>1220.5999755859</ele>
        <time>2013-12-08T11:49:03.000Z</time>
      </trkpt>
      <trkpt lat="43.72813" lon="7.02465">
        <ele>1218.4000244141</ele>
        <time>2013-12-08T11:49:06.000Z</time>
      </trkpt>
      <trkpt lat="43.72804" lon="7.02477">
        <ele>1216.4000244141</ele>
        <time>2013-12-08T11:49:10.000Z</time>
      </trkpt>
      <trkpt lat="43.72802" lon="7.0248">
        <ele>1215.8000488281</ele>
        <time>2013-12-08T11:49:14.000Z</time>
      </trkpt>
      <trkpt lat="43.72801" lon="7.02483">
        <ele>1215.4000244141</ele>
        <time>2013-12-08T11:49:46.000Z</time>
      </trkpt>
      <trkpt lat="43.72797" lon="7.02488">
        <ele>1214.5999755859</ele>
        <time>2013-12-08T11:49:50.000Z</time>
      </trkpt>
      <trkpt lat="43.72794" lon="7.0249">
        <ele>1214.4000244141</ele>
        <time>2013-12-08T11:49:54.000Z</time>
      </trkpt>
      <trkpt lat="43.72786" lon="7.02498">
        <ele>1213.4000244141</ele>
        <time>2013-12-08T11:49:59.000Z</time>
      </trkpt>
      <trkpt lat="43.72778" lon="7.02509">
        <ele>1211.8000488281</ele>
        <time>2013-12-08T11:50:04.000Z</time>
      </trkpt>
      <trkpt lat="43.72777" lon="7.0251">
        <ele>1211.5999755859</ele>
        <time>2013-12-08T11:50:05.000Z</time>
      </trkpt>
      <trkpt lat="43.72777" lon="7.0251">
        <ele>1211.5999755859</ele>
        <time>2013-12-08T11:50:09.000Z</time>
      </trkpt>
      <trkpt lat="43.72775" lon="7.02514">
        <ele>1211</ele>
        <time>2013-12-08T11:50:15.000Z</time>
      </trkpt>
      <trkpt lat="43.72766" lon="7.02524">
        <ele>1209.4000244141</ele>
        <time>2013-12-08T11:50:20.000Z</time>
      </trkpt>
      <trkpt lat="43.72759" lon="7.0253">
        <ele>1208.5999755859</ele>
        <time>2013-12-08T11:50:23.000Z</time>
      </trkpt>
      <trkpt lat="43.72757" lon="7.02532">
        <ele>1208.1999511719</ele>
        <time>2013-12-08T11:50:24.000Z</time>
      </trkpt>
      <trkpt lat="43.72747" lon="7.02538">
        <ele>1207.1999511719</ele>
        <time>2013-12-08T11:50:27.000Z</time>
      </trkpt>
      <trkpt lat="43.72743" lon="7.0254">
        <ele>1206.1999511719</ele>
        <time>2013-12-08T11:50:28.000Z</time>
      </trkpt>
      <trkpt lat="43.72714" lon="7.02559">
        <ele>1200.4000244141</ele>
        <time>2013-12-08T11:50:34.000Z</time>
      </trkpt>
      <trkpt lat="43.72697" lon="7.02568">
        <ele>1198</ele>
        <time>2013-12-08T11:50:38.000Z</time>
      </trkpt>
      <trkpt lat="43.72695" lon="7.02572">
        <ele>1197.5999755859</ele>
        <time>2013-12-08T11:50:39.000Z</time>
      </trkpt>
      <trkpt lat="43.72678" lon="7.02595">
        <ele>1194</ele>
        <time>2013-12-08T11:50:45.000Z</time>
      </trkpt>
      <trkpt lat="43.72676" lon="7.02599">
        <ele>1193.5999755859</ele>
        <time>2013-12-08T11:50:46.000Z</time>
      </trkpt>
      <trkpt lat="43.72669" lon="7.02611">
        <ele>1191.8000488281</ele>
        <time>2013-12-08T11:50:50.000Z</time>
      </trkpt>
      <trkpt lat="43.72667" lon="7.02614">
        <ele>1191.4000244141</ele>
        <time>2013-12-08T11:50:51.000Z</time>
      </trkpt>
      <trkpt lat="43.72667" lon="7.0262">
        <ele>1190.5999755859</ele>
        <time>2013-12-08T11:50:53.000Z</time>
      </trkpt>
      <trkpt lat="43.72668" lon="7.02624">
        <ele>1190.1999511719</ele>
        <time>2013-12-08T11:50:54.000Z</time>
      </trkpt>
      <trkpt lat="43.72665" lon="7.02636">
        <ele>1188.1999511719</ele>
        <time>2013-12-08T11:50:58.000Z</time>
      </trkpt>
      <trkpt lat="43.72657" lon="7.02649">
        <ele>1184.4000244141</ele>
        <time>2013-12-08T11:51:03.000Z</time>
      </trkpt>
      <trkpt lat="43.72653" lon="7.02659">
        <ele>1182</ele>
        <time>2013-12-08T11:51:06.000Z</time>
      </trkpt>
      <trkpt lat="43.72651" lon="7.02662">
        <ele>1181.1999511719</ele>
        <time>2013-12-08T11:51:07.000Z</time>
      </trkpt>
      <trkpt lat="43.72648" lon="7.02682">
        <ele>1177</ele>
        <time>2013-12-08T11:51:12.000Z</time>
      </trkpt>
      <trkpt lat="43.72646" lon="7.02685">
        <ele>1176</ele>
        <time>2013-12-08T11:51:16.000Z</time>
      </trkpt>
      <trkpt lat="43.72645" lon="7.0269">
        <ele>1175</ele>
        <time>2013-12-08T11:51:26.000Z</time>
      </trkpt>
      <trkpt lat="43.72644" lon="7.02692">
        <ele>1174.1999511719</ele>
        <time>2013-12-08T11:51:32.000Z</time>
      </trkpt>
      <trkpt lat="43.72642" lon="7.027">
        <ele>1172.4000244141</ele>
        <time>2013-12-08T11:51:35.000Z</time>
      </trkpt>
      <trkpt lat="43.72636" lon="7.02708">
        <ele>1169.5999755859</ele>
        <time>2013-12-08T11:51:40.000Z</time>
      </trkpt>
      <trkpt lat="43.72627" lon="7.02715">
        <ele>1166.4000244141</ele>
        <time>2013-12-08T11:51:46.000Z</time>
      </trkpt>
      <trkpt lat="43.72626" lon="7.02716">
        <ele>1166</ele>
        <time>2013-12-08T11:51:51.000Z</time>
      </trkpt>
      <trkpt lat="43.72625" lon="7.0272">
        <ele>1165</ele>
        <time>2013-12-08T11:51:56.000Z</time>
      </trkpt>
      <trkpt lat="43.72624" lon="7.02723">
        <ele>1164.4000244141</ele>
        <time>2013-12-08T11:52:02.000Z</time>
      </trkpt>
      <trkpt lat="43.72622" lon="7.02723">
        <ele>1164</ele>
        <time>2013-12-08T11:52:04.000Z</time>
      </trkpt>
      <trkpt lat="43.72619" lon="7.02727">
        <ele>1162.8000488281</ele>
        <time>2013-12-08T11:52:07.000Z</time>
      </trkpt>
      <trkpt lat="43.72613" lon="7.02733">
        <ele>1160.8000488281</ele>
        <time>2013-12-08T11:52:13.000Z</time>
      </trkpt>
      <trkpt lat="43.72611" lon="7.02744">
        <ele>1158.8000488281</ele>
        <time>2013-12-08T11:52:17.000Z</time>
      </trkpt>
      <trkpt lat="43.72607" lon="7.02757">
        <ele>1156</ele>
        <time>2013-12-08T11:52:21.000Z</time>
      </trkpt>
      <trkpt lat="43.72602" lon="7.02763">
        <ele>1154.4000244141</ele>
        <time>2013-12-08T11:52:25.000Z</time>
      </trkpt>
      <trkpt lat="43.726" lon="7.02766">
        <ele>1153.5999755859</ele>
        <time>2013-12-08T11:52:28.000Z</time>
      </trkpt>
      <trkpt lat="43.726" lon="7.02765">
        <ele>1153.5999755859</ele>
        <time>2013-12-08T11:52:29.000Z</time>
      </trkpt>
      <trkpt lat="43.72598" lon="7.02772">
        <ele>1152.4000244141</ele>
        <time>2013-12-08T11:52:39.000Z</time>
      </trkpt>
      <trkpt lat="43.72596" lon="7.02773">
        <ele>1151.8000488281</ele>
        <time>2013-12-08T11:52:48.000Z</time>
      </trkpt>
      <trkpt lat="43.72594" lon="7.02773">
        <ele>1151.5999755859</ele>
        <time>2013-12-08T11:52:53.000Z</time>
      </trkpt>
      <trkpt lat="43.72592" lon="7.02779">
        <ele>1150.4000244141</ele>
        <time>2013-12-08T11:53:01.000Z</time>
      </trkpt>
      <trkpt lat="43.72588" lon="7.02785">
        <ele>1149</ele>
        <time>2013-12-08T11:53:08.000Z</time>
      </trkpt>
      <trkpt lat="43.72587" lon="7.02798">
        <ele>1147</ele>
        <time>2013-12-08T11:53:13.000Z</time>
      </trkpt>
      <trkpt lat="43.72586" lon="7.02799">
        <ele>1146.8000488281</ele>
        <time>2013-12-08T11:53:14.000Z</time>
      </trkpt>
      <trkpt lat="43.72584" lon="7.02811">
        <ele>1145</ele>
        <time>2013-12-08T11:53:17.000Z</time>
      </trkpt>
      <trkpt lat="43.72583" lon="7.02813">
        <ele>1144.5999755859</ele>
        <time>2013-12-08T11:53:18.000Z</time>
      </trkpt>
      <trkpt lat="43.72583" lon="7.02816">
        <ele>1144.1999511719</ele>
        <time>2013-12-08T11:53:21.000Z</time>
      </trkpt>
      <trkpt lat="43.72582" lon="7.02815">
        <ele>1143.8000488281</ele>
        <time>2013-12-08T11:53:48.000Z</time>
      </trkpt>
      <trkpt lat="43.72582" lon="7.02817">
        <ele>1143.5999755859</ele>
        <time>2013-12-08T11:53:50.000Z</time>
      </trkpt>
      <trkpt lat="43.72579" lon="7.0282">
        <ele>1142.4000244141</ele>
        <time>2013-12-08T11:53:55.000Z</time>
      </trkpt>
      <trkpt lat="43.72578" lon="7.0282">
        <ele>1141.8000488281</ele>
        <time>2013-12-08T11:54:00.000Z</time>
      </trkpt>
      <trkpt lat="43.72578" lon="7.02821">
        <ele>1141.8000488281</ele>
        <time>2013-12-08T11:54:08.000Z</time>
      </trkpt>
      <trkpt lat="43.72575" lon="7.02821">
        <ele>1141</ele>
        <time>2013-12-08T11:54:15.000Z</time>
      </trkpt>
      <trkpt lat="43.72569" lon="7.02824">
        <ele>1138.5999755859</ele>
        <time>2013-12-08T11:54:20.000Z</time>
      </trkpt>
      <trkpt lat="43.72567" lon="7.02829">
        <ele>1137.1999511719</ele>
        <time>2013-12-08T11:54:24.000Z</time>
      </trkpt>
      <trkpt lat="43.72567" lon="7.0283">
        <ele>1137.1999511719</ele>
        <time>2013-12-08T11:54:25.000Z</time>
      </trkpt>
      <trkpt lat="43.72567" lon="7.02831">
        <ele>1137</ele>
        <time>2013-12-08T11:54:26.000Z</time>
      </trkpt>
      <trkpt lat="43.72566" lon="7.02834">
        <ele>1136.1999511719</ele>
        <time>2013-12-08T11:54:28.000Z</time>
      </trkpt>
      <trkpt lat="43.72565" lon="7.02835">
        <ele>1136</ele>
        <time>2013-12-08T11:54:29.000Z</time>
      </trkpt>
      <trkpt lat="43.72564" lon="7.02836">
        <ele>1135.4000244141</ele>
        <time>2013-12-08T11:54:34.000Z</time>
      </trkpt>
      <trkpt lat="43.7256" lon="7.02835">
        <ele>1134.1999511719</ele>
        <time>2013-12-08T11:54:39.000Z</time>
      </trkpt>
      <trkpt lat="43.72558" lon="7.02836">
        <ele>1133.4000244141</ele>
        <time>2013-12-08T11:54:45.000Z</time>
      </trkpt>
      <trkpt lat="43.72552" lon="7.02839">
        <ele>1130.8000488281</ele>
        <time>2013-12-08T11:54:49.000Z</time>
      </trkpt>
      <trkpt lat="43.72546" lon="7.02842">
        <ele>1128.5999755859</ele>
        <time>2013-12-08T11:54:53.000Z</time>
      </trkpt>
      <trkpt lat="43.72538" lon="7.02846">
        <ele>1125.5999755859</ele>
        <time>2013-12-08T11:54:58.000Z</time>
      </trkpt>
      <trkpt lat="43.72535" lon="7.02846">
        <ele>1124.8000488281</ele>
        <time>2013-12-08T11:55:00.000Z</time>
      </trkpt>
      <trkpt lat="43.7253" lon="7.02848">
        <ele>1122.8000488281</ele>
        <time>2013-12-08T11:55:03.000Z</time>
      </trkpt>
      <trkpt lat="43.72527" lon="7.02848">
        <ele>1122</ele>
        <time>2013-12-08T11:55:06.000Z</time>
      </trkpt>
      <trkpt lat="43.72523" lon="7.02847">
        <ele>1121</ele>
        <time>2013-12-08T11:55:09.000Z</time>
      </trkpt>
      <trkpt lat="43.72523" lon="7.02847">
        <ele>1121</ele>
        <time>2013-12-08T11:55:10.000Z</time>
      </trkpt>
      <trkpt lat="43.72523" lon="7.02847">
        <ele>1121</ele>
        <time>2013-12-08T11:55:13.000Z</time>
      </trkpt>
      <trkpt lat="43.72523" lon="7.02849">
        <ele>1120.5999755859</ele>
        <time>2013-12-08T11:55:16.000Z</time>
      </trkpt>
      <trkpt lat="43.72521" lon="7.02853">
        <ele>1119.5999755859</ele>
        <time>2013-12-08T11:55:20.000Z</time>
      </trkpt>
      <trkpt lat="43.7252" lon="7.02854">
        <ele>1119.1999511719</ele>
        <time>2013-12-08T11:55:26.000Z</time>
      </trkpt>
      <trkpt lat="43.72516" lon="7.02858">
        <ele>1117.5999755859</ele>
        <time>2013-12-08T11:55:56.000Z</time>
      </trkpt>
      <trkpt lat="43.72508" lon="7.02863">
        <ele>1114.8000488281</ele>
        <time>2013-12-08T11:56:01.000Z</time>
      </trkpt>
      <trkpt lat="43.72504" lon="7.02866">
        <ele>1113.4000244141</ele>
        <time>2013-12-08T11:56:03.000Z</time>
      </trkpt>
      <trkpt lat="43.72501" lon="7.02869">
        <ele>1112.1999511719</ele>
        <time>2013-12-08T11:56:05.000Z</time>
      </trkpt>
      <trkpt lat="43.72492" lon="7.02874">
        <ele>1108.8000488281</ele>
        <time>2013-12-08T11:56:10.000Z</time>
      </trkpt>
      <trkpt lat="43.72486" lon="7.02874">
        <ele>1106.5999755859</ele>
        <time>2013-12-08T11:56:13.000Z</time>
      </trkpt>
      <trkpt lat="43.72481" lon="7.0287">
        <ele>1105.1999511719</ele>
        <time>2013-12-08T11:56:15.000Z</time>
      </trkpt>
      <trkpt lat="43.72472" lon="7.02867">
        <ele>1102</ele>
        <time>2013-12-08T11:56:20.000Z</time>
      </trkpt>
      <trkpt lat="43.72469" lon="7.0287">
        <ele>1100.5999755859</ele>
        <time>2013-12-08T11:56:22.000Z</time>
      </trkpt>
      <trkpt lat="43.72467" lon="7.0287">
        <ele>1100</ele>
        <time>2013-12-08T11:56:23.000Z</time>
      </trkpt>
      <trkpt lat="43.72465" lon="7.0287">
        <ele>1099.4000244141</ele>
        <time>2013-12-08T11:56:25.000Z</time>
      </trkpt>
      <trkpt lat="43.72459" lon="7.02874">
        <ele>1096.8000488281</ele>
        <time>2013-12-08T11:56:29.000Z</time>
      </trkpt>
      <trkpt lat="43.72451" lon="7.02875">
        <ele>1094.1999511719</ele>
        <time>2013-12-08T11:56:33.000Z</time>
      </trkpt>
      <trkpt lat="43.72449" lon="7.02875">
        <ele>1093.4000244141</ele>
        <time>2013-12-08T11:56:34.000Z</time>
      </trkpt>
      <trkpt lat="43.72447" lon="7.02875">
        <ele>1092.8000488281</ele>
        <time>2013-12-08T11:56:35.000Z</time>
      </trkpt>
      <trkpt lat="43.72444" lon="7.02879">
        <ele>1091.4000244141</ele>
        <time>2013-12-08T11:56:38.000Z</time>
      </trkpt>
      <trkpt lat="43.72439" lon="7.02881">
        <ele>1089.5999755859</ele>
        <time>2013-12-08T11:56:42.000Z</time>
      </trkpt>
      <trkpt lat="43.72435" lon="7.02886">
        <ele>1088.1999511719</ele>
        <time>2013-12-08T11:56:45.000Z</time>
      </trkpt>
      <trkpt lat="43.72432" lon="7.02891">
        <ele>1087</ele>
        <time>2013-12-08T11:56:47.000Z</time>
      </trkpt>
      <trkpt lat="43.72425" lon="7.02901">
        <ele>1084.1999511719</ele>
        <time>2013-12-08T11:56:51.000Z</time>
      </trkpt>
      <trkpt lat="43.72423" lon="7.02904">
        <ele>1083.4000244141</ele>
        <time>2013-12-08T11:56:52.000Z</time>
      </trkpt>
      <trkpt lat="43.72414" lon="7.02915">
        <ele>1080.1999511719</ele>
        <time>2013-12-08T11:56:57.000Z</time>
      </trkpt>
      <trkpt lat="43.72413" lon="7.02915">
        <ele>1079.5999755859</ele>
        <time>2013-12-08T11:56:58.000Z</time>
      </trkpt>
      <trkpt lat="43.72412" lon="7.02914">
        <ele>1079.1999511719</ele>
        <time>2013-12-08T11:57:00.000Z</time>
      </trkpt>
      <trkpt lat="43.72411" lon="7.02916">
        <ele>1078.8000488281</ele>
        <time>2013-12-08T11:57:07.000Z</time>
      </trkpt>
      <trkpt lat="43.72405" lon="7.02912">
        <ele>1077</ele>
        <time>2013-12-08T11:59:10.000Z</time>
      </trkpt>
      <trkpt lat="43.724" lon="7.02905">
        <ele>1074.8000488281</ele>
        <time>2013-12-08T11:59:16.000Z</time>
      </trkpt>
      <trkpt lat="43.72399" lon="7.02903">
        <ele>1074.4000244141</ele>
        <time>2013-12-08T11:59:21.000Z</time>
      </trkpt>
      <trkpt lat="43.72395" lon="7.02902">
        <ele>1073.1999511719</ele>
        <time>2013-12-08T11:59:26.000Z</time>
      </trkpt>
      <trkpt lat="43.72393" lon="7.02897">
        <ele>1072.1999511719</ele>
        <time>2013-12-08T11:59:31.000Z</time>
      </trkpt>
      <trkpt lat="43.72385" lon="7.02885">
        <ele>1069.1999511719</ele>
        <time>2013-12-08T11:59:35.000Z</time>
      </trkpt>
      <trkpt lat="43.72377" lon="7.02876">
        <ele>1066.1999511719</ele>
        <time>2013-12-08T11:59:38.000Z</time>
      </trkpt>
      <trkpt lat="43.72376" lon="7.02877">
        <ele>1065.5999755859</ele>
        <time>2013-12-08T11:59:39.000Z</time>
      </trkpt>
      <trkpt lat="43.7237" lon="7.02885">
        <ele>1063.5999755859</ele>
        <time>2013-12-08T11:59:42.000Z</time>
      </trkpt>
      <trkpt lat="43.72368" lon="7.02889">
        <ele>1062.5999755859</ele>
        <time>2013-12-08T11:59:43.000Z</time>
      </trkpt>
      <trkpt lat="43.72361" lon="7.02899">
        <ele>1060</ele>
        <time>2013-12-08T11:59:47.000Z</time>
      </trkpt>
      <trkpt lat="43.72359" lon="7.02899">
        <ele>1059</ele>
        <time>2013-12-08T11:59:49.000Z</time>
      </trkpt>
      <trkpt lat="43.72356" lon="7.02897">
        <ele>1058.1999511719</ele>
        <time>2013-12-08T11:59:51.000Z</time>
      </trkpt>
      <trkpt lat="43.72353" lon="7.02891">
        <ele>1056.8000488281</ele>
        <time>2013-12-08T11:59:53.000Z</time>
      </trkpt>
      <trkpt lat="43.72349" lon="7.02884">
        <ele>1055</ele>
        <time>2013-12-08T11:59:55.000Z</time>
      </trkpt>
      <trkpt lat="43.72346" lon="7.02879">
        <ele>1053.5999755859</ele>
        <time>2013-12-08T11:59:57.000Z</time>
      </trkpt>
      <trkpt lat="43.7234" lon="7.0288">
        <ele>1051.1999511719</ele>
        <time>2013-12-08T11:59:59.000Z</time>
      </trkpt>
      <trkpt lat="43.72334" lon="7.02886">
        <ele>1049</ele>
        <time>2013-12-08T12:00:03.000Z</time>
      </trkpt>
      <trkpt lat="43.72329" lon="7.0288">
        <ele>1046.5999755859</ele>
        <time>2013-12-08T12:00:06.000Z</time>
      </trkpt>
      <trkpt lat="43.72324" lon="7.02878">
        <ele>1044.1999511719</ele>
        <time>2013-12-08T12:00:09.000Z</time>
      </trkpt>
      <trkpt lat="43.72326" lon="7.02866">
        <ele>1044.4000244141</ele>
        <time>2013-12-08T12:00:13.000Z</time>
      </trkpt>
      <trkpt lat="43.72326" lon="7.02863">
        <ele>1044.1999511719</ele>
        <time>2013-12-08T12:00:14.000Z</time>
      </trkpt>
      <trkpt lat="43.72322" lon="7.02855">
        <ele>1041.8000488281</ele>
        <time>2013-12-08T12:00:17.000Z</time>
      </trkpt>
      <trkpt lat="43.7232" lon="7.02855">
        <ele>1041.1999511719</ele>
        <time>2013-12-08T12:00:18.000Z</time>
      </trkpt>
      <trkpt lat="43.72318" lon="7.02858">
        <ele>1040.1999511719</ele>
        <time>2013-12-08T12:00:20.000Z</time>
      </trkpt>
      <trkpt lat="43.72318" lon="7.02854">
        <ele>1039.8000488281</ele>
        <time>2013-12-08T12:00:23.000Z</time>
      </trkpt>
      <trkpt lat="43.7232" lon="7.0284">
        <ele>1040.4000244141</ele>
        <time>2013-12-08T12:00:27.000Z</time>
      </trkpt>
      <trkpt lat="43.72317" lon="7.02841">
        <ele>1039</ele>
        <time>2013-12-08T12:00:30.000Z</time>
      </trkpt>
      <trkpt lat="43.72314" lon="7.02843">
        <ele>1037.1999511719</ele>
        <time>2013-12-08T12:00:32.000Z</time>
      </trkpt>
      <trkpt lat="43.72306" lon="7.02845">
        <ele>1033.4000244141</ele>
        <time>2013-12-08T12:00:35.000Z</time>
      </trkpt>
      <trkpt lat="43.72301" lon="7.02846">
        <ele>1030.5999755859</ele>
        <time>2013-12-08T12:00:39.000Z</time>
      </trkpt>
      <trkpt lat="43.72301" lon="7.02841">
        <ele>1030.5999755859</ele>
        <time>2013-12-08T12:00:44.000Z</time>
      </trkpt>
      <trkpt lat="43.72301" lon="7.0284">
        <ele>1030.5999755859</ele>
        <time>2013-12-08T12:00:46.000Z</time>
      </trkpt>
      <trkpt lat="43.72301" lon="7.02837">
        <ele>1030</ele>
        <time>2013-12-08T12:00:49.000Z</time>
      </trkpt>
      <trkpt lat="43.72298" lon="7.02835">
        <ele>1028.5999755859</ele>
        <time>2013-12-08T12:00:54.000Z</time>
      </trkpt>
      <trkpt lat="43.72299" lon="7.02832">
        <ele>1028.5999755859</ele>
        <time>2013-12-08T12:01:01.000Z</time>
      </trkpt>
      <trkpt lat="43.72293" lon="7.02831">
        <ele>1025.8000488281</ele>
        <time>2013-12-08T12:01:11.000Z</time>
      </trkpt>
      <trkpt lat="43.72295" lon="7.02829">
        <ele>1026.1999511719</ele>
        <time>2013-12-08T12:01:15.000Z</time>
      </trkpt>
      <trkpt lat="43.72293" lon="7.02828">
        <ele>1025</ele>
        <time>2013-12-08T12:01:18.000Z</time>
      </trkpt>
      <trkpt lat="43.72292" lon="7.02828">
        <ele>1024.4000244141</ele>
        <time>2013-12-08T12:01:19.000Z</time>
      </trkpt>
      <trkpt lat="43.72287" lon="7.02833">
        <ele>1022.4000244141</ele>
        <time>2013-12-08T12:01:22.000Z</time>
      </trkpt>
      <trkpt lat="43.72283" lon="7.02833">
        <ele>1020.5999755859</ele>
        <time>2013-12-08T12:01:25.000Z</time>
      </trkpt>
      <trkpt lat="43.72282" lon="7.02832">
        <ele>1020</ele>
        <time>2013-12-08T12:01:26.000Z</time>
      </trkpt>
      <trkpt lat="43.72282" lon="7.0283">
        <ele>1019.799987793</ele>
        <time>2013-12-08T12:01:32.000Z</time>
      </trkpt>
      <trkpt lat="43.7228" lon="7.02827">
        <ele>1018.4000244141</ele>
        <time>2013-12-08T12:01:37.000Z</time>
      </trkpt>
      <trkpt lat="43.72279" lon="7.02827">
        <ele>1017.5999755859</ele>
        <time>2013-12-08T12:01:38.000Z</time>
      </trkpt>
      <trkpt lat="43.72272" lon="7.02831">
        <ele>1014.5999755859</ele>
        <time>2013-12-08T12:01:41.000Z</time>
      </trkpt>
      <trkpt lat="43.72268" lon="7.02835">
        <ele>1012.799987793</ele>
        <time>2013-12-08T12:01:45.000Z</time>
      </trkpt>
      <trkpt lat="43.72267" lon="7.02835">
        <ele>1012.200012207</ele>
        <time>2013-12-08T12:01:46.000Z</time>
      </trkpt>
      <trkpt lat="43.72266" lon="7.02834">
        <ele>1011.5999755859</ele>
        <time>2013-12-08T12:01:47.000Z</time>
      </trkpt>
      <trkpt lat="43.72266" lon="7.02833">
        <ele>1011.200012207</ele>
        <time>2013-12-08T12:01:50.000Z</time>
      </trkpt>
      <trkpt lat="43.72265" lon="7.02828">
        <ele>1010.200012207</ele>
        <time>2013-12-08T12:01:59.000Z</time>
      </trkpt>
      <trkpt lat="43.72262" lon="7.02827">
        <ele>1008.4000244141</ele>
        <time>2013-12-08T12:02:03.000Z</time>
      </trkpt>
      <trkpt lat="43.72262" lon="7.02827">
        <ele>1008.4000244141</ele>
        <time>2013-12-08T12:02:04.000Z</time>
      </trkpt>
      <trkpt lat="43.72261" lon="7.02824">
        <ele>1007.5999755859</ele>
        <time>2013-12-08T12:02:10.000Z</time>
      </trkpt>
      <trkpt lat="43.7226" lon="7.02822">
        <ele>1006.799987793</ele>
        <time>2013-12-08T12:02:12.000Z</time>
      </trkpt>
      <trkpt lat="43.72261" lon="7.02819">
        <ele>1006.5999755859</ele>
        <time>2013-12-08T12:02:15.000Z</time>
      </trkpt>
      <trkpt lat="43.7226" lon="7.02822">
        <ele>1006.799987793</ele>
        <time>2013-12-08T12:02:23.000Z</time>
      </trkpt>
      <trkpt lat="43.72257" lon="7.02819">
        <ele>1005</ele>
        <time>2013-12-08T12:02:33.000Z</time>
      </trkpt>
      <trkpt lat="43.72257" lon="7.0282">
        <ele>1004.799987793</ele>
        <time>2013-12-08T12:03:04.000Z</time>
      </trkpt>
      <trkpt lat="43.72245" lon="7.02811">
        <ele>997.20001220703</ele>
        <time>2013-12-08T12:03:24.000Z</time>
      </trkpt>
      <trkpt lat="43.72248" lon="7.02814">
        <ele>999.20001220703</ele>
        <time>2013-12-08T12:03:30.000Z</time>
      </trkpt>
      <trkpt lat="43.7225" lon="7.02811">
        <ele>1000</ele>
        <time>2013-12-08T12:03:34.000Z</time>
      </trkpt>
      <trkpt lat="43.7225" lon="7.02812">
        <ele>1000</ele>
        <time>2013-12-08T12:03:39.000Z</time>
      </trkpt>
      <trkpt lat="43.72245" lon="7.02813">
        <ele>997.79998779297</ele>
        <time>2013-12-08T12:03:44.000Z</time>
      </trkpt>
      <trkpt lat="43.72246" lon="7.02811">
        <ele>997.59997558594</ele>
        <time>2013-12-08T12:03:54.000Z</time>
      </trkpt>
      <trkpt lat="43.72247" lon="7.02808">
        <ele>997.79998779297</ele>
        <time>2013-12-08T12:04:00.000Z</time>
      </trkpt>
      <trkpt lat="43.72248" lon="7.02807">
        <ele>998</ele>
        <time>2013-12-08T12:04:07.000Z</time>
      </trkpt>
      <trkpt lat="43.72247" lon="7.02809">
        <ele>998</ele>
        <time>2013-12-08T12:04:12.000Z</time>
      </trkpt>
      <trkpt lat="43.72242" lon="7.02815">
        <ele>996.40002441406</ele>
        <time>2013-12-08T12:04:17.000Z</time>
      </trkpt>
      <trkpt lat="43.72239" lon="7.02815">
        <ele>994.59997558594</ele>
        <time>2013-12-08T12:04:20.000Z</time>
      </trkpt>
      <trkpt lat="43.72237" lon="7.02819">
        <ele>994.20001220703</ele>
        <time>2013-12-08T12:04:22.000Z</time>
      </trkpt>
      <trkpt lat="43.72235" lon="7.02821">
        <ele>993.59997558594</ele>
        <time>2013-12-08T12:04:24.000Z</time>
      </trkpt>
      <trkpt lat="43.72235" lon="7.02823">
        <ele>993.59997558594</ele>
        <time>2013-12-08T12:04:26.000Z</time>
      </trkpt>
      <trkpt lat="43.72233" lon="7.02822">
        <ele>992.40002441406</ele>
        <time>2013-12-08T12:04:31.000Z</time>
      </trkpt>
      <trkpt lat="43.72233" lon="7.02819">
        <ele>992.40002441406</ele>
        <time>2013-12-08T12:04:34.000Z</time>
      </trkpt>
      <trkpt lat="43.72233" lon="7.02813">
        <ele>991.59997558594</ele>
        <time>2013-12-08T12:04:36.000Z</time>
      </trkpt>
      <trkpt lat="43.72235" lon="7.02798">
        <ele>990</ele>
        <time>2013-12-08T12:04:43.000Z</time>
      </trkpt>
      <trkpt lat="43.72233" lon="7.02799">
        <ele>989.59997558594</ele>
        <time>2013-12-08T12:04:45.000Z</time>
      </trkpt>
      <trkpt lat="43.72232" lon="7.02799">
        <ele>988.59997558594</ele>
        <time>2013-12-08T12:04:47.000Z</time>
      </trkpt>
      <trkpt lat="43.72226" lon="7.02801">
        <ele>986</ele>
        <time>2013-12-08T12:04:51.000Z</time>
      </trkpt>
      <trkpt lat="43.72223" lon="7.028">
        <ele>984.20001220703</ele>
        <time>2013-12-08T12:05:00.000Z</time>
      </trkpt>
      <trkpt lat="43.7222" lon="7.02799">
        <ele>982.79998779297</ele>
        <time>2013-12-08T12:05:09.000Z</time>
      </trkpt>
      <trkpt lat="43.72219" lon="7.02803">
        <ele>982.59997558594</ele>
        <time>2013-12-08T12:05:12.000Z</time>
      </trkpt>
      <trkpt lat="43.72216" lon="7.02801">
        <ele>981</ele>
        <time>2013-12-08T12:05:17.000Z</time>
      </trkpt>
      <trkpt lat="43.72214" lon="7.02801">
        <ele>979.59997558594</ele>
        <time>2013-12-08T12:05:20.000Z</time>
      </trkpt>
      <trkpt lat="43.72215" lon="7.02793">
        <ele>979.20001220703</ele>
        <time>2013-12-08T12:05:29.000Z</time>
      </trkpt>
      <trkpt lat="43.72216" lon="7.02788">
        <ele>979</ele>
        <time>2013-12-08T12:05:32.000Z</time>
      </trkpt>
      <trkpt lat="43.72215" lon="7.02788">
        <ele>978.40002441406</ele>
        <time>2013-12-08T12:05:33.000Z</time>
      </trkpt>
      <trkpt lat="43.72213" lon="7.02789">
        <ele>977.59997558594</ele>
        <time>2013-12-08T12:05:38.000Z</time>
      </trkpt>
      <trkpt lat="43.72209" lon="7.02793">
        <ele>976</ele>
        <time>2013-12-08T12:05:44.000Z</time>
      </trkpt>
      <trkpt lat="43.72207" lon="7.02797">
        <ele>975.59997558594</ele>
        <time>2013-12-08T12:05:58.000Z</time>
      </trkpt>
      <trkpt lat="43.72205" lon="7.02797">
        <ele>974.40002441406</ele>
        <time>2013-12-08T12:06:04.000Z</time>
      </trkpt>
      <trkpt lat="43.72204" lon="7.02797">
        <ele>974.20001220703</ele>
        <time>2013-12-08T12:06:05.000Z</time>
      </trkpt>
      <trkpt lat="43.72201" lon="7.02798">
        <ele>972.79998779297</ele>
        <time>2013-12-08T12:06:07.000Z</time>
      </trkpt>
      <trkpt lat="43.72201" lon="7.02796">
        <ele>972.59997558594</ele>
        <time>2013-12-08T12:06:09.000Z</time>
      </trkpt>
      <trkpt lat="43.72203" lon="7.02801">
        <ele>974</ele>
        <time>2013-12-08T12:06:12.000Z</time>
      </trkpt>
      <trkpt lat="43.72205" lon="7.02803">
        <ele>975.20001220703</ele>
        <time>2013-12-08T12:06:15.000Z</time>
      </trkpt>
      <trkpt lat="43.72205" lon="7.02801">
        <ele>975</ele>
        <time>2013-12-08T12:06:17.000Z</time>
      </trkpt>
      <trkpt lat="43.722" lon="7.02798">
        <ele>972.20001220703</ele>
        <time>2013-12-08T12:06:21.000Z</time>
      </trkpt>
      <trkpt lat="43.72199" lon="7.02797">
        <ele>971.59997558594</ele>
        <time>2013-12-08T12:06:22.000Z</time>
      </trkpt>
      <trkpt lat="43.72198" lon="7.02795">
        <ele>970.79998779297</ele>
        <time>2013-12-08T12:06:23.000Z</time>
      </trkpt>
      <trkpt lat="43.722" lon="7.02792">
        <ele>971</ele>
        <time>2013-12-08T12:06:26.000Z</time>
      </trkpt>
      <trkpt lat="43.72202" lon="7.02791">
        <ele>972.40002441406</ele>
        <time>2013-12-08T12:06:30.000Z</time>
      </trkpt>
      <trkpt lat="43.72204" lon="7.0279">
        <ele>973</ele>
        <time>2013-12-08T12:06:32.000Z</time>
      </trkpt>
      <trkpt lat="43.72203" lon="7.02788">
        <ele>972.40002441406</ele>
        <time>2013-12-08T12:06:33.000Z</time>
      </trkpt>
      <trkpt lat="43.72198" lon="7.02787">
        <ele>969.20001220703</ele>
        <time>2013-12-08T12:06:36.000Z</time>
      </trkpt>
      <trkpt lat="43.7219" lon="7.02788">
        <ele>965.59997558594</ele>
        <time>2013-12-08T12:06:41.000Z</time>
      </trkpt>
      <trkpt lat="43.7218" lon="7.028">
        <ele>961.79998779297</ele>
        <time>2013-12-08T12:06:46.000Z</time>
      </trkpt>
      <trkpt lat="43.72178" lon="7.02802">
        <ele>961.40002441406</ele>
        <time>2013-12-08T12:06:49.000Z</time>
      </trkpt>
      <trkpt lat="43.72179" lon="7.02802">
        <ele>961.79998779297</ele>
        <time>2013-12-08T12:06:56.000Z</time>
      </trkpt>
      <trkpt lat="43.72174" lon="7.02792">
        <ele>957.79998779297</ele>
        <time>2013-12-08T12:07:14.000Z</time>
      </trkpt>
      <trkpt lat="43.72171" lon="7.028">
        <ele>957.40002441406</ele>
        <time>2013-12-08T12:07:30.000Z</time>
      </trkpt>
      <trkpt lat="43.72167" lon="7.02804">
        <ele>955.59997558594</ele>
        <time>2013-12-08T12:07:33.000Z</time>
      </trkpt>
      <trkpt lat="43.72166" lon="7.02803">
        <ele>955.20001220703</ele>
        <time>2013-12-08T12:07:34.000Z</time>
      </trkpt>
      <trkpt lat="43.72162" lon="7.02804">
        <ele>953.59997558594</ele>
        <time>2013-12-08T12:07:38.000Z</time>
      </trkpt>
      <trkpt lat="43.72157" lon="7.02811">
        <ele>952.59997558594</ele>
        <time>2013-12-08T12:07:43.000Z</time>
      </trkpt>
      <trkpt lat="43.72156" lon="7.02817">
        <ele>953.20001220703</ele>
        <time>2013-12-08T12:07:46.000Z</time>
      </trkpt>
      <trkpt lat="43.72156" lon="7.02815">
        <ele>952.59997558594</ele>
        <time>2013-12-08T12:07:48.000Z</time>
      </trkpt>
      <trkpt lat="43.72155" lon="7.02821">
        <ele>953</ele>
        <time>2013-12-08T12:07:59.000Z</time>
      </trkpt>
      <trkpt lat="43.72152" lon="7.02826">
        <ele>952.20001220703</ele>
        <time>2013-12-08T12:08:03.000Z</time>
      </trkpt>
      <trkpt lat="43.72147" lon="7.02837">
        <ele>951.40002441406</ele>
        <time>2013-12-08T12:08:07.000Z</time>
      </trkpt>
      <trkpt lat="43.72149" lon="7.02837">
        <ele>952</ele>
        <time>2013-12-08T12:08:08.000Z</time>
      </trkpt>
      <trkpt lat="43.72152" lon="7.0284">
        <ele>953.59997558594</ele>
        <time>2013-12-08T12:08:11.000Z</time>
      </trkpt>
      <trkpt lat="43.7215" lon="7.02842">
        <ele>952.59997558594</ele>
        <time>2013-12-08T12:08:14.000Z</time>
      </trkpt>
      <trkpt lat="43.72149" lon="7.02843">
        <ele>952.40002441406</ele>
        <time>2013-12-08T12:08:15.000Z</time>
      </trkpt>
      <trkpt lat="43.72147" lon="7.02843">
        <ele>951.40002441406</ele>
        <time>2013-12-08T12:08:18.000Z</time>
      </trkpt>
      <trkpt lat="43.72145" lon="7.02843">
        <ele>950.59997558594</ele>
        <time>2013-12-08T12:08:23.000Z</time>
      </trkpt>
      <trkpt lat="43.72143" lon="7.02849">
        <ele>949.79998779297</ele>
        <time>2013-12-08T12:08:27.000Z</time>
      </trkpt>
      <trkpt lat="43.72139" lon="7.02844">
        <ele>947.59997558594</ele>
        <time>2013-12-08T12:08:31.000Z</time>
      </trkpt>
      <trkpt lat="43.72138" lon="7.02843">
        <ele>947.40002441406</ele>
        <time>2013-12-08T12:08:32.000Z</time>
      </trkpt>
      <trkpt lat="43.72136" lon="7.02842">
        <ele>946.59997558594</ele>
        <time>2013-12-08T12:08:37.000Z</time>
      </trkpt>
      <trkpt lat="43.72135" lon="7.02841">
        <ele>946</ele>
        <time>2013-12-08T12:08:38.000Z</time>
      </trkpt>
      <trkpt lat="43.72135" lon="7.02838">
        <ele>945.59997558594</ele>
        <time>2013-12-08T12:08:41.000Z</time>
      </trkpt>
      <trkpt lat="43.72134" lon="7.02839">
        <ele>945.20001220703</ele>
        <time>2013-12-08T12:08:42.000Z</time>
      </trkpt>
      <trkpt lat="43.72133" lon="7.02841">
        <ele>945.20001220703</ele>
        <time>2013-12-08T12:08:46.000Z</time>
      </trkpt>
      <trkpt lat="43.72129" lon="7.02846">
        <ele>943.20001220703</ele>
        <time>2013-12-08T12:08:50.000Z</time>
      </trkpt>
      <trkpt lat="43.72129" lon="7.02847">
        <ele>943.20001220703</ele>
        <time>2013-12-08T12:08:51.000Z</time>
      </trkpt>
      <trkpt lat="43.72122" lon="7.02857">
        <ele>940.40002441406</ele>
        <time>2013-12-08T12:08:56.000Z</time>
      </trkpt>
      <trkpt lat="43.72121" lon="7.0286">
        <ele>939.79998779297</ele>
        <time>2013-12-08T12:08:57.000Z</time>
      </trkpt>
      <trkpt lat="43.72118" lon="7.02865">
        <ele>938.79998779297</ele>
        <time>2013-12-08T12:09:00.000Z</time>
      </trkpt>
      <trkpt lat="43.72117" lon="7.02857">
        <ele>938</ele>
        <time>2013-12-08T12:09:04.000Z</time>
      </trkpt>
      <trkpt lat="43.72108" lon="7.02843">
        <ele>933.40002441406</ele>
        <time>2013-12-08T12:09:08.000Z</time>
      </trkpt>
      <trkpt lat="43.72104" lon="7.02839">
        <ele>931.59997558594</ele>
        <time>2013-12-08T12:09:11.000Z</time>
      </trkpt>
      <trkpt lat="43.72103" lon="7.02839">
        <ele>931</ele>
        <time>2013-12-08T12:09:12.000Z</time>
      </trkpt>
      <trkpt lat="43.72095" lon="7.02839">
        <ele>927.40002441406</ele>
        <time>2013-12-08T12:09:16.000Z</time>
      </trkpt>
      <trkpt lat="43.72093" lon="7.02841">
        <ele>926.40002441406</ele>
        <time>2013-12-08T12:09:17.000Z</time>
      </trkpt>
      <trkpt lat="43.72089" lon="7.02844">
        <ele>924.40002441406</ele>
        <time>2013-12-08T12:09:22.000Z</time>
      </trkpt>
      <trkpt lat="43.72088" lon="7.02845">
        <ele>924</ele>
        <time>2013-12-08T12:09:28.000Z</time>
      </trkpt>
      <trkpt lat="43.72086" lon="7.02846">
        <ele>923.20001220703</ele>
        <time>2013-12-08T12:09:35.000Z</time>
      </trkpt>
      <trkpt lat="43.72082" lon="7.02848">
        <ele>921.59997558594</ele>
        <time>2013-12-08T12:10:07.000Z</time>
      </trkpt>
      <trkpt lat="43.72082" lon="7.0285">
        <ele>921.59997558594</ele>
        <time>2013-12-08T12:10:13.000Z</time>
      </trkpt>
      <trkpt lat="43.72081" lon="7.02849">
        <ele>921</ele>
        <time>2013-12-08T12:10:18.000Z</time>
      </trkpt>
      <trkpt lat="43.72076" lon="7.0284">
        <ele>919.59997558594</ele>
        <time>2013-12-08T12:10:25.000Z</time>
      </trkpt>
      <trkpt lat="43.72075" lon="7.02826">
        <ele>919</ele>
        <time>2013-12-08T12:10:30.000Z</time>
      </trkpt>
      <trkpt lat="43.72074" lon="7.02821">
        <ele>918.40002441406</ele>
        <time>2013-12-08T12:10:34.000Z</time>
      </trkpt>
      <trkpt lat="43.72072" lon="7.0282">
        <ele>917.59997558594</ele>
        <time>2013-12-08T12:10:36.000Z</time>
      </trkpt>
      <trkpt lat="43.72069" lon="7.02819">
        <ele>916.79998779297</ele>
        <time>2013-12-08T12:10:42.000Z</time>
      </trkpt>
      <trkpt lat="43.72066" lon="7.02815">
        <ele>915.59997558594</ele>
        <time>2013-12-08T12:10:44.000Z</time>
      </trkpt>
      <trkpt lat="43.72066" lon="7.02814">
        <ele>915.59997558594</ele>
        <time>2013-12-08T12:10:50.000Z</time>
      </trkpt>
      <trkpt lat="43.72064" lon="7.02805">
        <ele>914.59997558594</ele>
        <time>2013-12-08T12:11:14.000Z</time>
      </trkpt>
      <trkpt lat="43.72061" lon="7.02809">
        <ele>914</ele>
        <time>2013-12-08T12:11:19.000Z</time>
      </trkpt>
      <trkpt lat="43.72058" lon="7.02808">
        <ele>912.79998779297</ele>
        <time>2013-12-08T12:11:23.000Z</time>
      </trkpt>
      <trkpt lat="43.72049" lon="7.02801">
        <ele>909.79998779297</ele>
        <time>2013-12-08T12:11:27.000Z</time>
      </trkpt>
      <trkpt lat="43.7204" lon="7.02791">
        <ele>906.79998779297</ele>
        <time>2013-12-08T12:11:29.000Z</time>
      </trkpt>
      <trkpt lat="43.72035" lon="7.02784">
        <ele>905</ele>
        <time>2013-12-08T12:11:30.000Z</time>
      </trkpt>
      <trkpt lat="43.72013" lon="7.02775">
        <ele>898.20001220703</ele>
        <time>2013-12-08T12:11:34.000Z</time>
      </trkpt>
      <trkpt lat="43.71997" lon="7.02782">
        <ele>893.79998779297</ele>
        <time>2013-12-08T12:11:37.000Z</time>
      </trkpt>
      <trkpt lat="43.71994" lon="7.02785">
        <ele>893</ele>
        <time>2013-12-08T12:11:38.000Z</time>
      </trkpt>
      <trkpt lat="43.71991" lon="7.02787">
        <ele>892.59997558594</ele>
        <time>2013-12-08T12:11:39.000Z</time>
      </trkpt>
      <trkpt lat="43.71981" lon="7.0279">
        <ele>890.20001220703</ele>
        <time>2013-12-08T12:11:41.000Z</time>
      </trkpt>
      <trkpt lat="43.71969" lon="7.02792">
        <ele>887.59997558594</ele>
        <time>2013-12-08T12:11:43.000Z</time>
      </trkpt>
      <trkpt lat="43.71959" lon="7.02788">
        <ele>885.20001220703</ele>
        <time>2013-12-08T12:11:45.000Z</time>
      </trkpt>
      <trkpt lat="43.7195" lon="7.02799">
        <ele>883.40002441406</ele>
        <time>2013-12-08T12:11:48.000Z</time>
      </trkpt>
      <trkpt lat="43.71937" lon="7.02795">
        <ele>880.59997558594</ele>
        <time>2013-12-08T12:11:51.000Z</time>
      </trkpt>
      <trkpt lat="43.71934" lon="7.02796">
        <ele>880</ele>
        <time>2013-12-08T12:11:52.000Z</time>
      </trkpt>
      <trkpt lat="43.71931" lon="7.02798">
        <ele>879.40002441406</ele>
        <time>2013-12-08T12:11:54.000Z</time>
      </trkpt>
      <trkpt lat="43.71924" lon="7.02807">
        <ele>878</ele>
        <time>2013-12-08T12:11:57.000Z</time>
      </trkpt>
      <trkpt lat="43.71922" lon="7.02813">
        <ele>877.79998779297</ele>
        <time>2013-12-08T12:11:58.000Z</time>
      </trkpt>
      <trkpt lat="43.71914" lon="7.02831">
        <ele>876.59997558594</ele>
        <time>2013-12-08T12:12:02.000Z</time>
      </trkpt>
      <trkpt lat="43.719" lon="7.02836">
        <ele>873.79998779297</ele>
        <time>2013-12-08T12:12:05.000Z</time>
      </trkpt>
      <trkpt lat="43.71895" lon="7.02839">
        <ele>872.40002441406</ele>
        <time>2013-12-08T12:12:06.000Z</time>
      </trkpt>
      <trkpt lat="43.71891" lon="7.02844">
        <ele>871.20001220703</ele>
        <time>2013-12-08T12:12:07.000Z</time>
      </trkpt>
      <trkpt lat="43.71884" lon="7.02847">
        <ele>869.40002441406</ele>
        <time>2013-12-08T12:12:09.000Z</time>
      </trkpt>
      <trkpt lat="43.71886" lon="7.0286">
        <ele>868.20001220703</ele>
        <time>2013-12-08T12:12:12.000Z</time>
      </trkpt>
      <trkpt lat="43.71879" lon="7.02855">
        <ele>867.40002441406</ele>
        <time>2013-12-08T12:12:15.000Z</time>
      </trkpt>
      <trkpt lat="43.71876" lon="7.02837">
        <ele>869.20001220703</ele>
        <time>2013-12-08T12:12:18.000Z</time>
      </trkpt>
      <trkpt lat="43.71874" lon="7.02831">
        <ele>869.40002441406</ele>
        <time>2013-12-08T12:12:19.000Z</time>
      </trkpt>
      <trkpt lat="43.71865" lon="7.02813">
        <ele>867.59997558594</ele>
        <time>2013-12-08T12:12:23.000Z</time>
      </trkpt>
      <trkpt lat="43.71852" lon="7.02798">
        <ele>865.40002441406</ele>
        <time>2013-12-08T12:12:26.000Z</time>
      </trkpt>
      <trkpt lat="43.71848" lon="7.0279">
        <ele>864.79998779297</ele>
        <time>2013-12-08T12:12:27.000Z</time>
      </trkpt>
      <trkpt lat="43.71842" lon="7.02776">
        <ele>864</ele>
        <time>2013-12-08T12:12:29.000Z</time>
      </trkpt>
      <trkpt lat="43.71836" lon="7.02755">
        <ele>863.40002441406</ele>
        <time>2013-12-08T12:12:32.000Z</time>
      </trkpt>
      <trkpt lat="43.71825" lon="7.02743">
        <ele>861.40002441406</ele>
        <time>2013-12-08T12:12:35.000Z</time>
      </trkpt>
      <trkpt lat="43.71813" lon="7.02743">
        <ele>860.20001220703</ele>
        <time>2013-12-08T12:12:37.000Z</time>
      </trkpt>
      <trkpt lat="43.71807" lon="7.02743">
        <ele>859.79998779297</ele>
        <time>2013-12-08T12:12:38.000Z</time>
      </trkpt>
      <trkpt lat="43.71776" lon="7.02742">
        <ele>856.79998779297</ele>
        <time>2013-12-08T12:12:43.000Z</time>
      </trkpt>
      <trkpt lat="43.71769" lon="7.02743">
        <ele>856.20001220703</ele>
        <time>2013-12-08T12:12:44.000Z</time>
      </trkpt>
      <trkpt lat="43.71747" lon="7.02752">
        <ele>854.40002441406</ele>
        <time>2013-12-08T12:12:47.000Z</time>
      </trkpt>
      <trkpt lat="43.71716" lon="7.02758">
        <ele>850.20001220703</ele>
        <time>2013-12-08T12:12:52.000Z</time>
      </trkpt>
      <trkpt lat="43.71712" lon="7.02758">
        <ele>849.59997558594</ele>
        <time>2013-12-08T12:12:54.000Z</time>
      </trkpt>
      <trkpt lat="43.7171" lon="7.02758">
        <ele>849.59997558594</ele>
        <time>2013-12-08T12:12:55.000Z</time>
      </trkpt>
      <trkpt lat="43.71708" lon="7.02757">
        <ele>849.20001220703</ele>
        <time>2013-12-08T12:12:57.000Z</time>
      </trkpt>
      <trkpt lat="43.71707" lon="7.02757">
        <ele>849.20001220703</ele>
        <time>2013-12-08T12:13:01.000Z</time>
      </trkpt>
      <trkpt lat="43.71705" lon="7.02759">
        <ele>848.79998779297</ele>
        <time>2013-12-08T12:13:09.000Z</time>
      </trkpt>
      <trkpt lat="43.71702" lon="7.0276">
        <ele>848.40002441406</ele>
        <time>2013-12-08T12:13:15.000Z</time>
      </trkpt>
      <trkpt lat="43.71699" lon="7.02762">
        <ele>847.79998779297</ele>
        <time>2013-12-08T12:13:21.000Z</time>
      </trkpt>
      <trkpt lat="43.71692" lon="7.02751">
        <ele>848</ele>
        <time>2013-12-08T12:13:24.000Z</time>
      </trkpt>
      <trkpt lat="43.71676" lon="7.02723">
        <ele>846.20001220703</ele>
        <time>2013-12-08T12:13:29.000Z</time>
      </trkpt>
      <trkpt lat="43.71671" lon="7.02699">
        <ele>846</ele>
        <time>2013-12-08T12:13:32.000Z</time>
      </trkpt>
      <trkpt lat="43.71671" lon="7.02691">
        <ele>846</ele>
        <time>2013-12-08T12:13:33.000Z</time>
      </trkpt>
      <trkpt lat="43.71672" lon="7.02685">
        <ele>846</ele>
        <time>2013-12-08T12:13:34.000Z</time>
      </trkpt>
      <trkpt lat="43.71674" lon="7.02676">
        <ele>846.20001220703</ele>
        <time>2013-12-08T12:13:36.000Z</time>
      </trkpt>
      <trkpt lat="43.71674" lon="7.02664">
        <ele>846</ele>
        <time>2013-12-08T12:13:40.000Z</time>
      </trkpt>
      <trkpt lat="43.71672" lon="7.02664">
        <ele>846</ele>
        <time>2013-12-08T12:13:44.000Z</time>
      </trkpt>
      <trkpt lat="43.71668" lon="7.0266">
        <ele>845.59997558594</ele>
        <time>2013-12-08T12:14:06.000Z</time>
      </trkpt>
      <trkpt lat="43.71664" lon="7.02657">
        <ele>845</ele>
        <time>2013-12-08T12:14:13.000Z</time>
      </trkpt>
      <trkpt lat="43.71648" lon="7.02663">
        <ele>844.20001220703</ele>
        <time>2013-12-08T12:14:17.000Z</time>
      </trkpt>
      <trkpt lat="43.71628" lon="7.02673">
        <ele>842.40002441406</ele>
        <time>2013-12-08T12:14:20.000Z</time>
      </trkpt>
      <trkpt lat="43.71611" lon="7.02668">
        <ele>841.20001220703</ele>
        <time>2013-12-08T12:14:23.000Z</time>
      </trkpt>
      <trkpt lat="43.71593" lon="7.02663">
        <ele>839.59997558594</ele>
        <time>2013-12-08T12:14:27.000Z</time>
      </trkpt>
      <trkpt lat="43.71588" lon="7.02663">
        <ele>839.20001220703</ele>
        <time>2013-12-08T12:14:28.000Z</time>
      </trkpt>
      <trkpt lat="43.71578" lon="7.0266">
        <ele>836.59997558594</ele>
        <time>2013-12-08T12:14:31.000Z</time>
      </trkpt>
      <trkpt lat="43.71573" lon="7.0266">
        <ele>835</ele>
        <time>2013-12-08T12:14:35.000Z</time>
      </trkpt>
      <trkpt lat="43.71572" lon="7.02661">
        <ele>834.40002441406</ele>
        <time>2013-12-08T12:14:40.000Z</time>
      </trkpt>
      <trkpt lat="43.71568" lon="7.02665">
        <ele>833.40002441406</ele>
        <time>2013-12-08T12:14:52.000Z</time>
      </trkpt>
      <trkpt lat="43.71566" lon="7.02667">
        <ele>832.79998779297</ele>
        <time>2013-12-08T12:14:59.000Z</time>
      </trkpt>
      <trkpt lat="43.71565" lon="7.02671">
        <ele>832.40002441406</ele>
        <time>2013-12-08T12:15:01.000Z</time>
      </trkpt>
      <trkpt lat="43.71566" lon="7.02676">
        <ele>832.20001220703</ele>
        <time>2013-12-08T12:15:03.000Z</time>
      </trkpt>
      <trkpt lat="43.71565" lon="7.02677">
        <ele>832</ele>
        <time>2013-12-08T12:15:04.000Z</time>
      </trkpt>
      <trkpt lat="43.71564" lon="7.0268">
        <ele>831.20001220703</ele>
        <time>2013-12-08T12:15:06.000Z</time>
      </trkpt>
      <trkpt lat="43.71562" lon="7.02683">
        <ele>830.20001220703</ele>
        <time>2013-12-08T12:15:09.000Z</time>
      </trkpt>
      <trkpt lat="43.7156" lon="7.02682">
        <ele>829.59997558594</ele>
        <time>2013-12-08T12:15:10.000Z</time>
      </trkpt>
      <trkpt lat="43.71551" lon="7.02679">
        <ele>827</ele>
        <time>2013-12-08T12:15:14.000Z</time>
      </trkpt>
      <trkpt lat="43.71549" lon="7.02677">
        <ele>826.20001220703</ele>
        <time>2013-12-08T12:15:15.000Z</time>
      </trkpt>
      <trkpt lat="43.71543" lon="7.02676">
        <ele>824.40002441406</ele>
        <time>2013-12-08T12:15:17.000Z</time>
      </trkpt>
      <trkpt lat="43.71541" lon="7.02681">
        <ele>823.40002441406</ele>
        <time>2013-12-08T12:15:19.000Z</time>
      </trkpt>
      <trkpt lat="43.71546" lon="7.02691">
        <ele>824.40002441406</ele>
        <time>2013-12-08T12:15:22.000Z</time>
      </trkpt>
      <trkpt lat="43.71551" lon="7.02698">
        <ele>825.40002441406</ele>
        <time>2013-12-08T12:15:24.000Z</time>
      </trkpt>
      <trkpt lat="43.71562" lon="7.02713">
        <ele>828</ele>
        <time>2013-12-08T12:15:28.000Z</time>
      </trkpt>
      <trkpt lat="43.71566" lon="7.02723">
        <ele>828.59997558594</ele>
        <time>2013-12-08T12:15:31.000Z</time>
      </trkpt>
      <trkpt lat="43.71567" lon="7.02728">
        <ele>828.20001220703</ele>
        <time>2013-12-08T12:15:32.000Z</time>
      </trkpt>
      <trkpt lat="43.7156" lon="7.02732">
        <ele>825.79998779297</ele>
        <time>2013-12-08T12:15:35.000Z</time>
      </trkpt>
      <trkpt lat="43.71553" lon="7.02731">
        <ele>824</ele>
        <time>2013-12-08T12:15:38.000Z</time>
      </trkpt>
      <trkpt lat="43.71552" lon="7.02732">
        <ele>823.59997558594</ele>
        <time>2013-12-08T12:15:39.000Z</time>
      </trkpt>
      <trkpt lat="43.71551" lon="7.02732">
        <ele>823.40002441406</ele>
        <time>2013-12-08T12:15:44.000Z</time>
      </trkpt>
      <trkpt lat="43.71542" lon="7.02729">
        <ele>820.79998779297</ele>
        <time>2013-12-08T12:16:03.000Z</time>
      </trkpt>
      <trkpt lat="43.71526" lon="7.02727">
        <ele>816.20001220703</ele>
        <time>2013-12-08T12:16:07.000Z</time>
      </trkpt>
      <trkpt lat="43.71511" lon="7.02722">
        <ele>811.79998779297</ele>
        <time>2013-12-08T12:16:11.000Z</time>
      </trkpt>
      <trkpt lat="43.71503" lon="7.02715">
        <ele>809.79998779297</ele>
        <time>2013-12-08T12:16:15.000Z</time>
      </trkpt>
      <trkpt lat="43.71502" lon="7.02715">
        <ele>809.40002441406</ele>
        <time>2013-12-08T12:16:16.000Z</time>
      </trkpt>
      <trkpt lat="43.715" lon="7.02716">
        <ele>809</ele>
        <time>2013-12-08T12:16:19.000Z</time>
      </trkpt>
      <trkpt lat="43.71498" lon="7.02728">
        <ele>807.20001220703</ele>
        <time>2013-12-08T12:16:23.000Z</time>
      </trkpt>
      <trkpt lat="43.71493" lon="7.02752">
        <ele>804.20001220703</ele>
        <time>2013-12-08T12:16:28.000Z</time>
      </trkpt>
      <trkpt lat="43.71487" lon="7.02772">
        <ele>799.79998779297</ele>
        <time>2013-12-08T12:16:32.000Z</time>
      </trkpt>
      <trkpt lat="43.71484" lon="7.02795">
        <ele>797.20001220703</ele>
        <time>2013-12-08T12:16:36.000Z</time>
      </trkpt>
      <trkpt lat="43.7148" lon="7.02816">
        <ele>794.79998779297</ele>
        <time>2013-12-08T12:16:40.000Z</time>
      </trkpt>
      <trkpt lat="43.7148" lon="7.0282">
        <ele>794.40002441406</ele>
        <time>2013-12-08T12:16:41.000Z</time>
      </trkpt>
      <trkpt lat="43.71479" lon="7.02833">
        <ele>793.79998779297</ele>
        <time>2013-12-08T12:16:45.000Z</time>
      </trkpt>
      <trkpt lat="43.71479" lon="7.02836">
        <ele>793.40002441406</ele>
        <time>2013-12-08T12:16:46.000Z</time>
      </trkpt>
      <trkpt lat="43.71473" lon="7.02849">
        <ele>789.59997558594</ele>
        <time>2013-12-08T12:16:51.000Z</time>
      </trkpt>
      <trkpt lat="43.7147" lon="7.02852">
        <ele>788.40002441406</ele>
        <time>2013-12-08T12:16:52.000Z</time>
      </trkpt>
      <trkpt lat="43.71455" lon="7.02865">
        <ele>782.20001220703</ele>
        <time>2013-12-08T12:16:59.000Z</time>
      </trkpt>
      <trkpt lat="43.71445" lon="7.02881">
        <ele>778.40002441406</ele>
        <time>2013-12-08T12:17:05.000Z</time>
      </trkpt>
      <trkpt lat="43.71437" lon="7.02893">
        <ele>775.79998779297</ele>
        <time>2013-12-08T12:17:09.000Z</time>
      </trkpt>
      <trkpt lat="43.71435" lon="7.02896">
        <ele>775.40002441406</ele>
        <time>2013-12-08T12:17:10.000Z</time>
      </trkpt>
      <trkpt lat="43.71433" lon="7.02897">
        <ele>774.59997558594</ele>
        <time>2013-12-08T12:17:11.000Z</time>
      </trkpt>
      <trkpt lat="43.71424" lon="7.02896">
        <ele>772.40002441406</ele>
        <time>2013-12-08T12:17:14.000Z</time>
      </trkpt>
      <trkpt lat="43.71415" lon="7.02899">
        <ele>769.79998779297</ele>
        <time>2013-12-08T12:17:19.000Z</time>
      </trkpt>
      <trkpt lat="43.71414" lon="7.029">
        <ele>769.20001220703</ele>
        <time>2013-12-08T12:17:20.000Z</time>
      </trkpt>
      <trkpt lat="43.71411" lon="7.02905">
        <ele>767.59997558594</ele>
        <time>2013-12-08T12:17:23.000Z</time>
      </trkpt>
      <trkpt lat="43.7141" lon="7.02906">
        <ele>766.79998779297</ele>
        <time>2013-12-08T12:17:27.000Z</time>
      </trkpt>
      <trkpt lat="43.7141" lon="7.02906">
        <ele>767.20001220703</ele>
        <time>2013-12-08T12:17:33.000Z</time>
      </trkpt>
      <trkpt lat="43.71405" lon="7.02908">
        <ele>764.40002441406</ele>
        <time>2013-12-08T12:17:36.000Z</time>
      </trkpt>
      <trkpt lat="43.71404" lon="7.0291">
        <ele>763.59997558594</ele>
        <time>2013-12-08T12:17:37.000Z</time>
      </trkpt>
      <trkpt lat="43.71395" lon="7.02921">
        <ele>758.40002441406</ele>
        <time>2013-12-08T12:17:41.000Z</time>
      </trkpt>
      <trkpt lat="43.71384" lon="7.02938">
        <ele>750.79998779297</ele>
        <time>2013-12-08T12:17:46.000Z</time>
      </trkpt>
      <trkpt lat="43.71378" lon="7.02938">
        <ele>748</ele>
        <time>2013-12-08T12:17:48.000Z</time>
      </trkpt>
      <trkpt lat="43.71375" lon="7.02939">
        <ele>746.40002441406</ele>
        <time>2013-12-08T12:17:49.000Z</time>
      </trkpt>
      <trkpt lat="43.71369" lon="7.02946">
        <ele>742.79998779297</ele>
        <time>2013-12-08T12:17:53.000Z</time>
      </trkpt>
      <trkpt lat="43.71373" lon="7.02963">
        <ele>744</ele>
        <time>2013-12-08T12:17:57.000Z</time>
      </trkpt>
      <trkpt lat="43.71378" lon="7.02976">
        <ele>745.79998779297</ele>
        <time>2013-12-08T12:18:00.000Z</time>
      </trkpt>
      <trkpt lat="43.71383" lon="7.02983">
        <ele>747.40002441406</ele>
        <time>2013-12-08T12:18:02.000Z</time>
      </trkpt>
      <trkpt lat="43.71393" lon="7.02997">
        <ele>750</ele>
        <time>2013-12-08T12:18:07.000Z</time>
      </trkpt>
      <trkpt lat="43.71393" lon="7.03">
        <ele>750</ele>
        <time>2013-12-08T12:18:08.000Z</time>
      </trkpt>
      <trkpt lat="43.7139" lon="7.03008">
        <ele>745.79998779297</ele>
        <time>2013-12-08T12:18:11.000Z</time>
      </trkpt>
      <trkpt lat="43.71391" lon="7.0302">
        <ele>742.40002441406</ele>
        <time>2013-12-08T12:18:16.000Z</time>
      </trkpt>
      <trkpt lat="43.71402" lon="7.03031">
        <ele>742.79998779297</ele>
        <time>2013-12-08T12:18:21.000Z</time>
      </trkpt>
      <trkpt lat="43.71405" lon="7.03037">
        <ele>741.79998779297</ele>
        <time>2013-12-08T12:18:24.000Z</time>
      </trkpt>
      <trkpt lat="43.71406" lon="7.0304">
        <ele>741</ele>
        <time>2013-12-08T12:18:25.000Z</time>
      </trkpt>
      <trkpt lat="43.71417" lon="7.03049">
        <ele>741.79998779297</ele>
        <time>2013-12-08T12:18:29.000Z</time>
      </trkpt>
      <trkpt lat="43.71418" lon="7.03054">
        <ele>740.40002441406</ele>
        <time>2013-12-08T12:18:31.000Z</time>
      </trkpt>
      <trkpt lat="43.71419" lon="7.03053">
        <ele>740.79998779297</ele>
        <time>2013-12-08T12:18:33.000Z</time>
      </trkpt>
      <trkpt lat="43.71423" lon="7.03061">
        <ele>737.79998779297</ele>
        <time>2013-12-08T12:19:04.000Z</time>
      </trkpt>
      <trkpt lat="43.71423" lon="7.03068">
        <ele>735.59997558594</ele>
        <time>2013-12-08T12:19:21.000Z</time>
      </trkpt>
      <trkpt lat="43.71422" lon="7.03064">
        <ele>736.79998779297</ele>
        <time>2013-12-08T12:20:04.000Z</time>
      </trkpt>
      <trkpt lat="43.71426" lon="7.03068">
        <ele>735.40002441406</ele>
        <time>2013-12-08T12:20:06.000Z</time>
      </trkpt>
      <trkpt lat="43.71435" lon="7.03066">
        <ele>736.40002441406</ele>
        <time>2013-12-08T12:20:09.000Z</time>
      </trkpt>
      <trkpt lat="43.71439" lon="7.03065">
        <ele>736.59997558594</ele>
        <time>2013-12-08T12:20:10.000Z</time>
      </trkpt>
      <trkpt lat="43.71452" lon="7.03064">
        <ele>736.79998779297</ele>
        <time>2013-12-08T12:20:14.000Z</time>
      </trkpt>
      <trkpt lat="43.71468" lon="7.03071">
        <ele>734.59997558594</ele>
        <time>2013-12-08T12:20:18.000Z</time>
      </trkpt>
      <trkpt lat="43.71483" lon="7.03076">
        <ele>732.59997558594</ele>
        <time>2013-12-08T12:20:23.000Z</time>
      </trkpt>
      <trkpt lat="43.71499" lon="7.03083">
        <ele>730.20001220703</ele>
        <time>2013-12-08T12:20:28.000Z</time>
      </trkpt>
      <trkpt lat="43.7151" lon="7.03083">
        <ele>731.59997558594</ele>
        <time>2013-12-08T12:20:32.000Z</time>
      </trkpt>
      <trkpt lat="43.71526" lon="7.03084">
        <ele>732.59997558594</ele>
        <time>2013-12-08T12:20:36.000Z</time>
      </trkpt>
      <trkpt lat="43.71531" lon="7.0309">
        <ele>731.40002441406</ele>
        <time>2013-12-08T12:20:39.000Z</time>
      </trkpt>
      <trkpt lat="43.71533" lon="7.03096">
        <ele>729</ele>
        <time>2013-12-08T12:20:40.000Z</time>
      </trkpt>
      <trkpt lat="43.71546" lon="7.03112">
        <ele>725.20001220703</ele>
        <time>2013-12-08T12:20:43.000Z</time>
      </trkpt>
      <trkpt lat="43.71553" lon="7.03117">
        <ele>724.40002441406</ele>
        <time>2013-12-08T12:20:45.000Z</time>
      </trkpt>
      <trkpt lat="43.71563" lon="7.03123">
        <ele>723.79998779297</ele>
        <time>2013-12-08T12:20:47.000Z</time>
      </trkpt>
      <trkpt lat="43.71583" lon="7.03125">
        <ele>726.59997558594</ele>
        <time>2013-12-08T12:20:51.000Z</time>
      </trkpt>
      <trkpt lat="43.71585" lon="7.03127">
        <ele>726.40002441406</ele>
        <time>2013-12-08T12:20:52.000Z</time>
      </trkpt>
      <trkpt lat="43.71592" lon="7.03132">
        <ele>727</ele>
        <time>2013-12-08T12:20:55.000Z</time>
      </trkpt>
      <trkpt lat="43.71589" lon="7.03141">
        <ele>723</ele>
        <time>2013-12-08T12:20:58.000Z</time>
      </trkpt>
      <trkpt lat="43.71586" lon="7.03162">
        <ele>715.40002441406</ele>
        <time>2013-12-08T12:21:02.000Z</time>
      </trkpt>
      <trkpt lat="43.71583" lon="7.03182">
        <ele>708.79998779297</ele>
        <time>2013-12-08T12:21:06.000Z</time>
      </trkpt>
      <trkpt lat="43.71581" lon="7.03204">
        <ele>702.59997558594</ele>
        <time>2013-12-08T12:21:11.000Z</time>
      </trkpt>
      <trkpt lat="43.7158" lon="7.03223">
        <ele>697.20001220703</ele>
        <time>2013-12-08T12:21:15.000Z</time>
      </trkpt>
      <trkpt lat="43.71583" lon="7.03248">
        <ele>691.40002441406</ele>
        <time>2013-12-08T12:21:20.000Z</time>
      </trkpt>
      <trkpt lat="43.71582" lon="7.03281">
        <ele>686.20001220703</ele>
        <time>2013-12-08T12:21:24.000Z</time>
      </trkpt>
      <trkpt lat="43.71585" lon="7.03297">
        <ele>684.59997558594</ele>
        <time>2013-12-08T12:21:26.000Z</time>
      </trkpt>
      <trkpt lat="43.71587" lon="7.0331">
        <ele>683.20001220703</ele>
        <time>2013-12-08T12:21:28.000Z</time>
      </trkpt>
      <trkpt lat="43.71588" lon="7.03318">
        <ele>682.40002441406</ele>
        <time>2013-12-08T12:21:30.000Z</time>
      </trkpt>
      <trkpt lat="43.71588" lon="7.03321">
        <ele>682</ele>
        <time>2013-12-08T12:21:31.000Z</time>
      </trkpt>
      <trkpt lat="43.71589" lon="7.03324">
        <ele>681.79998779297</ele>
        <time>2013-12-08T12:21:32.000Z</time>
      </trkpt>
      <trkpt lat="43.71586" lon="7.03326">
        <ele>680.59997558594</ele>
        <time>2013-12-08T12:21:34.000Z</time>
      </trkpt>
      <trkpt lat="43.71578" lon="7.03319">
        <ele>679.20001220703</ele>
        <time>2013-12-08T12:21:37.000Z</time>
      </trkpt>
      <trkpt lat="43.71572" lon="7.03305">
        <ele>679</ele>
        <time>2013-12-08T12:21:39.000Z</time>
      </trkpt>
      <trkpt lat="43.71568" lon="7.03299">
        <ele>678.59997558594</ele>
        <time>2013-12-08T12:21:40.000Z</time>
      </trkpt>
      <trkpt lat="43.71556" lon="7.03272">
        <ele>679.59997558594</ele>
        <time>2013-12-08T12:21:44.000Z</time>
      </trkpt>
      <trkpt lat="43.71547" lon="7.03255">
        <ele>680</ele>
        <time>2013-12-08T12:21:48.000Z</time>
      </trkpt>
      <trkpt lat="43.71544" lon="7.03252">
        <ele>679.79998779297</ele>
        <time>2013-12-08T12:21:49.000Z</time>
      </trkpt>
      <trkpt lat="43.71539" lon="7.03244">
        <ele>680.40002441406</ele>
        <time>2013-12-08T12:21:52.000Z</time>
      </trkpt>
      <trkpt lat="43.71537" lon="7.03246">
        <ele>679.20001220703</ele>
        <time>2013-12-08T12:21:55.000Z</time>
      </trkpt>
      <trkpt lat="43.71535" lon="7.03256">
        <ele>676.59997558594</ele>
        <time>2013-12-08T12:21:57.000Z</time>
      </trkpt>
      <trkpt lat="43.71533" lon="7.03267">
        <ele>673.40002441406</ele>
        <time>2013-12-08T12:21:59.000Z</time>
      </trkpt>
      <trkpt lat="43.71536" lon="7.03285">
        <ele>670.20001220703</ele>
        <time>2013-12-08T12:22:02.000Z</time>
      </trkpt>
      <trkpt lat="43.71532" lon="7.03295">
        <ele>666.79998779297</ele>
        <time>2013-12-08T12:22:05.000Z</time>
      </trkpt>
      <trkpt lat="43.71527" lon="7.0329">
        <ele>666.59997558594</ele>
        <time>2013-12-08T12:22:08.000Z</time>
      </trkpt>
      <trkpt lat="43.71524" lon="7.03282">
        <ele>667.20001220703</ele>
        <time>2013-12-08T12:22:10.000Z</time>
      </trkpt>
      <trkpt lat="43.71518" lon="7.03274">
        <ele>667.20001220703</ele>
        <time>2013-12-08T12:22:12.000Z</time>
      </trkpt>
      <trkpt lat="43.71513" lon="7.03267">
        <ele>667.59997558594</ele>
        <time>2013-12-08T12:22:16.000Z</time>
      </trkpt>
      <trkpt lat="43.71512" lon="7.03267">
        <ele>667</ele>
        <time>2013-12-08T12:22:17.000Z</time>
      </trkpt>
      <trkpt lat="43.71507" lon="7.03267">
        <ele>665.40002441406</ele>
        <time>2013-12-08T12:22:20.000Z</time>
      </trkpt>
      <trkpt lat="43.71505" lon="7.03268">
        <ele>664.79998779297</ele>
        <time>2013-12-08T12:22:21.000Z</time>
      </trkpt>
      <trkpt lat="43.71502" lon="7.03273">
        <ele>662.59997558594</ele>
        <time>2013-12-08T12:22:25.000Z</time>
      </trkpt>
      <trkpt lat="43.71498" lon="7.03289">
        <ele>657.79998779297</ele>
        <time>2013-12-08T12:22:30.000Z</time>
      </trkpt>
      <trkpt lat="43.71496" lon="7.03294">
        <ele>656.40002441406</ele>
        <time>2013-12-08T12:22:34.000Z</time>
      </trkpt>
      <trkpt lat="43.71495" lon="7.03291">
        <ele>657.20001220703</ele>
        <time>2013-12-08T12:22:38.000Z</time>
      </trkpt>
      <trkpt lat="43.71494" lon="7.03291">
        <ele>657</ele>
        <time>2013-12-08T12:22:39.000Z</time>
      </trkpt>
      <trkpt lat="43.71491" lon="7.03301">
        <ele>654.20001220703</ele>
        <time>2013-12-08T12:22:42.000Z</time>
      </trkpt>
      <trkpt lat="43.71496" lon="7.03315">
        <ele>650.59997558594</ele>
        <time>2013-12-08T12:22:46.000Z</time>
      </trkpt>
      <trkpt lat="43.71495" lon="7.0333">
        <ele>646.59997558594</ele>
        <time>2013-12-08T12:22:50.000Z</time>
      </trkpt>
      <trkpt lat="43.71496" lon="7.03347">
        <ele>643</ele>
        <time>2013-12-08T12:22:53.000Z</time>
      </trkpt>
      <trkpt lat="43.71496" lon="7.03352">
        <ele>642.20001220703</ele>
        <time>2013-12-08T12:22:54.000Z</time>
      </trkpt>
      <trkpt lat="43.71497" lon="7.03371">
        <ele>638.79998779297</ele>
        <time>2013-12-08T12:22:59.000Z</time>
      </trkpt>
      <trkpt lat="43.71492" lon="7.03392">
        <ele>633.59997558594</ele>
        <time>2013-12-08T12:23:03.000Z</time>
      </trkpt>
      <trkpt lat="43.71487" lon="7.03405">
        <ele>630.20001220703</ele>
        <time>2013-12-08T12:23:07.000Z</time>
      </trkpt>
      <trkpt lat="43.71481" lon="7.03419">
        <ele>626</ele>
        <time>2013-12-08T12:23:11.000Z</time>
      </trkpt>
      <trkpt lat="43.71478" lon="7.03428">
        <ele>623.59997558594</ele>
        <time>2013-12-08T12:23:13.000Z</time>
      </trkpt>
      <trkpt lat="43.71473" lon="7.03439">
        <ele>620.40002441406</ele>
        <time>2013-12-08T12:23:17.000Z</time>
      </trkpt>
      <trkpt lat="43.71463" lon="7.03456">
        <ele>614.59997558594</ele>
        <time>2013-12-08T12:23:23.000Z</time>
      </trkpt>
      <trkpt lat="43.71455" lon="7.03472">
        <ele>609.20001220703</ele>
        <time>2013-12-08T12:23:28.000Z</time>
      </trkpt>
      <trkpt lat="43.71448" lon="7.03498">
        <ele>602</ele>
        <time>2013-12-08T12:23:32.000Z</time>
      </trkpt>
      <trkpt lat="43.71443" lon="7.03538">
        <ele>598.40002441406</ele>
        <time>2013-12-08T12:23:36.000Z</time>
      </trkpt>
      <trkpt lat="43.71439" lon="7.03555">
        <ele>597</ele>
        <time>2013-12-08T12:23:38.000Z</time>
      </trkpt>
      <trkpt lat="43.71433" lon="7.03569">
        <ele>595.20001220703</ele>
        <time>2013-12-08T12:23:40.000Z</time>
      </trkpt>
      <trkpt lat="43.71423" lon="7.03588">
        <ele>593</ele>
        <time>2013-12-08T12:23:43.000Z</time>
      </trkpt>
      <trkpt lat="43.71416" lon="7.03597">
        <ele>591.79998779297</ele>
        <time>2013-12-08T12:23:45.000Z</time>
      </trkpt>
      <trkpt lat="43.71417" lon="7.03601">
        <ele>591.79998779297</ele>
        <time>2013-12-08T12:23:47.000Z</time>
      </trkpt>
      <trkpt lat="43.71417" lon="7.03602">
        <ele>591.79998779297</ele>
        <time>2013-12-08T12:23:48.000Z</time>
      </trkpt>
      <trkpt lat="43.71436" lon="7.03618">
        <ele>593.20001220703</ele>
        <time>2013-12-08T12:24:52.000Z</time>
      </trkpt>
      <trkpt lat="43.71438" lon="7.03622">
        <ele>593.20001220703</ele>
        <time>2013-12-08T12:25:10.000Z</time>
      </trkpt>
      <trkpt lat="43.71436" lon="7.03616">
        <ele>593.40002441406</ele>
        <time>2013-12-08T12:25:16.000Z</time>
      </trkpt>
      <trkpt lat="43.71435" lon="7.0361">
        <ele>593.59997558594</ele>
        <time>2013-12-08T12:25:37.000Z</time>
      </trkpt>
      <trkpt lat="43.71433" lon="7.03616">
        <ele>593</ele>
        <time>2013-12-08T12:25:39.000Z</time>
      </trkpt>
      <trkpt lat="43.71425" lon="7.03632">
        <ele>591.79998779297</ele>
        <time>2013-12-08T12:25:45.000Z</time>
      </trkpt>
      <trkpt lat="43.71423" lon="7.03635">
        <ele>591.59997558594</ele>
        <time>2013-12-08T12:25:46.000Z</time>
      </trkpt>
      <trkpt lat="43.71414" lon="7.03652">
        <ele>590.79998779297</ele>
        <time>2013-12-08T12:25:51.000Z</time>
      </trkpt>
      <trkpt lat="43.714" lon="7.03676">
        <ele>587.20001220703</ele>
        <time>2013-12-08T12:25:57.000Z</time>
      </trkpt>
      <trkpt lat="43.71387" lon="7.03691">
        <ele>583.40002441406</ele>
        <time>2013-12-08T12:26:02.000Z</time>
      </trkpt>
      <trkpt lat="43.71372" lon="7.03711">
        <ele>580</ele>
        <time>2013-12-08T12:26:07.000Z</time>
      </trkpt>
      <trkpt lat="43.71354" lon="7.03731">
        <ele>578</ele>
        <time>2013-12-08T12:26:12.000Z</time>
      </trkpt>
      <trkpt lat="43.7135" lon="7.03736">
        <ele>577.59997558594</ele>
        <time>2013-12-08T12:26:13.000Z</time>
      </trkpt>
      <trkpt lat="43.71339" lon="7.03748">
        <ele>577.59997558594</ele>
        <time>2013-12-08T12:26:16.000Z</time>
      </trkpt>
      <trkpt lat="43.71332" lon="7.03763">
        <ele>574.59997558594</ele>
        <time>2013-12-08T12:26:19.000Z</time>
      </trkpt>
      <trkpt lat="43.71331" lon="7.03764">
        <ele>574</ele>
        <time>2013-12-08T12:26:20.000Z</time>
      </trkpt>
      <trkpt lat="43.7133" lon="7.03766">
        <ele>573.40002441406</ele>
        <time>2013-12-08T12:26:23.000Z</time>
      </trkpt>
      <trkpt lat="43.71336" lon="7.03764">
        <ele>574.40002441406</ele>
        <time>2013-12-08T12:26:26.000Z</time>
      </trkpt>
      <trkpt lat="43.71337" lon="7.03764">
        <ele>574.20001220703</ele>
        <time>2013-12-08T12:26:27.000Z</time>
      </trkpt>
      <trkpt lat="43.71354" lon="7.03763">
        <ele>573.40002441406</ele>
        <time>2013-12-08T12:26:32.000Z</time>
      </trkpt>
      <trkpt lat="43.7137" lon="7.0376">
        <ele>573.20001220703</ele>
        <time>2013-12-08T12:26:37.000Z</time>
      </trkpt>
      <trkpt lat="43.71372" lon="7.03762">
        <ele>572.59997558594</ele>
        <time>2013-12-08T12:26:39.000Z</time>
      </trkpt>
      <trkpt lat="43.7137" lon="7.03767">
        <ele>572</ele>
        <time>2013-12-08T12:26:41.000Z</time>
      </trkpt>
      <trkpt lat="43.71365" lon="7.0377">
        <ele>571.59997558594</ele>
        <time>2013-12-08T12:26:43.000Z</time>
      </trkpt>
      <trkpt lat="43.71362" lon="7.03778">
        <ele>570.20001220703</ele>
        <time>2013-12-08T12:26:45.000Z</time>
      </trkpt>
      <trkpt lat="43.71357" lon="7.03786">
        <ele>568.59997558594</ele>
        <time>2013-12-08T12:26:49.000Z</time>
      </trkpt>
      <trkpt lat="43.71357" lon="7.03786">
        <ele>568.59997558594</ele>
        <time>2013-12-08T12:26:50.000Z</time>
      </trkpt>
      <trkpt lat="43.71365" lon="7.03783">
        <ele>569.20001220703</ele>
        <time>2013-12-08T12:26:54.000Z</time>
      </trkpt>
      <trkpt lat="43.71381" lon="7.03781">
        <ele>569.20001220703</ele>
        <time>2013-12-08T12:26:57.000Z</time>
      </trkpt>
      <trkpt lat="43.71394" lon="7.03776">
        <ele>569.59997558594</ele>
        <time>2013-12-08T12:27:01.000Z</time>
      </trkpt>
      <trkpt lat="43.71407" lon="7.03778">
        <ele>569</ele>
        <time>2013-12-08T12:27:05.000Z</time>
      </trkpt>
      <trkpt lat="43.71417" lon="7.03789">
        <ele>567.59997558594</ele>
        <time>2013-12-08T12:27:09.000Z</time>
      </trkpt>
      <trkpt lat="43.71416" lon="7.03793">
        <ele>567.40002441406</ele>
        <time>2013-12-08T12:27:10.000Z</time>
      </trkpt>
      <trkpt lat="43.71406" lon="7.03807">
        <ele>565.79998779297</ele>
        <time>2013-12-08T12:27:13.000Z</time>
      </trkpt>
      <trkpt lat="43.71386" lon="7.03834">
        <ele>561.40002441406</ele>
        <time>2013-12-08T12:27:17.000Z</time>
      </trkpt>
      <trkpt lat="43.71383" lon="7.0384">
        <ele>561.20001220703</ele>
        <time>2013-12-08T12:27:18.000Z</time>
      </trkpt>
      <trkpt lat="43.7138" lon="7.03854">
        <ele>560.79998779297</ele>
        <time>2013-12-08T12:27:20.000Z</time>
      </trkpt>
      <trkpt lat="43.71381" lon="7.03858">
        <ele>560.79998779297</ele>
        <time>2013-12-08T12:27:21.000Z</time>
      </trkpt>
      <trkpt lat="43.71378" lon="7.0386">
        <ele>560.40002441406</ele>
        <time>2013-12-08T12:27:22.000Z</time>
      </trkpt>
      <trkpt lat="43.71371" lon="7.03871">
        <ele>558.79998779297</ele>
        <time>2013-12-08T12:27:26.000Z</time>
      </trkpt>
      <trkpt lat="43.7137" lon="7.03878">
        <ele>558.20001220703</ele>
        <time>2013-12-08T12:27:27.000Z</time>
      </trkpt>
      <trkpt lat="43.71368" lon="7.03886">
        <ele>557.40002441406</ele>
        <time>2013-12-08T12:27:28.000Z</time>
      </trkpt>
      <trkpt lat="43.71366" lon="7.03898">
        <ele>556</ele>
        <time>2013-12-08T12:27:30.000Z</time>
      </trkpt>
      <trkpt lat="43.71357" lon="7.03908">
        <ele>552.20001220703</ele>
        <time>2013-12-08T12:27:33.000Z</time>
      </trkpt>
      <trkpt lat="43.71349" lon="7.03921">
        <ele>547.79998779297</ele>
        <time>2013-12-08T12:27:36.000Z</time>
      </trkpt>
      <trkpt lat="43.71344" lon="7.03935">
        <ele>545.59997558594</ele>
        <time>2013-12-08T12:27:38.000Z</time>
      </trkpt>
      <trkpt lat="43.71341" lon="7.0396">
        <ele>543.40002441406</ele>
        <time>2013-12-08T12:27:41.000Z</time>
      </trkpt>
      <trkpt lat="43.71335" lon="7.03999">
        <ele>537.79998779297</ele>
        <time>2013-12-08T12:27:46.000Z</time>
      </trkpt>
      <trkpt lat="43.71333" lon="7.04006">
        <ele>536.79998779297</ele>
        <time>2013-12-08T12:27:47.000Z</time>
      </trkpt>
      <trkpt lat="43.71322" lon="7.04021">
        <ele>531.20001220703</ele>
        <time>2013-12-08T12:27:50.000Z</time>
      </trkpt>
      <trkpt lat="43.71312" lon="7.04045">
        <ele>526</ele>
        <time>2013-12-08T12:27:54.000Z</time>
      </trkpt>
      <trkpt lat="43.71308" lon="7.0406">
        <ele>524</ele>
        <time>2013-12-08T12:27:56.000Z</time>
      </trkpt>
      <trkpt lat="43.71305" lon="7.04079">
        <ele>522.79998779297</ele>
        <time>2013-12-08T12:27:59.000Z</time>
      </trkpt>
      <trkpt lat="43.71305" lon="7.04094">
        <ele>523.59997558594</ele>
        <time>2013-12-08T12:28:03.000Z</time>
      </trkpt>
      <trkpt lat="43.71298" lon="7.04115">
        <ele>520.79998779297</ele>
        <time>2013-12-08T12:28:08.000Z</time>
      </trkpt>
      <trkpt lat="43.71296" lon="7.04125">
        <ele>520</ele>
        <time>2013-12-08T12:28:11.000Z</time>
      </trkpt>
      <trkpt lat="43.71294" lon="7.04127">
        <ele>519.20001220703</ele>
        <time>2013-12-08T12:28:12.000Z</time>
      </trkpt>
      <trkpt lat="43.71291" lon="7.04147">
        <ele>519</ele>
        <time>2013-12-08T12:28:17.000Z</time>
      </trkpt>
      <trkpt lat="43.71284" lon="7.04171">
        <ele>517.79998779297</ele>
        <time>2013-12-08T12:28:21.000Z</time>
      </trkpt>
      <trkpt lat="43.71277" lon="7.0419">
        <ele>517.59997558594</ele>
        <time>2013-12-08T12:28:25.000Z</time>
      </trkpt>
      <trkpt lat="43.71273" lon="7.04203">
        <ele>517.40002441406</ele>
        <time>2013-12-08T12:28:27.000Z</time>
      </trkpt>
      <trkpt lat="43.71269" lon="7.04215">
        <ele>517.79998779297</ele>
        <time>2013-12-08T12:28:29.000Z</time>
      </trkpt>
      <trkpt lat="43.71263" lon="7.04248">
        <ele>520.79998779297</ele>
        <time>2013-12-08T12:28:33.000Z</time>
      </trkpt>
      <trkpt lat="43.7126" lon="7.04269">
        <ele>522.20001220703</ele>
        <time>2013-12-08T12:28:36.000Z</time>
      </trkpt>
      <trkpt lat="43.7126" lon="7.04284">
        <ele>523.79998779297</ele>
        <time>2013-12-08T12:28:38.000Z</time>
      </trkpt>
      <trkpt lat="43.7126" lon="7.04305">
        <ele>526</ele>
        <time>2013-12-08T12:28:41.000Z</time>
      </trkpt>
      <trkpt lat="43.71261" lon="7.04318">
        <ele>527.79998779297</ele>
        <time>2013-12-08T12:28:44.000Z</time>
      </trkpt>
      <trkpt lat="43.71262" lon="7.04322">
        <ele>528.40002441406</ele>
        <time>2013-12-08T12:28:45.000Z</time>
      </trkpt>
      <trkpt lat="43.71262" lon="7.04327">
        <ele>528.79998779297</ele>
        <time>2013-12-08T12:28:46.000Z</time>
      </trkpt>
      <trkpt lat="43.7126" lon="7.04338">
        <ele>529</ele>
        <time>2013-12-08T12:28:49.000Z</time>
      </trkpt>
      <trkpt lat="43.71257" lon="7.04352">
        <ele>528</ele>
        <time>2013-12-08T12:28:54.000Z</time>
      </trkpt>
      <trkpt lat="43.71257" lon="7.04367">
        <ele>527.79998779297</ele>
        <time>2013-12-08T12:28:58.000Z</time>
      </trkpt>
      <trkpt lat="43.71256" lon="7.0439">
        <ele>527</ele>
        <time>2013-12-08T12:29:04.000Z</time>
      </trkpt>
      <trkpt lat="43.71257" lon="7.04405">
        <ele>526.59997558594</ele>
        <time>2013-12-08T12:29:10.000Z</time>
      </trkpt>
      <trkpt lat="43.71259" lon="7.04421">
        <ele>526.20001220703</ele>
        <time>2013-12-08T12:29:17.000Z</time>
      </trkpt>
      <trkpt lat="43.71262" lon="7.04435">
        <ele>525.20001220703</ele>
        <time>2013-12-08T12:29:23.000Z</time>
      </trkpt>
      <trkpt lat="43.7127" lon="7.04449">
        <ele>525.20001220703</ele>
        <time>2013-12-08T12:29:29.000Z</time>
      </trkpt>
      <trkpt lat="43.71278" lon="7.04456">
        <ele>525.79998779297</ele>
        <time>2013-12-08T12:29:35.000Z</time>
      </trkpt>
      <trkpt lat="43.71279" lon="7.04458">
        <ele>526</ele>
        <time>2013-12-08T12:29:36.000Z</time>
      </trkpt>
      <trkpt lat="43.71283" lon="7.04461">
        <ele>526.40002441406</ele>
        <time>2013-12-08T12:29:40.000Z</time>
      </trkpt>
      <trkpt lat="43.71285" lon="7.04464">
        <ele>526.59997558594</ele>
        <time>2013-12-08T12:29:43.000Z</time>
      </trkpt>
      <trkpt lat="43.71285" lon="7.04465">
        <ele>526.40002441406</ele>
        <time>2013-12-08T12:29:46.000Z</time>
      </trkpt>
      <trkpt lat="43.71284" lon="7.04474">
        <ele>525</ele>
        <time>2013-12-08T12:31:20.000Z</time>
      </trkpt>
      <trkpt lat="43.71285" lon="7.04483">
        <ele>524.40002441406</ele>
        <time>2013-12-08T12:31:22.000Z</time>
      </trkpt>
      <trkpt lat="43.71288" lon="7.04507">
        <ele>522</ele>
        <time>2013-12-08T12:31:25.000Z</time>
      </trkpt>
      <trkpt lat="43.71297" lon="7.04542">
        <ele>518.79998779297</ele>
        <time>2013-12-08T12:31:28.000Z</time>
      </trkpt>
      <trkpt lat="43.7131" lon="7.04577">
        <ele>517.40002441406</ele>
        <time>2013-12-08T12:31:32.000Z</time>
      </trkpt>
      <trkpt lat="43.71316" lon="7.04595">
        <ele>517.40002441406</ele>
        <time>2013-12-08T12:31:35.000Z</time>
      </trkpt>
      <trkpt lat="43.71318" lon="7.04599">
        <ele>517.59997558594</ele>
        <time>2013-12-08T12:31:36.000Z</time>
      </trkpt>
      <trkpt lat="43.7132" lon="7.04604">
        <ele>517.79998779297</ele>
        <time>2013-12-08T12:31:37.000Z</time>
      </trkpt>
      <trkpt lat="43.71323" lon="7.04622">
        <ele>517.40002441406</ele>
        <time>2013-12-08T12:31:41.000Z</time>
      </trkpt>
      <trkpt lat="43.71324" lon="7.04627">
        <ele>517</ele>
        <time>2013-12-08T12:31:42.000Z</time>
      </trkpt>
      <trkpt lat="43.71325" lon="7.04654">
        <ele>515.20001220703</ele>
        <time>2013-12-08T12:31:46.000Z</time>
      </trkpt>
      <trkpt lat="43.71325" lon="7.04661">
        <ele>514.40002441406</ele>
        <time>2013-12-08T12:31:47.000Z</time>
      </trkpt>
      <trkpt lat="43.7132" lon="7.04681">
        <ele>510.60000610352</ele>
        <time>2013-12-08T12:31:50.000Z</time>
      </trkpt>
      <trkpt lat="43.71327" lon="7.04701">
        <ele>510.60000610352</ele>
        <time>2013-12-08T12:31:53.000Z</time>
      </trkpt>
      <trkpt lat="43.7133" lon="7.04708">
        <ele>511</ele>
        <time>2013-12-08T12:31:54.000Z</time>
      </trkpt>
      <trkpt lat="43.71336" lon="7.04723">
        <ele>510.60000610352</ele>
        <time>2013-12-08T12:31:57.000Z</time>
      </trkpt>
      <trkpt lat="43.71336" lon="7.04728">
        <ele>510</ele>
        <time>2013-12-08T12:31:58.000Z</time>
      </trkpt>
      <trkpt lat="43.71331" lon="7.04748">
        <ele>506.60000610352</ele>
        <time>2013-12-08T12:32:01.000Z</time>
      </trkpt>
      <trkpt lat="43.71328" lon="7.04767">
        <ele>503.39999389648</ele>
        <time>2013-12-08T12:32:03.000Z</time>
      </trkpt>
      <trkpt lat="43.71329" lon="7.04784">
        <ele>501.79998779297</ele>
        <time>2013-12-08T12:32:05.000Z</time>
      </trkpt>
      <trkpt lat="43.71336" lon="7.04809">
        <ele>500.20001220703</ele>
        <time>2013-12-08T12:32:08.000Z</time>
      </trkpt>
      <trkpt lat="43.71341" lon="7.04844">
        <ele>496.60000610352</ele>
        <time>2013-12-08T12:32:11.000Z</time>
      </trkpt>
      <trkpt lat="43.71358" lon="7.04869">
        <ele>495.20001220703</ele>
        <time>2013-12-08T12:32:14.000Z</time>
      </trkpt>
      <trkpt lat="43.71368" lon="7.04885">
        <ele>494.39999389648</ele>
        <time>2013-12-08T12:32:16.000Z</time>
      </trkpt>
      <trkpt lat="43.71385" lon="7.04909">
        <ele>493.20001220703</ele>
        <time>2013-12-08T12:32:19.000Z</time>
      </trkpt>
      <trkpt lat="43.71392" lon="7.04915">
        <ele>493.20001220703</ele>
        <time>2013-12-08T12:32:20.000Z</time>
      </trkpt>
      <trkpt lat="43.71416" lon="7.04935">
        <ele>493.20001220703</ele>
        <time>2013-12-08T12:32:23.000Z</time>
      </trkpt>
      <trkpt lat="43.71434" lon="7.04957">
        <ele>491.79998779297</ele>
        <time>2013-12-08T12:32:26.000Z</time>
      </trkpt>
      <trkpt lat="43.71451" lon="7.04994">
        <ele>487.39999389648</ele>
        <time>2013-12-08T12:32:30.000Z</time>
      </trkpt>
      <trkpt lat="43.71463" lon="7.0502">
        <ele>484.39999389648</ele>
        <time>2013-12-08T12:32:34.000Z</time>
      </trkpt>
      <trkpt lat="43.71464" lon="7.05027">
        <ele>483.39999389648</ele>
        <time>2013-12-08T12:32:35.000Z</time>
      </trkpt>
      <trkpt lat="43.71462" lon="7.05042">
        <ele>480.79998779297</ele>
        <time>2013-12-08T12:32:37.000Z</time>
      </trkpt>
      <trkpt lat="43.71458" lon="7.05058">
        <ele>478.39999389648</ele>
        <time>2013-12-08T12:32:39.000Z</time>
      </trkpt>
      <trkpt lat="43.71458" lon="7.05064">
        <ele>477.20001220703</ele>
        <time>2013-12-08T12:32:40.000Z</time>
      </trkpt>
      <trkpt lat="43.71459" lon="7.05072">
        <ele>476.20001220703</ele>
        <time>2013-12-08T12:32:41.000Z</time>
      </trkpt>
      <trkpt lat="43.71473" lon="7.05094">
        <ele>473.60000610352</ele>
        <time>2013-12-08T12:32:44.000Z</time>
      </trkpt>
      <trkpt lat="43.71484" lon="7.05106">
        <ele>472.20001220703</ele>
        <time>2013-12-08T12:32:46.000Z</time>
      </trkpt>
      <trkpt lat="43.715" lon="7.05125">
        <ele>470.60000610352</ele>
        <time>2013-12-08T12:32:49.000Z</time>
      </trkpt>
      <trkpt lat="43.71511" lon="7.05141">
        <ele>469.39999389648</ele>
        <time>2013-12-08T12:32:52.000Z</time>
      </trkpt>
      <trkpt lat="43.71513" lon="7.05148">
        <ele>468.39999389648</ele>
        <time>2013-12-08T12:32:53.000Z</time>
      </trkpt>
      <trkpt lat="43.71513" lon="7.05182">
        <ele>462.60000610352</ele>
        <time>2013-12-08T12:32:56.000Z</time>
      </trkpt>
      <trkpt lat="43.71523" lon="7.05216">
        <ele>457</ele>
        <time>2013-12-08T12:32:59.000Z</time>
      </trkpt>
      <trkpt lat="43.7154" lon="7.05241">
        <ele>454</ele>
        <time>2013-12-08T12:33:02.000Z</time>
      </trkpt>
      <trkpt lat="43.71545" lon="7.05248">
        <ele>453.39999389648</ele>
        <time>2013-12-08T12:33:03.000Z</time>
      </trkpt>
      <trkpt lat="43.71564" lon="7.05274">
        <ele>451</ele>
        <time>2013-12-08T12:33:06.000Z</time>
      </trkpt>
      <trkpt lat="43.7157" lon="7.05286">
        <ele>449.39999389648</ele>
        <time>2013-12-08T12:33:07.000Z</time>
      </trkpt>
      <trkpt lat="43.7159" lon="7.05309">
        <ele>446.60000610352</ele>
        <time>2013-12-08T12:33:10.000Z</time>
      </trkpt>
      <trkpt lat="43.71594" lon="7.05313">
        <ele>446</ele>
        <time>2013-12-08T12:33:12.000Z</time>
      </trkpt>
      <trkpt lat="43.71593" lon="7.05314">
        <ele>445.79998779297</ele>
        <time>2013-12-08T12:33:13.000Z</time>
      </trkpt>
      <trkpt lat="43.71595" lon="7.05338">
        <ele>441.39999389648</ele>
        <time>2013-12-08T12:33:18.000Z</time>
      </trkpt>
      <trkpt lat="43.71598" lon="7.05349">
        <ele>439.39999389648</ele>
        <time>2013-12-08T12:33:21.000Z</time>
      </trkpt>
      <trkpt lat="43.71601" lon="7.05351">
        <ele>439</ele>
        <time>2013-12-08T12:33:22.000Z</time>
      </trkpt>
      <trkpt lat="43.71612" lon="7.05356">
        <ele>438.20001220703</ele>
        <time>2013-12-08T12:33:26.000Z</time>
      </trkpt>
      <trkpt lat="43.71635" lon="7.05368">
        <ele>435.79998779297</ele>
        <time>2013-12-08T12:33:31.000Z</time>
      </trkpt>
      <trkpt lat="43.7166" lon="7.05376">
        <ele>433.79998779297</ele>
        <time>2013-12-08T12:33:36.000Z</time>
      </trkpt>
      <trkpt lat="43.71694" lon="7.05386">
        <ele>431.79998779297</ele>
        <time>2013-12-08T12:33:43.000Z</time>
      </trkpt>
      <trkpt lat="43.71731" lon="7.0539">
        <ele>431</ele>
        <time>2013-12-08T12:33:50.000Z</time>
      </trkpt>
      <trkpt lat="43.71762" lon="7.05396">
        <ele>430.20001220703</ele>
        <time>2013-12-08T12:33:55.000Z</time>
      </trkpt>
      <trkpt lat="43.718" lon="7.05407">
        <ele>429.39999389648</ele>
        <time>2013-12-08T12:34:01.000Z</time>
      </trkpt>
      <trkpt lat="43.71819" lon="7.05412">
        <ele>429.20001220703</ele>
        <time>2013-12-08T12:34:04.000Z</time>
      </trkpt>
      <trkpt lat="43.71832" lon="7.05414">
        <ele>429.60000610352</ele>
        <time>2013-12-08T12:34:06.000Z</time>
      </trkpt>
      <trkpt lat="43.71837" lon="7.05417">
        <ele>429.60000610352</ele>
        <time>2013-12-08T12:34:07.000Z</time>
      </trkpt>
      <trkpt lat="43.71842" lon="7.05429">
        <ele>429.39999389648</ele>
        <time>2013-12-08T12:34:09.000Z</time>
      </trkpt>
      <trkpt lat="43.7183" lon="7.05449">
        <ele>426</ele>
        <time>2013-12-08T12:34:12.000Z</time>
      </trkpt>
      <trkpt lat="43.71814" lon="7.05466">
        <ele>422.20001220703</ele>
        <time>2013-12-08T12:34:15.000Z</time>
      </trkpt>
      <trkpt lat="43.71804" lon="7.0548">
        <ele>418.79998779297</ele>
        <time>2013-12-08T12:34:17.000Z</time>
      </trkpt>
      <trkpt lat="43.71797" lon="7.05507">
        <ele>415.20001220703</ele>
        <time>2013-12-08T12:34:20.000Z</time>
      </trkpt>
      <trkpt lat="43.71795" lon="7.05516">
        <ele>415.20001220703</ele>
        <time>2013-12-08T12:34:21.000Z</time>
      </trkpt>
      <trkpt lat="43.71787" lon="7.05553">
        <ele>414.60000610352</ele>
        <time>2013-12-08T12:34:26.000Z</time>
      </trkpt>
      <trkpt lat="43.71781" lon="7.0558">
        <ele>414</ele>
        <time>2013-12-08T12:34:30.000Z</time>
      </trkpt>
      <trkpt lat="43.71777" lon="7.0559">
        <ele>413.60000610352</ele>
        <time>2013-12-08T12:34:32.000Z</time>
      </trkpt>
      <trkpt lat="43.71771" lon="7.056">
        <ele>413.20001220703</ele>
        <time>2013-12-08T12:34:34.000Z</time>
      </trkpt>
      <trkpt lat="43.71762" lon="7.05619">
        <ele>413</ele>
        <time>2013-12-08T12:34:38.000Z</time>
      </trkpt>
      <trkpt lat="43.7175" lon="7.05654">
        <ele>413.60000610352</ele>
        <time>2013-12-08T12:34:45.000Z</time>
      </trkpt>
      <trkpt lat="43.71747" lon="7.05664">
        <ele>413.79998779297</ele>
        <time>2013-12-08T12:34:47.000Z</time>
      </trkpt>
      <trkpt lat="43.71743" lon="7.0568">
        <ele>413.60000610352</ele>
        <time>2013-12-08T12:34:50.000Z</time>
      </trkpt>
      <trkpt lat="43.71743" lon="7.05687">
        <ele>413.79998779297</ele>
        <time>2013-12-08T12:34:51.000Z</time>
      </trkpt>
      <trkpt lat="43.71744" lon="7.057">
        <ele>414.60000610352</ele>
        <time>2013-12-08T12:34:54.000Z</time>
      </trkpt>
      <trkpt lat="43.71737" lon="7.05714">
        <ele>414</ele>
        <time>2013-12-08T12:34:58.000Z</time>
      </trkpt>
      <trkpt lat="43.7172" lon="7.05738">
        <ele>412</ele>
        <time>2013-12-08T12:35:03.000Z</time>
      </trkpt>
      <trkpt lat="43.71714" lon="7.0575">
        <ele>412</ele>
        <time>2013-12-08T12:35:05.000Z</time>
      </trkpt>
      <trkpt lat="43.71715" lon="7.05754">
        <ele>412.39999389648</ele>
        <time>2013-12-08T12:35:07.000Z</time>
      </trkpt>
      <trkpt lat="43.71713" lon="7.05754">
        <ele>412</ele>
        <time>2013-12-08T12:35:09.000Z</time>
      </trkpt>
      <trkpt lat="43.71712" lon="7.05757">
        <ele>412</ele>
        <time>2013-12-08T12:35:10.000Z</time>
      </trkpt>
      <trkpt lat="43.71702" lon="7.05777">
        <ele>411.79998779297</ele>
        <time>2013-12-08T12:35:14.000Z</time>
      </trkpt>
      <trkpt lat="43.71693" lon="7.0581">
        <ele>413</ele>
        <time>2013-12-08T12:35:20.000Z</time>
      </trkpt>
      <trkpt lat="43.71689" lon="7.05815">
        <ele>413</ele>
        <time>2013-12-08T12:35:22.000Z</time>
      </trkpt>
      <trkpt lat="43.71685" lon="7.05824">
        <ele>413.20001220703</ele>
        <time>2013-12-08T12:35:24.000Z</time>
      </trkpt>
      <trkpt lat="43.71685" lon="7.05846">
        <ele>413.60000610352</ele>
        <time>2013-12-08T12:35:28.000Z</time>
      </trkpt>
      <trkpt lat="43.71685" lon="7.05852">
        <ele>413.39999389648</ele>
        <time>2013-12-08T12:35:29.000Z</time>
      </trkpt>
      <trkpt lat="43.71687" lon="7.05877">
        <ele>413</ele>
        <time>2013-12-08T12:35:34.000Z</time>
      </trkpt>
      <trkpt lat="43.71691" lon="7.05905">
        <ele>412.79998779297</ele>
        <time>2013-12-08T12:35:40.000Z</time>
      </trkpt>
      <trkpt lat="43.71698" lon="7.05941">
        <ele>410.20001220703</ele>
        <time>2013-12-08T12:35:47.000Z</time>
      </trkpt>
      <trkpt lat="43.71706" lon="7.05973">
        <ele>407.79998779297</ele>
        <time>2013-12-08T12:35:53.000Z</time>
      </trkpt>
      <trkpt lat="43.71712" lon="7.05995">
        <ele>406.60000610352</ele>
        <time>2013-12-08T12:35:57.000Z</time>
      </trkpt>
      <trkpt lat="43.71716" lon="7.0601">
        <ele>405.79998779297</ele>
        <time>2013-12-08T12:36:00.000Z</time>
      </trkpt>
      <trkpt lat="43.71718" lon="7.06016">
        <ele>405.60000610352</ele>
        <time>2013-12-08T12:36:01.000Z</time>
      </trkpt>
      <trkpt lat="43.71728" lon="7.06041">
        <ele>405.39999389648</ele>
        <time>2013-12-08T12:36:06.000Z</time>
      </trkpt>
      <trkpt lat="43.71747" lon="7.06073">
        <ele>407</ele>
        <time>2013-12-08T12:36:12.000Z</time>
      </trkpt>
      <trkpt lat="43.71761" lon="7.06108">
        <ele>406.20001220703</ele>
        <time>2013-12-08T12:36:18.000Z</time>
      </trkpt>
      <trkpt lat="43.71787" lon="7.06174">
        <ele>404.20001220703</ele>
        <time>2013-12-08T12:36:28.000Z</time>
      </trkpt>
      <trkpt lat="43.7181" lon="7.06227">
        <ele>404.79998779297</ele>
        <time>2013-12-08T12:36:36.000Z</time>
      </trkpt>
      <trkpt lat="43.71821" lon="7.06242">
        <ele>404.60000610352</ele>
        <time>2013-12-08T12:36:39.000Z</time>
      </trkpt>
      <trkpt lat="43.71826" lon="7.06243">
        <ele>405</ele>
        <time>2013-12-08T12:36:40.000Z</time>
      </trkpt>
      <trkpt lat="43.71845" lon="7.06245">
        <ele>405.79998779297</ele>
        <time>2013-12-08T12:36:44.000Z</time>
      </trkpt>
      <trkpt lat="43.71846" lon="7.06247">
        <ele>405.60000610352</ele>
        <time>2013-12-08T12:36:45.000Z</time>
      </trkpt>
      <trkpt lat="43.71843" lon="7.06252">
        <ele>405.20001220703</ele>
        <time>2013-12-08T12:36:48.000Z</time>
      </trkpt>
      <trkpt lat="43.71843" lon="7.06255">
        <ele>405</ele>
        <time>2013-12-08T12:36:52.000Z</time>
      </trkpt>
      <trkpt lat="43.7185" lon="7.06256">
        <ele>405.20001220703</ele>
        <time>2013-12-08T12:36:57.000Z</time>
      </trkpt>
      <trkpt lat="43.7186" lon="7.06254">
        <ele>405.39999389648</ele>
        <time>2013-12-08T12:37:03.000Z</time>
      </trkpt>
      <trkpt lat="43.71865" lon="7.06252">
        <ele>405.60000610352</ele>
        <time>2013-12-08T12:37:08.000Z</time>
      </trkpt>
      <trkpt lat="43.71866" lon="7.06251">
        <ele>405.79998779297</ele>
        <time>2013-12-08T12:37:09.000Z</time>
      </trkpt>
      <trkpt lat="43.71867" lon="7.06251">
        <ele>405.79998779297</ele>
        <time>2013-12-08T12:37:10.000Z</time>
      </trkpt>
      <trkpt lat="43.71867" lon="7.06251">
        <ele>405.79998779297</ele>
        <time>2013-12-08T12:37:14.000Z</time>
      </trkpt>
      <trkpt lat="43.71867" lon="7.06251">
        <ele>405.79998779297</ele>
        <time>2013-12-08T12:37:21.000Z</time>
      </trkpt>
      <trkpt lat="43.71868" lon="7.06255">
        <ele>405.60000610352</ele>
        <time>2013-12-08T12:37:50.000Z</time>
      </trkpt>
      <trkpt lat="43.71871" lon="7.06259">
        <ele>405.60000610352</ele>
        <time>2013-12-08T12:38:42.000Z</time>
      </trkpt>
      <trkpt lat="43.71871" lon="7.06259">
        <ele>405.60000610352</ele>
        <time>2013-12-08T12:38:52.000Z</time>
      </trkpt>
      <trkpt lat="43.71873" lon="7.06245">
        <ele>406.39999389648</ele>
        <time>2013-12-08T12:40:38.000Z</time>
      </trkpt>
      <trkpt lat="43.71875" lon="7.06244">
        <ele>406.60000610352</ele>
        <time>2013-12-08T12:40:45.000Z</time>
      </trkpt>
      <trkpt lat="43.71873" lon="7.06251">
        <ele>406</ele>
        <time>2013-12-08T12:41:53.000Z</time>
      </trkpt>
      <trkpt lat="43.71869" lon="7.06253">
        <ele>405.79998779297</ele>
        <time>2013-12-08T12:41:59.000Z</time>
      </trkpt>
      <trkpt lat="43.71867" lon="7.06253">
        <ele>405.79998779297</ele>
        <time>2013-12-08T12:42:05.000Z</time>
      </trkpt>
      <trkpt lat="43.71863" lon="7.06261">
        <ele>405.20001220703</ele>
        <time>2013-12-08T12:44:44.000Z</time>
      </trkpt>
      <trkpt lat="43.71855" lon="7.06261">
        <ele>405</ele>
        <time>2013-12-08T12:44:49.000Z</time>
      </trkpt>
      <trkpt lat="43.71853" lon="7.06264">
        <ele>405</ele>
        <time>2013-12-08T12:44:51.000Z</time>
      </trkpt>
      <trkpt lat="43.71852" lon="7.06281">
        <ele>404.20001220703</ele>
        <time>2013-12-08T12:44:56.000Z</time>
      </trkpt>
      <trkpt lat="43.71853" lon="7.06291">
        <ele>403.79998779297</ele>
        <time>2013-12-08T12:44:58.000Z</time>
      </trkpt>
      <trkpt lat="43.71856" lon="7.06305">
        <ele>403.20001220703</ele>
        <time>2013-12-08T12:45:01.000Z</time>
      </trkpt>
      <trkpt lat="43.71856" lon="7.0631">
        <ele>403</ele>
        <time>2013-12-08T12:45:03.000Z</time>
      </trkpt>
      <trkpt lat="43.71856" lon="7.06312">
        <ele>403</ele>
        <time>2013-12-08T12:45:05.000Z</time>
      </trkpt>
      <trkpt lat="43.71856" lon="7.06313">
        <ele>403</ele>
        <time>2013-12-08T12:45:10.000Z</time>
      </trkpt>
      <trkpt lat="43.71853" lon="7.0631">
        <ele>403</ele>
        <time>2013-12-08T12:45:22.000Z</time>
      </trkpt>
      <trkpt lat="43.71855" lon="7.06316">
        <ele>402.79998779297</ele>
        <time>2013-12-08T12:46:12.000Z</time>
      </trkpt>
      <trkpt lat="43.71864" lon="7.0634">
        <ele>402.79998779297</ele>
        <time>2013-12-08T12:46:17.000Z</time>
      </trkpt>
      <trkpt lat="43.71871" lon="7.06366">
        <ele>404.20001220703</ele>
        <time>2013-12-08T12:46:23.000Z</time>
      </trkpt>
      <trkpt lat="43.7187" lon="7.0637">
        <ele>404.39999389648</ele>
        <time>2013-12-08T12:46:24.000Z</time>
      </trkpt>
      <trkpt lat="43.7186" lon="7.06378">
        <ele>404.20001220703</ele>
        <time>2013-12-08T12:46:28.000Z</time>
      </trkpt>
      <trkpt lat="43.71853" lon="7.06389">
        <ele>404.39999389648</ele>
        <time>2013-12-08T12:46:32.000Z</time>
      </trkpt>
      <trkpt lat="43.71851" lon="7.06391">
        <ele>404.39999389648</ele>
        <time>2013-12-08T12:46:33.000Z</time>
      </trkpt>
      <trkpt lat="43.71847" lon="7.06392">
        <ele>404.39999389648</ele>
        <time>2013-12-08T12:46:37.000Z</time>
      </trkpt>
      <trkpt lat="43.71847" lon="7.06393">
        <ele>404.39999389648</ele>
        <time>2013-12-08T12:46:43.000Z</time>
      </trkpt>
      <trkpt lat="43.71842" lon="7.06398">
        <ele>404.39999389648</ele>
        <time>2013-12-08T12:51:00.000Z</time>
      </trkpt>
    </trkseg>
  </trk>
</gpx>